[[{"header":{"parameterUnit":"m.s-1","parameterCategory":1,"la1":31.0,"la2":29.5877,"lo1":-88.7671,"lo2":-86.6584,"dy":0.0162,"dx":0.0185,"nx":115,"ny":88,"refTime":"2023-07-24T18:00:00:Z","depth":0,"parameterNumber":2,"parameterNumberName":"U-component_of_WINDS"},"data":[0.0,0.0,0.0,0.0,0.0,0.0,0.0,0.0,0.0,0.0,0.0,0.0,0.0,0.0,0.0,0.0,0.0,0.0,0.0,0.0,0.0,0.0,0.0,0.0,0.0,0.0,0.0,0.0,0.0,0.0,0.0,0.0,0.0,0.0,0.0,0.0,0.0,0.0,0.0,0.0,0.0,0.0,0.0,0.0,0.0,0.0,0.0,0.0,0.0,0.0,0.0,0.0,0.0,0.0,0.0,0.0,0.0,0.0,0.0,0.0,0.0,0.0,0.0,0.0,0.0,0.0,0.0,0.0,0.0,0.0,0.0,0.0,0.0,0.0,0.0,0.0,0.0,0.0,0.0,0.0,0.0,0.0,0.0,0.0,0.0,0.0,0.0,0.0,0.0,0.0,0.0,0.0,0.0,0.0,0.0,0.0,0.0,0.0,0.0,0.0,0.0,0.0,0.0,0.0,0.0,0.0,0.0,0.0,0.0,0.0,0.0,0.0,0.0,0.0,0.0,0.0,0.0,0.0,0.0,0.0,0.0,0.0,0.0,0.0,0.0,0.0,0.0,0.0,0.0,0.0,0.0,0.0,0.0,0.0,0.0,0.0,0.0,0.0,0.0,0.0,0.0,0.0,0.0,0.0,0.0,0.0,0.0,0.0,0.0,0.0,0.0,0.0,0.0,0.0,0.0,0.0,0.0,0.0,0.0,0.0,0.0,0.0,0.0,0.0,0.0,0.0,0.0,0.0,0.0,0.0,0.0,0.0,0.0,0.0,0.0,0.0,0.0,0.0,0.0,0.0,0.0,0.0,0.0,0.0,0.0,0.0,0.0,0.0,0.0,0.0,0.0,0.0,0.0,0.0,0.0,0.0,0.0,0.0,0.0,0.0,0.0,0.0,0.0,0.0,0.0,0.0,0.0,0.0,0.0,0.0,0.0,0.0,0.0,0.0,0.0,0.0,0.0,0.0,0.0,0.0,0.0,0.0,0.0,0.0,0.0,0.0,0.0,0.0,0.0,0.0,0.0,0.0,0.0,0.0,0.0,0.0,0.0,0.0,0.0,0.0,0.0,0.0,0.0,0.0,0.0,0.0,0.0,0.0,0.0,0.0,0.0,0.0,0.0,0.0,0.0,0.0,0.0,0.0,0.0,0.0,0.0,0.0,0.0,0.0,0.0,0.0,0.0,0.0,0.0,0.0,0.0,0.0,0.0,0.0,0.0,0.0,0.0,0.0,0.0,0.0,0.0,0.0,0.0,0.0,0.0,0.0,0.0,0.0,0.0,0.0,0.0,0.0,0.0,0.0,0.0,0.0,0.0,0.0,0.0,0.0,0.0,0.0,0.0,0.0,0.0,0.0,0.0,0.0,0.0,0.0,0.0,0.0,0.0,0.0,0.0,0.0,0.0,0.0,0.0,0.0,0.0,0.0,0.0,0.0,0.0,0.0,0.0,0.0,0.0,0.0,0.0,0.0,0.0,0.0,0.0,0.0,0.0,0.0,0.0,0.0,0.0,0.0,0.0,0.0,0.0,0.0,0.0,0.0,0.0,0.0,0.0,0.0,0.0,0.0,0.0,0.0,0.0,0.0,0.0,0.0,0.0,0.0,0.0,0.0,0.0,0.0,0.0,0.0,0.0,0.0,0.0,0.0,0.0,0.0,0.0,0.0,0.0,0.0,0.0,0.0,0.0,0.0,0.0,0.0,0.0,0.0,0.0,0.0,0.0,0.0,0.0,0.0,0.0,0.0,0.0,0.0,0.0,0.0,0.0,0.0,0.0,0.0,0.0,0.0,0.0,0.0,0.0,0.0,0.0,0.0,0.0,0.0,0.0,0.0,0.0,0.0,0.0,0.0,0.0,0.0,0.0,0.0,0.0,0.0,0.0,0.0,0.0,0.0,0.0,0.0,0.0,0.0,0.0,0.0,0.0,0.0,0.0,0.0,0.0,0.0,0.0,0.0,0.0,0.0,0.0,0.0,0.0,0.0,0.0,0.0,0.0,0.0,0.0,0.0,0.0,0.0,0.0,0.0,0.0,0.0,0.0,0.0,0.0,0.0,0.0,0.0,0.0,0.0,0.0,0.0,0.0,0.0,0.0,0.0,0.0,0.0,0.0,0.0,0.0,0.0,0.0,0.0,0.0,0.0,0.0,0.0,0.0,0.0,0.0,0.0,0.0,0.0,0.0,0.0,0.0,0.0,0.0,0.0,0.0,0.0,0.0,0.0,0.0,0.0,0.0,0.0,0.0,0.0,0.0,0.0,0.0,0.0,0.0,0.0,0.0,0.0,0.0,0.0,0.0,0.0,0.0,0.0,0.0,0.0,0.0,0.0,0.0,0.0,0.0,0.0,0.0,0.0,0.0,0.0,0.0,0.0,0.0,0.0,0.0,0.0,0.0,0.0,0.0,0.0,0.0,0.0,0.0,0.0,0.0,0.0,0.0,0.0,0.0,0.0,0.0,0.0,0.0,0.0,0.0,0.0,0.0,0.0,0.0,0.0,0.0,0.0,0.0,0.0,0.0,0.0,0.0,0.0,0.0,0.0,0.0,0.0,0.0,0.0,0.0,0.0,0.0,0.0,0.0,0.0,0.0,0.0,0.0,0.0,0.0,0.0,0.0,0.0,0.0,0.0,0.0,0.0,0.0,0.0,0.0,0.0,0.0,0.0,0.0,0.0,0.0,0.0,0.0,0.0,0.0,0.0,0.0,0.0,0.0,0.0,0.0,0.0,0.0,0.0,0.0,0.0,0.0,0.0,0.0,0.0,0.0,0.0,0.0,0.0,0.0,0.0,0.0,0.0,0.0,0.0,0.0,0.0,0.0,0.0,0.0,0.0,0.0,0.0,0.0,0.0,0.0,0.0,0.0,0.0,0.0,0.0,0.0,0.0,0.0,0.0,0.0,0.0,0.0,0.0,0.0,0.0,0.0,0.0,0.0,0.0,0.0,0.0,0.0,0.0,0.0,0.0,0.0,0.0,0.0,0.0,0.0,0.0,0.0,0.0,0.0,0.0,0.0,0.0,0.0,0.0,0.0,0.0,0.0,0.0,0.0,0.0,0.0,0.0,0.0,0.0,0.0,0.0,0.0,0.0,0.0,0.0,0.0,0.0,0.0,0.0,0.0,0.0,0.0,0.0,0.0,0.0,0.0,0.0,0.0,0.0,0.0,0.0,0.0,0.0,0.0,0.0,0.0,0.0,0.0,0.0,0.0,0.0,0.0,0.0,0.0,0.0,0.0,0.0,0.0,0.0,0.0,0.0,0.0,0.0,0.0,0.0,0.0,0.0,0.0,0.0,0.0,0.0,0.0,0.0,0.0,0.0,0.0,0.0,0.0,0.0,0.0,0.0,0.0,0.0,0.0,0.0,0.0,0.0,0.0,0.0,0.0,0.0,0.0,0.0,0.0,0.0,0.0,0.0,0.0,0.0,0.0,0.0,0.0,0.0,0.0,0.0,0.0,0.0,0.0,0.0,0.0,0.0,0.0,0.0,0.0,0.0,0.0,0.0,0.0,0.0,0.0,0.0,0.0,0.0,0.0,0.0,0.0,0.0,0.0,0.0,0.0,0.0,0.0,0.0,0.0,0.0,0.0,0.0,0.0,0.0,0.0,0.0,0.0,0.0,0.0,0.0,0.0,0.0,0.0,0.0,0.0,0.0,0.0,0.0,0.0,0.0,0.0,0.0,0.0,0.0,0.0,0.0,0.0,0.0,0.0,0.0,0.0,0.0,0.0,0.0,0.0,0.0,0.0,0.0,0.0,0.0,0.0,0.0,0.0,0.0,0.0,0.0,0.0,0.0,0.0,0.0,0.0,0.0,0.0,0.0,0.0,0.0,0.0,0.0,0.0,0.0,0.0,0.0,0.0,0.0,0.0,0.0,0.0,0.0,0.0,0.0,0.0,0.0,0.0,0.0,0.0,0.0,0.0,0.0,0.0,0.0,0.0,0.0,0.0,0.0,0.0,0.0,0.0,0.0,0.0,0.0,0.0,0.0,0.0,0.0,0.0,0.0,0.0,0.0,0.0,0.0,0.0,0.0,0.0,0.0,0.0,0.0,0.0,0.0,0.0,0.0,0.0,0.0,0.0,0.0,0.0,0.0,0.0,0.0,0.0,0.0,0.0,0.0,0.0,0.0,0.0,0.0,0.0,0.0,0.0,0.0,0.0,0.0,0.0,0.0,0.0,0.0,0.0,0.0,0.0,0.0,0.0,0.0,0.0,0.0,0.0,0.0,0.0,0.0,0.0,0.0,0.0,0.0,0.0,0.0,0.0,0.0,-2.9201,0.0,0.0,0.0,0.0,0.0,0.0,0.0,0.0,0.0,0.0,0.0,0.0,0.0,0.0,0.0,0.0,0.0,0.0,0.0,0.0,0.0,0.0,0.0,0.0,0.0,0.0,0.0,0.0,0.0,0.0,0.0,0.0,0.0,0.0,0.0,0.0,0.0,0.0,0.0,0.0,0.0,0.0,0.0,0.0,0.0,0.0,0.0,0.0,0.0,0.0,0.0,0.0,0.0,0.0,0.0,0.0,0.0,0.0,0.0,0.0,0.0,0.0,0.0,0.0,0.0,0.0,0.0,0.0,0.0,0.0,0.0,0.0,0.0,0.0,0.0,0.0,0.0,0.0,0.0,0.0,0.0,0.0,0.0,0.0,0.0,0.0,0.0,0.0,0.0,0.0,0.0,0.0,0.0,0.0,0.0,0.0,0.0,0.0,0.0,0.0,0.0,0.0,0.0,0.0,0.0,0.0,0.0,0.0,0.0,0.0,-3.1283,-3.0833,-3.1254,-3.0878,-2.955,0.0,0.0,0.0,0.0,0.0,0.0,0.0,0.0,0.0,0.0,0.0,0.0,0.0,0.0,0.0,0.0,0.0,0.0,0.0,0.0,0.0,0.0,0.0,0.0,0.0,0.0,0.0,0.0,0.0,0.0,0.0,0.0,0.0,0.0,0.0,0.0,0.0,0.0,0.0,0.0,0.0,0.0,0.0,0.0,0.0,0.0,0.0,0.0,0.0,0.0,0.0,0.0,0.0,0.0,0.0,0.0,0.0,0.0,0.0,0.0,0.0,0.0,0.0,0.0,0.0,0.0,0.0,0.0,0.0,0.0,0.0,0.0,0.0,0.0,0.0,0.0,0.0,0.0,0.0,0.0,0.0,0.0,0.0,0.0,0.0,0.0,0.0,0.0,0.0,0.0,0.0,0.0,0.0,0.0,0.0,0.0,0.0,0.0,0.0,0.0,0.0,0.0,0.0,0.0,0.0,0.0,0.0,0.0,0.0,0.0,0.0,0.0,-3.29,-3.2497,-3.0959,0.0,0.0,0.0,0.0,0.0,0.0,0.0,0.0,0.0,0.0,0.0,0.0,0.0,0.0,0.0,0.0,0.0,0.0,0.0,0.0,0.0,0.0,0.0,0.0,0.0,0.0,0.0,0.0,0.0,0.0,0.0,0.0,0.0,0.0,0.0,0.0,0.0,0.0,0.0,0.0,0.0,0.0,0.0,0.0,0.0,0.0,0.0,0.0,0.0,0.0,0.0,0.0,0.0,0.0,0.0,0.0,0.0,0.0,0.0,0.0,0.0,0.0,0.0,0.0,0.0,0.0,0.0,0.0,0.0,0.0,0.0,0.0,0.0,0.0,0.0,0.0,0.0,0.0,0.0,0.0,0.0,0.0,0.0,0.0,0.0,0.0,0.0,0.0,0.0,0.0,0.0,0.0,0.0,0.0,0.0,0.0,0.0,0.0,0.0,0.0,0.0,0.0,0.0,0.0,0.0,0.0,0.0,0.0,0.0,0.0,-3.2727,-3.6478,-3.6589,0.0,-3.5088,0.0,0.0,0.0,0.0,0.0,0.0,0.0,0.0,0.0,0.0,0.0,0.0,0.0,0.0,0.0,0.0,0.0,0.0,0.0,0.0,0.0,0.0,0.0,0.0,0.0,0.0,0.0,0.0,0.0,0.0,0.0,0.0,0.0,0.0,0.0,0.0,0.0,0.0,0.0,0.0,0.0,0.0,0.0,0.0,0.0,0.0,0.0,0.0,0.0,0.0,0.0,0.0,0.0,0.0,0.0,0.0,0.0,0.0,0.0,0.0,0.0,0.0,0.0,0.0,0.0,0.0,0.0,0.0,0.0,0.0,0.0,0.0,0.0,0.0,0.0,0.0,0.0,0.0,0.0,0.0,0.0,0.0,0.0,0.0,0.0,0.0,0.0,0.0,0.0,0.0,0.0,0.0,0.0,0.0,0.0,0.0,0.0,0.0,0.0,0.0,0.0,0.0,0.0,0.0,0.0,0.0,0.0,0.0,0.0,0.0,-3.4075,-3.6328,-3.6363,-3.5639,0.0,0.0,0.0,0.0,0.0,0.0,0.0,0.0,0.0,0.0,0.0,0.0,0.0,0.0,0.0,0.0,0.0,0.0,0.0,0.0,0.0,0.0,0.0,0.0,0.0,0.0,0.0,0.0,0.0,0.0,0.0,0.0,0.0,0.0,0.0,0.0,0.0,0.0,0.0,0.0,0.0,0.0,0.0,0.0,0.0,0.0,0.0,0.0,0.0,0.0,0.0,0.0,0.0,0.0,0.0,0.0,0.0,0.0,0.0,0.0,0.0,0.0,0.0,0.0,0.0,0.0,0.0,0.0,0.0,0.0,0.0,0.0,0.0,0.0,0.0,0.0,0.0,0.0,0.0,0.0,0.0,0.0,0.0,0.0,0.0,0.0,0.0,0.0,0.0,0.0,0.0,0.0,0.0,0.0,0.0,0.0,0.0,0.0,0.0,0.0,0.0,0.0,0.0,0.0,0.0,0.0,0.0,0.0,0.0,0.0,-3.4528,-3.5704,-3.735,-3.6386,-3.5214,-3.4056,0.0,0.0,0.0,0.0,0.0,0.0,0.0,0.0,0.0,0.0,0.0,0.0,0.0,0.0,0.0,0.0,0.0,0.0,0.0,0.0,0.0,0.0,0.0,0.0,0.0,0.0,0.0,0.0,0.0,0.0,0.0,0.0,0.0,0.0,0.0,0.0,0.0,0.0,0.0,0.0,0.0,0.0,0.0,0.0,0.0,0.0,0.0,0.0,0.0,0.0,0.0,0.0,0.0,0.0,0.0,0.0,0.0,0.0,0.0,0.0,0.0,0.0,0.0,0.0,0.0,0.0,0.0,0.0,0.0,0.0,0.0,0.0,0.0,0.0,0.0,0.0,0.0,0.0,0.0,0.0,0.0,0.0,0.0,0.0,0.0,0.0,0.0,0.0,0.0,0.0,0.0,0.0,0.0,0.0,0.0,0.0,0.0,0.0,0.0,0.0,0.0,0.0,0.0,0.0,0.0,0.0,0.0,0.0,-4.1009,-3.7695,-3.7667,-4.1471,-3.7865,-3.5966,0.0,0.0,0.0,0.0,0.0,0.0,0.0,0.0,0.0,0.0,0.0,0.0,0.0,0.0,0.0,0.0,0.0,0.0,0.0,0.0,0.0,0.0,0.0,0.0,0.0,0.0,0.0,0.0,0.0,0.0,0.0,0.0,0.0,0.0,0.0,0.0,0.0,0.0,0.0,0.0,0.0,0.0,0.0,0.0,0.0,0.0,0.0,0.0,0.0,0.0,0.0,0.0,0.0,0.0,0.0,0.0,0.0,0.0,0.0,0.0,0.0,0.0,0.0,0.0,0.0,0.0,0.0,0.0,0.0,0.0,0.0,0.0,0.0,0.0,0.0,0.0,0.0,0.0,0.0,0.0,0.0,0.0,0.0,0.0,0.0,0.0,0.0,0.0,0.0,0.0,0.0,0.0,0.0,0.0,0.0,0.0,0.0,0.0,0.0,0.0,0.0,0.0,0.0,0.0,0.0,0.0,0.0,0.0,0.0,-3.4675,-3.5406,-3.7696,-4.1503,-3.7764,-3.6048,0.0,0.0,0.0,0.0,0.0,0.0,0.0,0.0,0.0,0.0,0.0,0.0,0.0,0.0,0.0,0.0,0.0,0.0,0.0,0.0,0.0,0.0,0.0,0.0,0.0,0.0,0.0,0.0,0.0,0.0,0.0,0.0,0.0,0.0,0.0,0.0,0.0,0.0,0.0,0.0,0.0,0.0,0.0,0.0,0.0,0.0,0.0,0.0,0.0,0.0,0.0,0.0,0.0,0.0,0.0,0.0,0.0,0.0,0.0,0.0,0.0,0.0,0.0,0.0,0.0,0.0,0.0,0.0,0.0,0.0,0.0,0.0,0.0,0.0,0.0,0.0,0.0,0.0,0.0,0.0,0.0,0.0,0.0,0.0,0.0,0.0,0.0,0.0,0.0,0.0,0.0,0.0,0.0,0.0,0.0,0.0,0.0,0.0,0.0,0.0,0.0,0.0,0.0,0.0,0.0,0.0,0.0,0.0,0.0,-3.3968,0.0,-3.9803,-4.1176,-3.8111,-3.5919,0.0,0.0,0.0,0.0,0.0,0.0,0.0,0.0,0.0,0.0,0.0,0.0,0.0,0.0,0.0,0.0,0.0,0.0,0.0,0.0,0.0,0.0,0.0,0.0,0.0,0.0,0.0,0.0,0.0,0.0,0.0,0.0,0.0,0.0,0.0,0.0,0.0,0.0,0.0,0.0,0.0,0.0,0.0,0.0,0.0,0.0,0.0,0.0,0.0,0.0,0.0,0.0,0.0,0.0,0.0,0.0,0.0,0.0,0.0,0.0,0.0,0.0,0.0,0.0,0.0,0.0,0.0,0.0,0.0,0.0,0.0,0.0,0.0,0.0,0.0,0.0,0.0,0.0,0.0,0.0,0.0,0.0,0.0,0.0,0.0,0.0,0.0,0.0,0.0,0.0,0.0,0.0,0.0,0.0,0.0,0.0,0.0,0.0,0.0,0.0,0.0,0.0,0.0,0.0,0.0,0.0,0.0,0.0,-3.4002,-4.0324,-4.3718,-4.3808,-4.0958,-3.8889,-3.553,0.0,0.0,0.0,0.0,0.0,0.0,0.0,0.0,0.0,0.0,0.0,0.0,0.0,0.0,0.0,0.0,0.0,0.0,0.0,0.0,0.0,0.0,0.0,0.0,0.0,0.0,0.0,0.0,0.0,0.0,0.0,0.0,0.0,0.0,0.0,0.0,0.0,0.0,0.0,0.0,0.0,0.0,0.0,0.0,0.0,0.0,0.0,0.0,0.0,0.0,0.0,0.0,0.0,0.0,0.0,0.0,0.0,0.0,0.0,0.0,0.0,0.0,0.0,0.0,0.0,0.0,0.0,0.0,0.0,0.0,0.0,0.0,0.0,0.0,0.0,0.0,0.0,0.0,0.0,0.0,0.0,0.0,0.0,0.0,0.0,0.0,0.0,0.0,0.0,0.0,0.0,0.0,0.0,0.0,0.0,0.0,0.0,0.0,0.0,0.0,0.0,0.0,0.0,0.0,0.0,0.0,0.0,0.0,0.0,-3.5588,-3.9232,-4.2,-4.3417,-3.801,-3.6018,0.0,0.0,0.0,0.0,0.0,0.0,0.0,0.0,0.0,0.0,0.0,0.0,0.0,0.0,0.0,0.0,0.0,0.0,0.0,0.0,0.0,0.0,0.0,0.0,0.0,0.0,0.0,0.0,0.0,0.0,0.0,0.0,0.0,0.0,0.0,0.0,0.0,0.0,0.0,0.0,0.0,0.0,0.0,0.0,0.0,0.0,0.0,0.0,0.0,0.0,0.0,0.0,0.0,0.0,0.0,0.0,0.0,0.0,0.0,0.0,0.0,0.0,0.0,0.0,0.0,0.0,0.0,0.0,0.0,0.0,0.0,0.0,0.0,0.0,0.0,0.0,0.0,0.0,0.0,0.0,0.0,0.0,0.0,0.0,0.0,0.0,0.0,0.0,0.0,0.0,0.0,0.0,0.0,0.0,0.0,0.0,0.0,0.0,0.0,0.0,0.0,0.0,0.0,0.0,0.0,0.0,0.0,0.0,0.0,-3.6928,-4.1274,-4.3943,-4.4546,-3.9235,-3.6992,-3.8143,0.0,0.0,0.0,0.0,0.0,0.0,0.0,0.0,0.0,0.0,0.0,0.0,0.0,0.0,0.0,0.0,0.0,0.0,0.0,0.0,0.0,0.0,0.0,0.0,0.0,0.0,0.0,0.0,0.0,0.0,0.0,0.0,0.0,0.0,0.0,0.0,0.0,0.0,0.0,0.0,0.0,0.0,0.0,0.0,0.0,0.0,0.0,0.0,0.0,0.0,0.0,0.0,0.0,0.0,0.0,0.0,0.0,0.0,0.0,0.0,0.0,0.0,0.0,0.0,0.0,0.0,0.0,0.0,0.0,0.0,0.0,0.0,0.0,0.0,0.0,0.0,0.0,0.0,0.0,0.0,0.0,0.0,0.0,0.0,0.0,0.0,0.0,0.0,0.0,0.0,0.0,0.0,0.0,0.0,0.0,0.0,0.0,0.0,0.0,0.0,0.0,0.0,0.0,0.0,0.0,0.0,0.0,0.0,-4.2745,-4.8471,-4.9127,-4.4497,-4.2185,-3.8434,0.0,0.0,0.0,0.0,0.0,0.0,0.0,0.0,0.0,0.0,0.0,0.0,0.0,0.0,0.0,0.0,0.0,0.0,0.0,0.0,0.0,0.0,0.0,0.0,0.0,0.0,0.0,0.0,0.0,0.0,0.0,0.0,0.0,0.0,0.0,0.0,0.0,0.0,0.0,0.0,0.0,0.0,0.0,0.0,0.0,0.0,0.0,0.0,0.0,0.0,0.0,0.0,0.0,0.0,0.0,0.0,0.0,0.0,0.0,0.0,0.0,0.0,0.0,0.0,0.0,0.0,0.0,0.0,0.0,0.0,0.0,0.0,0.0,0.0,0.0,0.0,0.0,0.0,0.0,0.0,0.0,0.0,0.0,0.0,0.0,0.0,0.0,0.0,0.0,0.0,0.0,0.0,0.0,0.0,0.0,0.0,0.0,0.0,0.0,0.0,0.0,0.0,0.0,0.0,0.0,0.0,0.0,0.0,0.0,-4.4972,-4.995,-5.1756,-4.9863,-4.3971,-4.0276,0.0,0.0,0.0,0.0,0.0,0.0,0.0,0.0,0.0,0.0,0.0,0.0,0.0,0.0,0.0,0.0,0.0,0.0,0.0,0.0,0.0,0.0,0.0,0.0,0.0,0.0,0.0,0.0,0.0,0.0,0.0,0.0,0.0,0.0,0.0,0.0,0.0,0.0,0.0,0.0,0.0,0.0,0.0,0.0,0.0,0.0,0.0,0.0,0.0,0.0,0.0,0.0,0.0,0.0,0.0,0.0,0.0,0.0,0.0,0.0,0.0,0.0,0.0,0.0,0.0,0.0,0.0,0.0,0.0,0.0,0.0,0.0,0.0,0.0,0.0,0.0,0.0,0.0,0.0,0.0,0.0,0.0,0.0,0.0,0.0,0.0,0.0,0.0,0.0,0.0,0.0,0.0,0.0,0.0,0.0,0.0,0.0,0.0,0.0,0.0,0.0,0.0,0.0,0.0,0.0,0.0,0.0,0.0,-4.2993,-4.7709,-5.1784,-5.36,-5.2909,-4.7261,-4.27,0.0,0.0,0.0,0.0,0.0,0.0,0.0,0.0,0.0,0.0,0.0,0.0,0.0,0.0,0.0,0.0,0.0,0.0,0.0,0.0,0.0,0.0,0.0,0.0,0.0,0.0,0.0,0.0,0.0,0.0,0.0,0.0,0.0,0.0,0.0,0.0,0.0,0.0,0.0,0.0,0.0,0.0,0.0,0.0,0.0,0.0,0.0,0.0,0.0,0.0,0.0,0.0,0.0,0.0,0.0,0.0,0.0,0.0,0.0,0.0,0.0,0.0,0.0,0.0,0.0,0.0,0.0,0.0,0.0,0.0,0.0,0.0,0.0,0.0,0.0,0.0,0.0,0.0,0.0,0.0,0.0,0.0,0.0,0.0,0.0,0.0,0.0,0.0,0.0,0.0,0.0,0.0,0.0,0.0,0.0,0.0,0.0,0.0,0.0,0.0,0.0,0.0,0.0,0.0,0.0,0.0,0.0,0.0,-4.4653,-5.023,-5.344,-5.4708,-5.3944,-5.0703,-4.5214,0.0,0.0,0.0,0.0,0.0,0.0,0.0,0.0,0.0,0.0,0.0,0.0,0.0,0.0,0.0,0.0,0.0,0.0,0.0,0.0,0.0,0.0,0.0,0.0,0.0,0.0,0.0,0.0,0.0,0.0,0.0,0.0,0.0,0.0,0.0,0.0,0.0,0.0,0.0,0.0,0.0,0.0,0.0,0.0,0.0,0.0,0.0,0.0,0.0,0.0,0.0,0.0,0.0,0.0,0.0,0.0,0.0,0.0,0.0,0.0,0.0,0.0,0.0,0.0,0.0,0.0,0.0,0.0,0.0,0.0,0.0,0.0,0.0,0.0,0.0,0.0,0.0,0.0,0.0,0.0,0.0,0.0,0.0,0.0,0.0,0.0,0.0,0.0,0.0,0.0,0.0,0.0,0.0,0.0,0.0,0.0,0.0,0.0,0.0,0.0,0.0,0.0,0.0,0.0,0.0,0.0,0.0,0.0,-4.4314,-4.9193,-5.2547,-5.4112,-5.3832,-5.0059,-4.534,0.0,0.0,0.0,0.0,0.0,0.0,0.0,0.0,0.0,0.0,0.0,0.0,0.0,0.0,0.0,0.0,0.0,0.0,0.0,0.0,0.0,0.0,0.0,0.0,0.0,0.0,0.0,0.0,0.0,0.0,0.0,0.0,0.0,0.0,0.0,0.0,0.0,0.0,0.0,0.0,0.0,0.0,0.0,0.0,0.0,0.0,0.0,0.0,-3.0507,0.0,0.0,0.0,0.0,0.0,0.0,0.0,0.0,0.0,0.0,0.0,0.0,0.0,0.0,0.0,0.0,0.0,0.0,0.0,0.0,0.0,0.0,0.0,0.0,0.0,0.0,0.0,0.0,0.0,0.0,0.0,0.0,0.0,0.0,0.0,0.0,0.0,0.0,0.0,0.0,0.0,0.0,0.0,0.0,0.0,0.0,0.0,0.0,0.0,0.0,0.0,0.0,0.0,0.0,0.0,0.0,0.0,0.0,0.0,-4.5087,-4.9477,-5.2419,-5.3516,-5.2642,-5.019,-4.6197,0.0,0.0,0.0,0.0,0.0,0.0,0.0,0.0,0.0,0.0,0.0,0.0,0.0,0.0,0.0,0.0,0.0,0.0,0.0,0.0,0.0,0.0,0.0,0.0,0.0,0.0,0.0,0.0,0.0,0.0,0.0,0.0,0.0,0.0,0.0,0.0,0.0,0.0,0.0,0.0,0.0,0.0,0.0,0.0,0.0,0.0,0.0,0.0,0.0,0.0,0.0,0.0,0.0,0.0,0.0,0.0,0.0,0.0,0.0,0.0,0.0,0.0,0.0,0.0,0.0,0.0,0.0,0.0,0.0,0.0,0.0,0.0,0.0,0.0,0.0,0.0,0.0,0.0,0.0,0.0,0.0,0.0,0.0,0.0,0.0,0.0,0.0,0.0,0.0,0.0,0.0,0.0,0.0,0.0,0.0,0.0,0.0,0.0,0.0,0.0,0.0,0.0,0.0,0.0,0.0,0.0,0.0,-4.2447,-4.5847,-5.0129,-5.2345,-5.2772,-5.1435,-5.0488,-4.6977,-4.068,0.0,0.0,0.0,0.0,0.0,0.0,0.0,0.0,0.0,0.0,0.0,0.0,0.0,0.0,0.0,0.0,0.0,0.0,0.0,0.0,0.0,0.0,0.0,0.0,0.0,0.0,0.0,0.0,0.0,0.0,0.0,0.0,0.0,0.0,0.0,0.0,0.0,0.0,-3.0597,-3.12,0.0,0.0,0.0,0.0,0.0,0.0,0.0,0.0,-3.092,0.0,0.0,0.0,0.0,0.0,0.0,0.0,0.0,0.0,0.0,0.0,0.0,0.0,0.0,0.0,0.0,0.0,0.0,0.0,0.0,0.0,0.0,0.0,0.0,0.0,0.0,0.0,0.0,0.0,0.0,0.0,0.0,0.0,0.0,0.0,0.0,0.0,0.0,0.0,0.0,0.0,0.0,0.0,0.0,0.0,0.0,0.0,0.0,0.0,0.0,0.0,0.0,0.0,0.0,0.0,0.0,-4.2201,-4.2172,-4.4715,-4.9967,-5.1212,-5.1658,-5.1361,-4.9912,-4.6347,-4.0644,0.0,0.0,0.0,0.0,0.0,0.0,0.0,0.0,0.0,0.0,0.0,0.0,0.0,0.0,0.0,0.0,0.0,0.0,0.0,0.0,0.0,0.0,0.0,0.0,0.0,0.0,0.0,0.0,0.0,0.0,0.0,0.0,0.0,0.0,0.0,0.0,0.0,0.0,0.0,-3.3053,-3.3355,0.0,0.0,0.0,0.0,0.0,0.0,0.0,0.0,-3.1153,0.0,0.0,0.0,0.0,0.0,0.0,0.0,0.0,0.0,0.0,0.0,0.0,0.0,0.0,0.0,0.0,0.0,0.0,0.0,0.0,0.0,0.0,0.0,0.0,0.0,0.0,0.0,0.0,0.0,0.0,0.0,0.0,0.0,0.0,0.0,0.0,0.0,0.0,0.0,0.0,0.0,0.0,0.0,0.0,0.0,0.0,0.0,0.0,0.0,0.0,0.0,0.0,0.0,0.0,0.0,-4.0677,-4.2225,-4.5021,-4.9317,-5.0302,-5.0525,-5.006,-4.7683,-4.4249,0.0,0.0,0.0,0.0,0.0,0.0,0.0,0.0,0.0,0.0,0.0,0.0,0.0,0.0,0.0,0.0,0.0,0.0,0.0,0.0,0.0,0.0,0.0,0.0,0.0,0.0,0.0,0.0,0.0,0.0,0.0,0.0,0.0,0.0,0.0,0.0,0.0,0.0,0.0,0.0,-3.3559,-3.4214,-3.4556,0.0,0.0,0.0,0.0,0.0,0.0,-3.1715,-3.141,0.0,0.0,0.0,0.0,0.0,0.0,0.0,0.0,0.0,0.0,0.0,0.0,0.0,0.0,0.0,0.0,0.0,0.0,0.0,0.0,0.0,0.0,0.0,0.0,0.0,0.0,0.0,0.0,0.0,0.0,0.0,0.0,0.0,0.0,0.0,0.0,0.0,0.0,0.0,0.0,0.0,0.0,0.0,0.0,0.0,0.0,0.0,0.0,0.0,0.0,0.0,0.0,0.0,0.0,0.0,-3.9045,-4.185,-4.5119,-4.8723,-4.954,-4.9559,-4.8872,-4.59,-4.2634,0.0,0.0,0.0,0.0,0.0,0.0,0.0,0.0,0.0,0.0,0.0,0.0,0.0,0.0,0.0,0.0,0.0,0.0,0.0,0.0,0.0,0.0,0.0,0.0,0.0,0.0,0.0,0.0,0.0,0.0,0.0,0.0,0.0,0.0,0.0,0.0,0.0,0.0,0.0,0.0,0.0,-3.5398,-3.5061,-3.5109,0.0,0.0,0.0,0.0,-3.2522,-3.2924,0.0,0.0,0.0,0.0,0.0,0.0,0.0,0.0,0.0,0.0,0.0,0.0,0.0,0.0,0.0,0.0,0.0,0.0,0.0,0.0,0.0,0.0,0.0,0.0,0.0,0.0,0.0,0.0,0.0,0.0,0.0,0.0,0.0,0.0,0.0,0.0,0.0,0.0,0.0,0.0,0.0,0.0,0.0,0.0,0.0,0.0,0.0,0.0,0.0,0.0,0.0,0.0,0.0,0.0,0.0,0.0,-3.8897,-4.0215,-4.3429,-4.8593,-4.9002,-4.9002,-4.8872,-4.6457,-4.3216,0.0,0.0,0.0,0.0,0.0,0.0,0.0,0.0,0.0,0.0,0.0,0.0,0.0,0.0,0.0,0.0,0.0,0.0,0.0,0.0,0.0,0.0,0.0,0.0,0.0,0.0,0.0,0.0,0.0,0.0,0.0,0.0,0.0,0.0,0.0,0.0,0.0,0.0,0.0,0.0,0.0,-3.8053,-3.6652,-3.6772,-3.6658,0.0,0.0,-3.5442,-3.6136,-3.7308,0.0,0.0,0.0,0.0,0.0,0.0,0.0,0.0,0.0,0.0,0.0,0.0,0.0,0.0,0.0,0.0,0.0,0.0,0.0,0.0,0.0,0.0,0.0,0.0,0.0,0.0,0.0,0.0,0.0,0.0,0.0,0.0,0.0,0.0,0.0,0.0,0.0,0.0,0.0,0.0,0.0,0.0,0.0,0.0,0.0,0.0,0.0,0.0,0.0,0.0,0.0,0.0,0.0,0.0,0.0,-3.4754,-3.899,-4.1293,-4.4544,-4.8704,-4.889,-4.8686,-4.8221,-4.4042,-4.0707,0.0,0.0,0.0,0.0,0.0,0.0,0.0,0.0,0.0,0.0,0.0,0.0,0.0,0.0,0.0,0.0,0.0,0.0,0.0,0.0,0.0,0.0,0.0,0.0,0.0,0.0,0.0,0.0,0.0,0.0,0.0,0.0,0.0,0.0,0.0,0.0,0.0,0.0,0.0,0.0,0.0,0.0,-3.7778,-3.8257,0.0,0.0,0.0,-3.737,-3.6609,0.0,0.0,0.0,0.0,0.0,0.0,0.0,0.0,0.0,0.0,0.0,0.0,0.0,0.0,0.0,0.0,0.0,0.0,0.0,0.0,0.0,0.0,0.0,0.0,0.0,0.0,0.0,0.0,0.0,0.0,0.0,0.0,0.0,0.0,0.0,0.0,0.0,0.0,0.0,0.0,0.0,0.0,0.0,0.0,0.0,0.0,0.0,0.0,0.0,0.0,0.0,0.0,0.0,0.0,0.0,0.0,0.0,-3.8767,-4.1832,-4.4989,-4.8166,-4.8501,-4.8076,-4.6999,-4.2047,0.0,0.0,0.0,0.0,0.0,0.0,0.0,0.0,0.0,0.0,0.0,0.0,0.0,0.0,0.0,0.0,0.0,0.0,0.0,0.0,0.0,0.0,0.0,0.0,0.0,0.0,0.0,-2.657,0.0,0.0,0.0,0.0,0.0,0.0,0.0,0.0,0.0,0.0,0.0,0.0,0.0,0.0,-3.8111,-3.8561,-3.9557,-4.0164,0.0,0.0,-3.9135,-3.7266,-3.7719,-3.7041,0.0,0.0,0.0,0.0,0.0,0.0,0.0,0.0,0.0,0.0,0.0,0.0,0.0,0.0,0.0,0.0,0.0,0.0,0.0,0.0,0.0,0.0,0.0,0.0,0.0,0.0,0.0,0.0,0.0,0.0,0.0,0.0,0.0,0.0,0.0,0.0,0.0,0.0,0.0,0.0,0.0,0.0,0.0,0.0,0.0,0.0,0.0,0.0,0.0,0.0,0.0,0.0,0.0,0.0,0.0,-3.7894,-4.0476,-4.3373,-4.6531,-4.7336,-4.6915,-4.5282,-4.1869,-3.8896,0.0,0.0,0.0,0.0,0.0,0.0,0.0,0.0,0.0,0.0,0.0,0.0,0.0,0.0,0.0,0.0,0.0,0.0,0.0,0.0,0.0,0.0,0.0,0.0,0.0,0.0,0.0,0.0,0.0,0.0,0.0,0.0,0.0,0.0,0.0,0.0,0.0,0.0,0.0,0.0,0.0,-3.8299,-3.8869,-4.0613,-4.1792,0.0,0.0,-4.0897,-3.9325,-4.091,-4.0366,-3.4389,0.0,0.0,0.0,0.0,0.0,0.0,0.0,0.0,0.0,0.0,0.0,0.0,0.0,0.0,0.0,0.0,0.0,0.0,0.0,0.0,0.0,0.0,0.0,0.0,0.0,0.0,0.0,0.0,0.0,0.0,0.0,0.0,0.0,0.0,0.0,0.0,0.0,0.0,0.0,0.0,0.0,0.0,0.0,0.0,0.0,0.0,0.0,0.0,0.0,0.0,0.0,0.0,0.0,-3.4321,-3.787,-4.0327,-4.3154,-4.6207,-4.6172,-4.5508,-4.4311,-4.0137,-3.7197,0.0,0.0,0.0,0.0,0.0,0.0,0.0,0.0,0.0,0.0,0.0,0.0,0.0,0.0,0.0,0.0,0.0,0.0,0.0,0.0,0.0,0.0,0.0,0.0,0.0,0.0,0.0,0.0,-2.8448,-2.8454,-2.8658,0.0,0.0,0.0,0.0,0.0,0.0,0.0,0.0,0.0,0.0,-3.8258,-3.925,-4.0443,0.0,0.0,-4.1965,-4.1253,-4.02,-3.9954,-3.8424,-3.4179,-3.2177,0.0,0.0,0.0,0.0,0.0,0.0,0.0,0.0,0.0,0.0,0.0,0.0,0.0,0.0,0.0,0.0,0.0,0.0,0.0,0.0,0.0,0.0,0.0,0.0,0.0,0.0,0.0,0.0,0.0,0.0,0.0,0.0,0.0,0.0,0.0,0.0,0.0,0.0,0.0,0.0,0.0,0.0,0.0,0.0,0.0,0.0,0.0,0.0,0.0,0.0,0.0,0.0,-3.4265,-3.7503,-3.9927,-4.2591,-4.5527,-4.5234,-4.4408,-4.2994,-3.8992,-3.6164,0.0,0.0,0.0,0.0,0.0,0.0,0.0,0.0,0.0,0.0,0.0,0.0,0.0,0.0,0.0,0.0,0.0,0.0,0.0,0.0,0.0,0.0,0.0,0.0,0.0,0.0,0.0,0.0,-2.8391,-2.8187,-2.8174,0.0,0.0,0.0,0.0,0.0,0.0,0.0,0.0,0.0,0.0,-3.7844,-3.9305,-4.0203,-4.1064,-4.1978,-4.1639,-4.092,-3.9919,-3.8831,-3.6987,-3.3687,0.0,0.0,0.0,0.0,0.0,0.0,0.0,0.0,0.0,0.0,0.0,0.0,0.0,0.0,0.0,0.0,0.0,0.0,0.0,0.0,0.0,0.0,0.0,0.0,0.0,0.0,0.0,0.0,0.0,0.0,0.0,0.0,0.0,0.0,0.0,0.0,0.0,0.0,0.0,0.0,0.0,0.0,0.0,0.0,0.0,0.0,0.0,0.0,0.0,0.0,0.0,0.0,0.0,0.0,-3.6686,-3.9036,-4.1437,-4.3881,-4.4546,-4.3708,-4.1333,-3.8805,-3.6317,-3.3844,0.0,0.0,0.0,0.0,0.0,0.0,0.0,0.0,0.0,0.0,0.0,0.0,0.0,0.0,0.0,0.0,0.0,0.0,0.0,0.0,0.0,0.0,0.0,0.0,0.0,0.0,-2.8511,-2.7643,-2.7241,0.0,0.0,0.0,0.0,0.0,0.0,0.0,0.0,0.0,0.0,-3.4729,-3.69,-3.8939,-3.9975,-4.0414,-4.0537,-4.052,-3.9954,-3.8427,-3.8128,-3.6812,0.0,0.0,0.0,0.0,0.0,0.0,0.0,0.0,0.0,0.0,0.0,0.0,0.0,0.0,0.0,0.0,0.0,0.0,0.0,0.0,0.0,0.0,0.0,0.0,0.0,0.0,0.0,-3.6497,-3.6458,0.0,0.0,0.0,0.0,0.0,0.0,0.0,0.0,0.0,0.0,0.0,-3.5534,-3.5754,0.0,0.0,0.0,0.0,0.0,0.0,0.0,0.0,0.0,0.0,0.0,0.0,-3.315,-3.585,-3.822,-4.0555,-4.2857,-4.2631,-4.2036,-4.1107,-3.7679,-3.4449,-3.1494,0.0,0.0,0.0,0.0,0.0,0.0,0.0,0.0,0.0,0.0,0.0,0.0,0.0,0.0,0.0,0.0,0.0,0.0,0.0,0.0,0.0,0.0,0.0,0.0,0.0,-2.8277,0.0,0.0,0.0,0.0,0.0,0.0,0.0,0.0,0.0,0.0,0.0,-3.1614,-3.3069,-3.4781,-3.6167,-3.6882,-3.7654,-3.8342,0.0,0.0,0.0,0.0,0.0,0.0,0.0,0.0,0.0,0.0,0.0,0.0,0.0,0.0,-3.1153,-2.8263,-2.7534,-2.7185,-2.6484,0.0,0.0,0.0,0.0,0.0,0.0,0.0,0.0,0.0,0.0,0.0,0.0,0.0,0.0,0.0,0.0,-3.6613,0.0,0.0,0.0,0.0,0.0,0.0,0.0,0.0,-3.6928,-3.7658,-3.7241,-3.739,-3.6953,0.0,-3.5095,-3.3169,0.0,0.0,0.0,0.0,0.0,0.0,0.0,0.0,-3.3275,-3.5479,-3.7785,-3.9989,-4.1942,-4.148,-4.1013,-4.0634,-3.7004,-3.3628,-3.0723,-2.9831,-2.928,0.0,0.0,0.0,0.0,0.0,0.0,0.0,0.0,0.0,0.0,0.0,0.0,0.0,0.0,0.0,0.0,0.0,0.0,0.0,0.0,0.0,0.0,0.0,-2.7897,0.0,0.0,0.0,0.0,0.0,0.0,0.0,0.0,0.0,-3.0422,-3.137,-3.2563,-3.4091,-3.5179,-3.5985,-3.6512,0.0,0.0,0.0,0.0,0.0,0.0,0.0,-3.6285,-3.4177,-3.4399,-3.4096,-3.1837,-3.2012,-3.2033,-3.0847,0.0,0.0,-2.8862,-2.8174,-2.7797,-2.7098,-2.6912,-2.6901,-2.7142,-2.7147,-2.7178,0.0,0.0,0.0,0.0,0.0,0.0,0.0,0.0,-3.7135,-3.8005,0.0,-3.7677,0.0,0.0,0.0,0.0,0.0,0.0,0.0,0.0,-3.7933,-3.8995,-3.9637,-3.8715,-3.777,-3.7037,-3.7599,-3.6612,-3.416,-3.1143,0.0,0.0,0.0,0.0,0.0,0.0,-3.3747,-3.5454,-3.7725,-3.9667,-4.1145,-4.1082,-4.0598,-3.9662,-3.6564,-3.3793,-3.1525,-3.0558,-2.9806,-2.9042,-2.8968,0.0,0.0,0.0,0.0,0.0,0.0,0.0,0.0,0.0,0.0,0.0,0.0,0.0,0.0,0.0,0.0,0.0,0.0,0.0,0.0,-2.7855,0.0,0.0,0.0,0.0,0.0,0.0,0.0,0.0,0.0,0.0,-3.1282,-3.2599,-3.4109,-3.5564,0.0,0.0,0.0,0.0,-3.6283,-3.7775,-3.7444,-3.7253,-3.79,-3.7426,-3.6422,-3.4731,0.0,0.0,-3.2155,-3.1841,-3.1645,-3.0505,-3.09,-3.1018,-3.0267,-2.9555,-2.8891,-2.8234,-2.7632,-2.7431,-2.7905,-2.7658,-2.7431,-4.3846,0.0,0.0,0.0,0.0,-3.9597,-4.0017,-4.052,-4.052,-4.0152,-3.9423,-3.8315,0.0,0.0,0.0,0.0,0.0,0.0,-3.5916,-3.7215,-3.9397,-4.0723,-4.1255,-4.1612,-4.1242,-4.0221,-3.9245,-3.7801,-3.5993,-3.4469,-3.302,-3.1589,0.0,0.0,0.0,0.0,-3.3498,-3.468,-3.7429,-3.9113,-3.9575,-3.9445,-3.8417,-3.6468,-3.438,-3.2706,-3.1433,-3.0063,-2.9225,-2.9005,-2.8466,0.0,0.0,0.0,0.0,0.0,0.0,0.0,0.0,0.0,0.0,0.0,0.0,0.0,0.0,0.0,0.0,0.0,0.0,0.0,-2.784,-2.7742,-2.7716,0.0,0.0,0.0,0.0,0.0,0.0,0.0,0.0,0.0,-3.2634,-3.3722,-3.4723,0.0,0.0,-3.5162,-3.5601,-3.5285,-3.5355,-3.6301,0.0,0.0,0.0,-3.6659,-3.617,-3.4249,-3.3909,-3.3905,-3.4137,-3.348,-3.2635,-3.1826,-3.1849,-3.1627,-3.0473,-3.0062,-2.9611,-2.8995,-2.864,-2.8577,-2.8751,-2.864,-2.8381,-4.7192,-4.4369,-4.257,-4.1197,-4.0352,-4.0661,-4.1087,-4.1506,-4.1525,-4.1319,-4.0932,-3.9746,-3.8199,-3.6367,-3.5115,0.0,0.0,0.0,-3.7444,-3.8575,-4.0342,-4.1453,-4.1931,-4.2077,-4.1609,-4.0583,-3.9268,-3.7949,-3.6668,-3.59,-3.5008,-3.3949,0.0,0.0,-3.0616,-3.2133,-3.316,-3.3741,-3.6468,-3.7907,-3.7907,-3.7794,-3.6725,-3.4601,-3.3587,-3.2412,-3.0993,-2.9977,-2.9317,-2.9023,-2.8539,-2.8491,0.0,0.0,0.0,0.0,0.0,0.0,0.0,0.0,0.0,0.0,0.0,-2.9149,0.0,0.0,0.0,0.0,-2.8152,-2.7926,-2.7855,-2.7757,0.0,0.0,0.0,0.0,0.0,0.0,0.0,-2.9985,-3.088,-3.1827,-3.295,-3.4003,-3.4969,-3.5687,-3.5162,-3.4811,-3.5053,0.0,-3.4932,-3.5574,-3.5875,-3.5927,-3.5654,-3.5739,-3.5335,-3.3901,-3.3129,-3.2989,-3.3697,-3.3109,-3.237,-3.1981,-3.1855,-3.1516,-3.041,-3.022,-2.9959,-2.9256,-2.9114,-2.9193,-2.9446,-2.9059,-2.8541,-4.9262,-4.814,-4.5026,-4.2299,-4.0139,-4.0855,-4.1222,-4.1197,-4.1222,-4.1951,-4.3053,-4.159,-4.0352,-3.9301,-3.7643,0.0,0.0,-3.8597,-3.9634,-4.029,-4.0838,-4.1399,-4.1924,-4.091,-3.9937,-3.9101,-3.8284,-3.7485,-3.6699,-3.5956,-3.5566,-3.5436,-3.311,-3.1499,-3.082,-3.2113,-3.2835,-3.2908,-3.5242,-3.6348,-3.6292,-3.6107,-3.5257,-3.3733,-3.3587,-3.2449,-3.0338,-3.0136,-2.9757,-2.9042,-2.895,-2.895,-2.8987,0.0,0.0,0.0,0.0,0.0,0.0,0.0,0.0,0.0,0.0,0.0,0.0,0.0,0.0,0.0,-2.7978,0.0,-2.8047,-2.7858,0.0,0.0,0.0,-2.8035,-2.8912,-2.9581,-3.0053,-3.016,0.0,0.0,0.0,0.0,-3.4739,-3.5424,-3.4985,-3.4826,-3.55,-3.4964,-3.4789,-3.5281,-3.4901,-3.4727,-3.5111,-3.4597,-3.3874,-3.3303,-3.2486,-3.1762,-3.1747,-3.139,-3.1074,-3.0875,-3.0954,-3.0701,-3.0054,-2.9824,-2.9738,-2.8988,-2.8956,-2.9193,-2.9659,-2.8784,-2.7969,-4.9738,-4.8333,-4.7521,-4.6078,-4.4337,-4.453,-4.4607,-4.4607,-4.4607,-4.375,-4.228,-4.1893,-4.0526,-3.8472,-3.8003,-3.8118,-3.8712,-3.9114,-3.9872,-4.0862,-4.1043,-4.1305,-4.1646,-4.0797,-3.9951,-3.9082,-3.8284,-3.7466,-3.6723,-3.6513,-3.6105,-3.5473,-3.4222,-3.3196,-3.2376,-3.2698,-3.3161,-3.3721,-3.5487,-3.6043,-3.5326,-3.4119,-3.328,-3.2876,-3.1715,-3.0779,-3.021,-2.9622,-2.9189,-2.8994,-2.8429,-2.8374,-2.8968,-2.84,0.0,0.0,0.0,0.0,0.0,0.0,0.0,0.0,0.0,-2.8957,-2.8304,0.0,-2.8219,0.0,-2.7771,-2.773,-2.7786,-2.7742,0.0,0.0,-2.807,-2.8263,-2.965,-2.9439,-2.9632,-3.0808,-3.1423,-3.1914,-3.2335,-3.2617,-3.2844,-3.3036,-3.3439,-3.3945,-3.4566,-3.4026,-3.3835,-3.4441,-3.4441,-3.4326,-3.3911,-3.2736,-3.167,-3.1545,-3.0577,-2.9814,-2.9798,-2.9681,-2.943,-2.8963,-2.8837,-2.8568,-2.8,-2.7841,-2.781,-2.763,-2.7984,-2.8379,-2.8553,-2.7816,-2.7014,-4.901,-4.7831,-4.7811,-4.7018,-4.5768,-4.5413,-4.5258,-4.522,-4.4852,-4.3885,-4.2531,-4.1777,-4.0655,-3.9329,-3.9238,-3.9455,-3.9868,-3.9857,-3.9938,-4.0143,-4.039,-4.0226,-3.9664,-3.9043,-3.837,-3.7598,-3.6329,-3.5479,-3.5045,-3.4692,-3.429,-3.3838,-3.302,-3.2706,-3.2895,-3.2871,-3.3032,-3.3373,-3.4623,-3.5005,-3.4468,-3.3243,-3.2601,-3.2546,-3.1035,-3.021,-3.0191,-2.9427,-2.8987,-2.8987,-2.8576,-2.8528,-2.8968,-2.8576,-2.8528,0.0,0.0,0.0,0.0,0.0,0.0,0.0,0.0,0.0,0.0,0.0,-2.7964,0.0,-2.7597,0.0,-2.7615,-2.7957,-2.8235,-2.8325,-2.8583,-2.8983,-2.9527,-2.9476,-2.9755,-3.0598,-3.0653,-3.0776,-3.1215,-3.1183,-3.1115,-3.1115,-3.1464,-3.2108,-3.308,-3.3203,-3.3238,-3.3248,-3.2843,-3.2219,-3.1424,-3.0278,-2.9464,-2.941,-2.876,-2.8214,-2.8198,-2.8198,-2.8072,-2.7747,-2.7652,-2.7431,-2.6767,-2.6609,-2.6509,-2.6194,-2.6367,-2.6824,-2.7428,-2.6889,-2.6102,-4.7889,-4.7103,-4.7096,-4.6593,-4.5742,-4.5045,-4.4748,-4.469,-4.3846,-4.3285,-4.2879,-4.1216,-4.0443,-4.0365,-4.0319,-4.0284,-4.0253,-4.0319,-3.9767,-3.8792,-3.9391,-3.8812,-3.7268,-3.6688,-3.6186,-3.5679,-3.3888,-3.299,-3.2964,-3.2295,-3.1905,-3.1775,-3.1106,-3.1426,-3.2673,-3.2686,-3.2699,-3.2792,-3.3458,-3.3807,-3.3807,-3.2913,-3.2436,-3.2381,-3.0889,-3.0044,-3.0026,-2.9372,-2.8987,-2.8987,-2.8987,-2.8987,-2.8987,-2.8895,-2.8895,0.0,-2.8913,0.0,0.0,0.0,0.0,0.0,0.0,0.0,0.0,-2.7982,-2.776,-2.7494,-2.7496,-2.7496,-2.7496,-2.8183,-2.8404,-2.7879,-2.8973,-2.9581,-2.9107,-2.9597,-3.0001,-3.0072,-3.0007,-2.9923,-2.9959,-2.9824,-2.9776,-2.9831,-2.985,-3.0318,-3.1339,-3.2139,-3.226,-3.1594,-3.0631,-2.9783,-2.8805,-2.8065,-2.7671,-2.7522,-2.7248,-2.6962,-2.683,-2.683,-2.6814,-2.6799,-2.6672,-2.6451,-2.5961,-2.5803,-2.5494,-2.4858,-2.4771,-2.5158,-2.6161,-2.5977,-2.5408,-4.7889,-4.7096,-4.7096,-4.6593,-4.5807,-4.5633,-4.5594,-4.551,-4.4717,-4.3189,-4.1158,-3.9437,-3.8684,-3.8672,-3.8666,-3.8588,-3.8539,-3.9206,-3.8908,-3.7885,-3.8698,-3.8372,-3.7013,-3.5638,-3.5187,-3.5417,-3.3824,-3.299,-3.299,-3.2841,-3.2432,-3.1812,-3.1645,-3.1704,-3.1913,0.0,0.0,0.0,-3.3773,-3.3807,-3.3752,-3.2388,-3.1635,-3.1586,-3.0051,0.0,-2.9207,-2.9078,-2.8987,-2.8987,-2.8987,0.0,0.0,0.0,0.0,0.0,0.0,0.0,0.0,0.0,0.0,0.0,-2.852,-2.8228,-2.8268,-2.7864,-2.7542,-2.7438,-2.7467,-2.7496,-2.7496,-2.7633,-2.7958,-2.8506,-2.8297,-2.8522,-2.9651,-2.9441,-2.9369,-3.002,-3.0056,-3.0023,-2.9837,-2.9841,-2.9742,-2.9624,-2.9591,-2.9644,-2.9851,-3.0145,-3.0162,-2.9885,-2.9213,-2.8478,-2.7931,-2.7435,-2.684,-2.6492,-2.6281,-2.5998,-2.5523,-2.5381,-2.5397,-2.5381,-2.4918,-2.4713,-2.5065,-2.4732,-2.4279,-2.4041,-2.3897,-2.4072,-2.4869,-2.4844,-2.4668,-4.6871,0.0,-4.6464,-4.6213,0.0,-4.5374,-4.4949,-4.4543,-4.4136,-4.2512,-4.012,-3.9224,-3.8831,-3.8851,-3.9258,-3.8936,-3.8073,-3.8502,-3.7692,-3.601,-3.7126,-3.6954,-3.5599,-3.5029,-3.4896,-3.5127,-3.3024,-3.212,-3.2351,-3.1608,-3.1013,-3.0604,-3.059,-3.0743,-3.1117,-3.1394,-3.1931,-3.266,-3.264,-3.2596,-3.2577,-3.1421,-3.0797,-3.076,0.0,0.0,0.0,0.0,0.0,0.0,0.0,0.0,0.0,0.0,0.0,-2.7813,-2.7805,-2.7805,-2.7813,-2.7831,-2.7831,-2.782,-2.7632,-2.7587,-2.7789,-2.7559,-2.7392,-2.7345,-2.7392,-2.7407,-2.7407,-2.7766,-2.8039,-2.8121,-2.8479,-2.8839,-2.8852,-2.8899,-2.8895,-2.8862,-2.8884,-2.8819,-2.8771,-2.8662,-2.8599,-2.8551,-2.8485,-2.8265,-2.8023,-2.88,-2.93,-2.8523,-2.8079,-2.7421,-2.653,-2.5859,-2.5435,-2.5009,-2.4697,-2.4369,-2.4037,-2.3942,-2.3942,-2.3942,-2.3638,-2.3559,-2.3815,-2.3623,-2.3364,-2.3271,-2.3192,-2.316,-2.3476,-2.3475,-2.3396,-4.5729,-4.5594,-4.5594,-4.549,-4.5304,-4.4659,-4.3808,-4.2841,0.0,0.0,0.0,-3.8882,-3.8824,-3.8856,-3.9341,-3.8788,-3.745,-3.7417,-3.6183,-3.4058,-3.5373,-3.527,-3.3979,-3.4154,-3.4329,-3.433,-3.2053,-3.1194,-3.1616,-3.0317,-2.957,-2.9448,-2.9347,-2.9627,-3.0272,-3.081,-3.1047,-3.1011,-3.1237,-3.1403,-3.1378,-3.0467,-2.9977,-2.9977,-2.8429,-2.7585,-2.7585,-2.6961,-2.6602,-2.6602,-2.6602,-2.6602,-2.6631,-2.709,-2.7145,-2.6686,-2.7071,-2.7155,-2.6649,-2.6602,-2.6551,-2.6458,-2.6603,-2.6819,-2.7085,-2.7213,-2.723,-2.7125,-2.7075,-2.7075,-2.7075,-2.7535,-2.7634,-2.7063,-2.8227,-2.8495,-2.7412,-2.7802,-2.7899,-2.7408,-2.7242,-2.7198,-2.72,-2.7113,-2.7022,-2.7009,-2.6978,-2.6709,-2.6331,-2.742,-2.8014,-2.6924,-2.6564,-2.6193,-2.5032,-2.4325,-2.3805,-2.3781,-2.3322,-2.2914,-2.2898,-2.2898,-2.2898,-2.3009,-2.2835,-2.2803,-2.2882,-2.2835,-2.2672,-2.2532,-2.2457,-2.2334,-2.2099,-2.2006,-2.2058,-4.5394,-4.4775,-4.4768,-4.433,-4.3634,-4.353,-4.2589,-4.1042,-3.9572,-3.829,-3.7232,-3.6535,-3.6226,-3.6187,-3.5521,-3.5062,-3.4826,-3.4789,-3.4141,0.0,-3.4064,-3.3918,-3.2825,-3.2183,-3.2151,-3.2559,-3.1586,-3.1114,-3.1146,-3.0781,-3.0273,-2.9617,-2.9441,-2.94,-2.9396,-2.9485,-2.9473,-2.9372,-3.0705,-3.1403,-3.1366,-2.9941,-2.917,-2.9097,-2.7592,-2.6767,-2.6778,-2.6638,-2.6602,-2.6602,-2.6602,-2.6602,-2.6583,-2.6072,-2.5999,-2.6521,-2.6062,-2.597,-2.6539,-2.6602,-2.6392,-2.5961,-2.5945,-2.6038,-2.6256,-2.6902,-2.7023,-2.6368,-2.6266,-2.6281,-2.6247,-2.5865,-2.5616,-2.5499,-2.5681,-2.5692,-2.5627,-2.5803,-2.5915,-2.5775,-2.5694,-2.5732,-2.5764,-2.5719,-2.5697,-2.557,-2.5617,-2.5444,-2.5337,-2.5431,-2.5392,-2.4949,-2.4789,-2.4447,-2.3953,-2.3582,-2.3364,-2.3077,-2.2948,-2.2758,-2.2724,-2.2724,-2.2724,-2.2851,-2.2376,-2.2281,-2.2677,-2.2374,-2.2006,-2.1839,-2.1802,-2.1557,-2.0982,-2.0756,-2.0998,-4.5336,-4.462,-4.4581,-4.4098,-4.3208,-4.1835,-4.052,-3.9262,-3.7599,-3.6884,-3.6884,-3.6516,-3.6361,-3.6323,-3.5886,-3.5195,-3.4286,-3.3786,-3.2831,-3.166,-3.2449,-3.2583,-3.2159,-3.2178,-3.2312,-3.2401,-3.1637,-3.1208,-3.1052,-3.0569,-3.0118,-2.9789,-3.002,-2.9847,-2.9266,-2.9625,-2.9588,-2.9081,-2.9744,-3.0099,-3.0081,-2.895,-2.8124,-2.7703,-2.6557,-2.5731,-2.5299,-2.5291,-2.5309,-2.5291,-2.5291,-2.5291,-2.5291,-2.5356,-2.5374,-2.5309,-2.5356,-2.5356,-2.5291,-2.5309,-2.5259,-2.5159,-2.5146,-2.5062,-2.4876,-2.5592,-2.5902,-2.5525,-2.5505,-2.5505,-2.5491,-2.518,-2.5034,-2.5086,-2.5083,-2.5139,-2.5223,-2.5237,-2.5265,-2.5333,-2.5347,-2.5333,-2.5292,-2.5265,-2.5209,-2.5139,-2.4788,-2.4469,-2.4375,-2.4036,-2.3947,-2.4286,-2.4412,-2.4192,-2.3687,-2.3292,-2.2963,-2.2643,-2.2288,-2.1995,-2.1827,-2.1775,-2.1775,-2.176,-2.1489,-2.1459,-2.1775,-2.1505,-2.1266,-2.1218,-2.1164,-2.0891,-2.0537,-2.0373,-2.0535,-4.537,-4.4628,-4.4395,-4.3685,-4.255,-4.021,-3.8818,-3.8063,-3.6439,-3.6052,-3.6555,-3.6439,-3.6342,-3.6303,-3.593,-3.5013,-3.3738,-3.2814,-3.168,-3.0569,-3.1102,-3.1404,-3.1468,-3.2064,-3.225,-3.207,-3.1477,-3.1095,-3.0871,-3.025,-3.0029,-3.0189,-3.0639,-3.044,-2.9638,-3.0222,-3.0075,-2.9211,-2.91,-2.9044,-2.8968,-2.8209,-2.7402,-2.662,-2.5833,-2.5026,-2.4254,-2.4199,-2.4199,-2.4199,-2.4199,-2.4199,-2.4236,-2.4787,-2.486,-2.4337,-2.4768,-2.4879,-2.4281,-2.4199,-2.4259,-2.44,-2.4408,-2.4181,-2.3771,-2.4192,-2.4614,-2.4695,-2.4715,-2.4729,-2.4695,-2.454,-2.4516,-2.4559,-2.4569,-2.4507,-2.4673,-2.469,-2.4704,-2.4781,-2.4785,-2.4706,-2.4741,-2.47,-2.4624,-2.4417,-2.4019,-2.3619,-2.3519,-2.3039,-2.3172,-2.3689,-2.4028,-2.3823,-2.3483,-2.2926,-2.2471,-2.2118,-2.1617,-2.123,-2.0987,-2.0857,-2.0826,-2.0905,-2.0873,-2.0889,-2.0842,-2.0842,-2.0825,-2.084,-2.0788,-2.0625,-2.0491,-2.0373,-2.032,-4.5482,-4.4605,-4.3789,-4.2492,-4.0913,-3.9127,-3.827,-3.7961,-3.64,-3.5742,-3.58,-3.4974,-3.4665,-3.4413,-3.3091,-3.2327,-3.2027,-3.1067,-3.0571,-3.0425,-3.0473,-3.0519,-3.0558,-3.0635,-3.0629,-3.0649,-3.0553,-3.0541,-3.049,-3.0219,-3.0384,-3.0924,-3.1044,-3.103,-3.0865,-3.0922,-3.0415,-2.9301,-2.9262,-2.9174,-2.8962,-2.8227,-2.7402,-2.6602,-2.5815,-2.5026,-2.4254,-2.4199,-2.4199,-2.4199,-2.4199,-2.4199,-2.4208,-2.4281,-2.4281,-2.4199,-2.4281,-2.4245,-2.4208,-2.4199,-2.411,-2.3886,-2.3916,-2.3719,-2.3255,-2.325,-2.348,-2.3832,-2.3936,-2.3922,-2.3871,-2.3388,-2.3091,-2.317,-2.3101,-2.2932,-2.3058,-2.3002,-2.3024,-2.3037,-2.3302,-2.3128,-2.3315,-2.3319,-2.3219,-2.3328,-2.3246,-2.3068,-2.3028,-2.2911,-2.2799,-2.2913,-2.2903,-2.2785,-2.2502,-2.2141,-2.1889,-2.1517,-2.1135,-2.0893,-2.0827,-2.081,-2.081,-2.081,-2.081,-2.081,-2.081,-2.081,-2.0778,-2.0727,-2.0644,-2.0492,-2.0357,-2.0306,-2.0304,-4.5251,-4.3966,-4.3573,-4.2089,-3.9995,-3.8708,-3.7883,-3.7303,-3.6207,-3.5704,-3.551,-3.4234,-3.3924,-3.4258,-3.258,-3.1796,-3.1742,-3.0862,-3.0425,-3.0398,-3.04,-3.0402,-3.0404,-3.0404,-3.0404,-3.0404,-3.0404,-3.0404,-3.0373,-3.0311,-3.0623,-3.1283,-3.1737,-3.1939,-3.1829,-3.1841,-3.1344,-3.0387,-2.9805,-2.9494,-2.9292,-2.8355,-2.742,-2.662,-2.5833,-2.5007,-2.4309,-2.4199,-2.4199,-2.4199,-2.4199,-2.4199,-2.4199,-2.4199,-2.4199,-2.4199,-2.4199,-2.4199,-2.4199,-2.4199,-2.4084,-2.3816,-2.3795,-2.3639,-2.3312,-2.3223,-2.3247,-2.3392,-2.3284,-2.3164,-2.3129,-2.2871,-2.2725,-2.279,-2.2777,-2.2803,-2.2914,-2.2893,-2.2863,-2.297,-2.297,-2.297,-2.2957,-2.2932,-2.2889,-2.2889,-2.2889,-2.2893,-2.285,-2.2855,-2.2829,-2.2777,-2.2764,-2.2615,-2.2292,-2.2124,-2.1823,-2.1449,-2.1199,-2.1071,-2.0827,-2.0826,-2.081,-2.081,-2.081,-2.081,-2.081,-2.081,-2.0794,-2.0727,-2.0627,-2.0492,-2.0426,-2.034,-2.0304,-4.5041,-4.3867,-4.3121,-4.1509,-3.945,-3.8299,-3.7477,-3.6845,-3.6052,-3.5568,-3.5201,-3.3745,-3.33,-3.3421,-3.2106,-3.1478,-3.1385,-3.0791,-3.0495,-3.0419,-3.0422,-3.0406,-3.0402,-3.039,-3.0404,-3.0404,-3.0404,-3.0404,-3.0404,-3.0404,-3.0861,-3.1761,-3.241,-3.263,-3.2537,-3.2523,-3.1941,-3.0806,-3.0074,-2.9696,-2.9495,-2.8695,-2.783,-2.7019,-2.6176,-2.5356,-2.4557,-2.4309,-2.4199,-2.4199,-2.4199,-2.4199,-2.4199,-2.4199,-2.4199,-2.4199,-2.4199,-2.4199,-2.4199,-2.4199,-2.4113,-2.3927,-2.3907,-2.3795,-2.3562,-2.3422,-2.3324,-2.3247,-2.2985,-2.2859,-2.2751,-2.2751,-2.2803,-2.2893,-2.285,-2.2893,-2.302,-2.2957,-2.2927,-2.3033,-2.2982,-2.2965,-2.297,-2.2932,-2.2889,-2.2889,-2.2889,-2.2889,-2.2889,-2.2881,-2.2855,-2.2799,-2.279,-2.2668,-2.2375,-2.2124,-2.1866,-2.1569,-2.1324,-2.1023,-2.0844,-2.0826,-2.081,-2.081,-2.081,-2.081,-2.081,-2.081,-2.0794,-2.0744,-2.0644,-2.0494,-2.0458,-2.0373,-2.0323,-4.4898,-4.4397,-4.2,-4.0368,-3.9453,-3.7723,-3.6942,-3.6759,-3.5999,-3.5226,-3.4452,-3.3455,-3.2662,-3.1966,-3.1139,-3.0675,-3.0651,-3.0569,-3.0491,-3.0481,-3.0425,-3.0398,-3.0392,-3.0402,-3.0404,-3.0404,-3.0404,-3.0404,-3.0404,-3.0404,-3.125,-3.2705,-3.2769,-3.2859,-3.2851,-3.2837,-3.1917,-3.035,-3.0071,-2.9758,-2.9397,-2.9268,-2.88,-2.8027,-2.7058,-2.6098,-2.5319,-2.4603,-2.4199,-2.4199,-2.4199,-2.4199,-2.4199,-2.4199,-2.4199,-2.4199,-2.4199,-2.4199,-2.4199,-2.4199,-2.418,-2.417,-2.4161,-2.4056,-2.3827,-2.3753,-2.3657,-2.3414,-2.3289,-2.3114,-2.2965,-2.2889,-2.2893,-2.2906,-2.2906,-2.2902,-2.2919,-2.2927,-2.2889,-2.2932,-2.2927,-2.2927,-2.2932,-2.2889,-2.2902,-2.2902,-2.2902,-2.2902,-2.2902,-2.2868,-2.2825,-2.2799,-2.2747,-2.2699,-2.2615,-2.2268,-2.1911,-2.1661,-2.1324,-2.0926,-2.0844,-2.081,-2.0843,-2.0843,-2.0892,-2.0892,-2.0843,-2.0794,-2.0777,-2.0711,-2.061,-2.0509,-2.0458,-2.0407,-2.0356,-4.3475,-4.2263,-4.0166,-3.8784,-3.794,-3.7242,-3.6642,-3.6056,-3.5243,-3.4703,-3.4181,-3.2899,-3.2101,-3.1753,-3.0946,-3.0617,-3.0617,-3.0588,-3.055,-3.0496,-3.0476,-3.043,-3.0398,-3.04,-3.0402,-3.0404,-3.0404,-3.0404,-3.0404,-3.0404,-3.0962,-3.1929,-3.2141,-3.2359,-3.2795,-3.2891,-3.2256,-3.1173,-3.1011,-3.0586,-2.9786,-2.9589,-2.9277,-2.8829,-2.7401,-2.6227,-2.5421,-2.4612,-2.4199,-2.4199,-2.4199,-2.4199,-2.4199,-2.4199,-2.4199,-2.4199,-2.4199,-2.4199,-2.4199,-2.4199,-2.4199,-2.4199,-2.4199,-2.4162,-2.4067,-2.3978,-2.3907,-2.3845,-2.3678,-2.3547,-2.3422,-2.3145,-2.2919,-2.297,-2.297,-2.2982,-2.302,-2.3015,-2.3015,-2.3028,-2.3015,-2.3015,-2.3033,-2.3033,-2.3015,-2.3033,-2.3015,-2.3033,-2.3033,-2.3008,-2.2957,-2.2876,-2.2825,-2.2803,-2.2699,-2.2351,-2.201,-2.1825,-2.157,-2.1494,-2.1418,-2.1355,-2.1386,-2.1103,-2.1071,-2.0958,-2.0909,-2.081,-2.0777,-2.0745,-2.0645,-2.0544,-2.0475,-2.0409,-2.0357,-4.1608,-4.0155,-3.8642,-3.7515,-3.6711,-3.6337,-3.571,-3.4889,-3.4295,-3.3876,-3.3412,-3.2328,-3.169,-3.1371,-3.0849,-3.0617,-3.0617,-3.0617,-3.0588,-3.0525,-3.0501,-3.0456,-3.0425,-3.0403,-3.0406,-3.0402,-3.0404,-3.0404,-3.0404,-3.0404,-3.0865,-3.166,-3.1698,-3.2102,-3.2776,-3.2891,-3.2506,-3.1815,-3.1623,-3.107,-3.0133,-2.9826,-2.9635,-2.9203,-2.7706,-2.6482,-2.5817,-2.5026,-2.4447,-2.4245,-2.4199,-2.4199,-2.4199,-2.4199,-2.4199,-2.419,-2.419,-2.42,-2.4237,-2.4237,-2.4237,-2.4237,-2.4237,-2.4228,-2.421,-2.4153,-2.4124,-2.4133,-2.4016,-2.3896,-2.3806,-2.3468,-2.3182,-2.3163,-2.3077,-2.307,-2.3095,-2.3107,-2.3107,-2.3107,-2.3077,-2.3107,-2.3107,-2.3107,-2.3089,-2.3107,-2.3107,-2.3107,-2.3107,-2.3065,-2.3045,-2.2957,-2.2902,-2.2855,-2.2777,-2.2531,-2.2251,-2.2056,-2.184,-2.1842,-2.1827,-2.1827,-2.1721,-2.1449,-2.123,-2.1103,-2.0974,-2.0859,-2.0794,-2.0794,-2.0728,-2.0628,-2.0544,-2.0426,-2.0357,-3.9331,-3.8481,-3.7558,-3.66,-3.572,-3.495,-3.4086,-3.3533,-3.3344,-3.2855,-3.2246,-3.1875,-3.1359,-3.0776,-3.0641,-3.0617,-3.0617,-3.0617,-3.0598,-3.0593,-3.053,-3.0515,-3.0486,-3.0444,-3.0398,-3.0386,-3.0402,-3.0404,-3.0404,-3.0423,-3.0827,-3.1506,-3.1558,-3.1865,-3.2795,-3.2679,-3.2398,-3.1706,-3.154,-3.1052,-3.0136,-2.9977,-2.9856,-2.9545,-2.8154,-2.7119,-2.6583,-2.5735,-2.4909,-2.432,-2.4209,-2.4199,-2.4209,-2.4209,-2.42,-2.4201,-2.4201,-2.4229,-2.4284,-2.4284,-2.4275,-2.4275,-2.4284,-2.4284,-2.4284,-2.4284,-2.4275,-2.4266,-2.42,-2.4113,-2.4075,-2.3886,-2.3657,-2.3497,-2.3271,-2.3156,-2.3119,-2.3107,-2.3107,-2.3107,-2.3107,-2.3107,-2.3107,-2.3107,-2.3107,-2.3107,-2.3107,-2.3107,-2.3107,-2.3052,-2.302,-2.2995,-2.2957,-2.2893,-2.2842,-2.276,-2.2527,-2.2306,-2.2084,-2.1957,-2.1928,-2.1913,-2.1913,-2.1676,-2.1356,-2.1198,-2.0909,-2.081,-2.081,-2.0794,-2.0745,-2.0663,-2.0544,-2.0443,-2.0375,-3.7594,-3.6716,-3.5848,-3.4973,-3.4194,-3.3806,-3.3524,-3.3247,-3.2695,-3.2235,-3.1896,-3.1291,-3.0839,-3.0665,-3.061,-3.0617,-3.0617,-3.0617,-3.0617,-3.0593,-3.0588,-3.055,-3.0515,-3.0481,-3.0449,-3.0417,-3.0406,-3.0389,-3.039,-3.0404,-3.0577,-3.075,-3.0808,-3.0923,-3.1288,-3.1737,-3.1635,-3.0949,-3.1322,-3.1078,-3.0098,-3.0,-2.9907,-2.9677,-2.9159,-2.8346,-2.7033,-2.5584,-2.4695,-2.4408,-2.4321,-2.4266,-2.4266,-2.4266,-2.4275,-2.4266,-2.4266,-2.4275,-2.4284,-2.4294,-2.4294,-2.4294,-2.4294,-2.433,-2.4358,-2.4385,-2.4375,-2.4438,-2.4412,-2.4367,-2.4339,-2.4154,-2.3888,-2.352,-2.3424,-2.3295,-2.3139,-2.3119,-2.3107,-2.3107,-2.3107,-2.3107,-2.3107,-2.3107,-2.3107,-2.3107,-2.3107,-2.3107,-2.3107,-2.3095,-2.3045,-2.3008,-2.2982,-2.2944,-2.2881,-2.2842,-2.2708,-2.2558,-2.2368,-2.2158,-2.2087,-2.2115,-2.2087,-2.1897,-2.1586,-2.1309,-2.1006,-2.0859,-2.0892,-2.0778,-2.0712,-2.0628,-2.051,-2.0443,-2.0392,-3.6306,-3.5486,-3.494,-3.4003,-3.2969,-3.2868,-3.2675,-3.2344,-3.1831,-3.1565,-3.1411,-3.0953,-3.065,-3.0633,-3.0618,-3.0613,-3.0608,-3.0621,-3.0617,-3.0617,-3.0617,-3.0569,-3.053,-3.052,-3.0476,-3.0444,-3.0433,-3.0417,-3.0402,-3.0402,-3.0396,-3.0404,-3.0404,-3.0615,-3.0865,-3.1365,-3.1391,-3.1038,-3.1366,-3.1136,-3.036,-3.0142,-2.9932,-2.9525,-2.9194,-2.8346,-2.697,-2.5497,-2.4674,-2.4593,-2.4449,-2.4373,-2.4364,-2.4339,-2.4303,-2.433,-2.4339,-2.4348,-2.4367,-2.4375,-2.4375,-2.4375,-2.4375,-2.4384,-2.443,-2.4438,-2.4465,-2.4491,-2.4491,-2.45,-2.4474,-2.4357,-2.4096,-2.3764,-2.3664,-2.3508,-2.3295,-2.3139,-2.3107,-2.3107,-2.3107,-2.3107,-2.3107,-2.3107,-2.3107,-2.3107,-2.3107,-2.3107,-2.3107,-2.3107,-2.307,-2.3045,-2.3045,-2.2977,-2.2902,-2.2863,-2.2855,-2.276,-2.2668,-2.245,-2.2309,-2.2422,-2.245,-2.2184,-2.1882,-2.1721,-2.1432,-2.1167,-2.1055,-2.0893,-2.0745,-2.0662,-2.0595,-2.0477,-2.0426,-3.5426,-3.4666,-3.4569,-3.3496,-3.2109,-3.2035,-3.1626,-3.0979,-3.0927,-3.0955,-3.0858,-3.0811,-3.0756,-3.07,-3.0639,-3.0623,-3.0609,-3.0618,-3.0628,-3.0619,-3.0606,-3.0597,-3.0593,-3.053,-3.051,-3.0485,-3.0485,-3.0449,-3.0422,-3.0411,-3.04,-3.039,-3.0423,-3.0846,-3.1404,-3.1641,-3.1558,-3.1583,-3.1577,-3.1109,-3.0399,-3.0373,-2.9982,-2.9164,-2.853,-2.7736,-2.6677,-2.5635,-2.4987,-2.4785,-2.4615,-2.4508,-2.4483,-2.4383,-2.433,-2.4403,-2.4384,-2.4438,-2.4482,-2.4482,-2.4482,-2.4482,-2.4482,-2.45,-2.4491,-2.4491,-2.4491,-2.45,-2.45,-2.45,-2.45,-2.4482,-2.4339,-2.4154,-2.3899,-2.3689,-2.352,-2.3295,-2.3187,-2.3139,-2.3114,-2.3107,-2.3107,-2.3107,-2.3107,-2.3107,-2.3107,-2.3107,-2.3107,-2.3107,-2.3107,-2.3107,-2.3095,-2.304,-2.2965,-2.2982,-2.2944,-2.2855,-2.2773,-2.2668,-2.2504,-2.2615,-2.2584,-2.2337,-2.2124,-2.1998,-2.172,-2.1324,-2.1119,-2.1006,-2.0876,-2.081,-2.0677,-2.0544,-2.0443,-3.453,-3.369,-3.3046,-3.2148,-3.1211,-3.1153,-3.1036,-3.08,-3.0822,-3.0849,-3.0857,-3.082,-3.0775,-3.0759,-3.0685,-3.0677,-3.0606,-3.0631,-3.0684,-3.0675,-3.0609,-3.0602,-3.0612,-3.0569,-3.0516,-3.0452,-3.0467,-3.0495,-3.0474,-3.037,-3.0334,-3.04,-3.0319,-3.0769,-3.15,-3.1,-3.1135,-3.1506,-3.1019,-3.0648,-3.0418,-3.0334,-2.9969,-2.9189,-2.8827,-2.7967,-2.6697,-2.5749,-2.508,-2.4738,-2.4681,-2.4594,-2.4522,-2.4472,-2.4446,-2.4465,-2.4474,-2.4474,-2.4491,-2.45,-2.45,-2.45,-2.45,-2.45,-2.45,-2.45,-2.45,-2.45,-2.45,-2.45,-2.45,-2.45,-2.4437,-2.4375,-2.4058,-2.3806,-2.37,-2.3531,-2.34,-2.3389,-2.3223,-2.3156,-2.3114,-2.3119,-2.3107,-2.3107,-2.3107,-2.3107,-2.3107,-2.3107,-2.3107,-2.3107,-2.3095,-2.3082,-2.307,-2.3057,-2.302,-2.2919,-2.2855,-2.2786,-2.2681,-2.2672,-2.2517,-2.2292,-2.2184,-2.2058,-2.1601,-2.1151,-2.1087,-2.1182,-2.0942,-2.0826,-2.0711,-2.0578,-2.0477,-3.451,-3.3377,-3.2851,-3.2129,-3.1328,-3.0976,-3.08,-3.08,-3.08,-3.0822,-3.0828,-3.0857,-3.0644,-3.0331,-3.0588,-3.051,-3.0232,-3.0152,-3.0149,-3.0041,-2.9647,-2.9683,-2.993,-3.0056,-3.0032,-3.0071,-3.0376,-3.0279,-2.9988,-2.9904,-2.9709,-2.9437,-2.969,-2.9967,-2.9929,-3.0044,-3.0083,-3.0429,-3.0121,-2.9975,-3.0309,-2.9994,-2.9379,-2.8681,-2.8269,-2.7371,-2.614,-2.5558,-2.519,-2.4994,-2.4902,-2.4797,-2.4673,-2.4623,-2.4557,-2.4517,-2.45,-2.45,-2.45,-2.45,-2.45,-2.45,-2.45,-2.45,-2.45,-2.45,-2.45,-2.45,-2.45,-2.45,-2.45,-2.45,-2.45,-2.4446,-2.4238,-2.4057,-2.3949,-2.3761,-2.3653,-2.3576,-2.3429,-2.3271,-2.3259,-2.3175,-2.3132,-2.3107,-2.3107,-2.3107,-2.3107,-2.3107,-2.3107,-2.3107,-2.3107,-2.3082,-2.3052,-2.304,-2.3033,-2.2932,-2.2881,-2.2842,-2.279,-2.2725,-2.2615,-2.2419,-2.2257,-2.2089,-2.1751,-2.1493,-2.1508,-2.1478,-2.1135,-2.0909,-2.0811,-2.0794,-2.0678,-3.4898,-3.3396,-3.3297,-3.2752,-3.1836,-3.1153,-3.08,-3.08,-3.08,-3.0722,-3.0627,-3.071,-3.0187,-2.9502,-2.996,-3.0051,-2.9385,-2.9322,-2.9289,-2.9012,-2.8546,-2.8346,-2.887,-2.9113,-2.9147,-2.9239,-2.9979,-2.9839,-2.9429,-2.9221,-2.8786,-2.8601,-2.8893,-2.869,-2.8728,-2.8838,-2.903,-2.941,-2.9184,-2.941,-2.9788,-2.9365,-2.8582,-2.7788,-2.6962,-2.6313,-2.5615,-2.5308,-2.5269,-2.5284,-2.5165,-2.5006,-2.4895,-2.4764,-2.4671,-2.4541,-2.4525,-2.45,-2.45,-2.45,-2.45,-2.45,-2.45,-2.45,-2.45,-2.45,-2.45,-2.45,-2.45,-2.45,-2.4508,-2.4508,-2.4498,-2.4498,-2.4472,-2.4375,-2.4183,-2.3951,-2.3837,-2.3816,-2.3664,-2.3553,-2.3463,-2.333,-2.3168,-2.3235,-2.3175,-2.3107,-2.3107,-2.3107,-2.3107,-2.3107,-2.3095,-2.3082,-2.304,-2.3015,-2.2977,-2.2944,-2.2881,-2.2842,-2.279,-2.2738,-2.2712,-2.2605,-2.2371,-2.2312,-2.2326,-2.2155,-2.1967,-2.1764,-2.1433,-2.1198,-2.1039,-2.1087,-2.1039,-3.4357,-3.3349,-3.2666,-3.187,-3.1113,-3.0878,-3.08,-3.08,-3.0781,-3.0431,-2.9983,-2.9886,-2.9382,-2.8604,-2.8845,-2.8709,-2.8594,-2.8528,-2.8483,-2.8276,-2.7534,-2.7203,-2.752,-2.7915,-2.8247,-2.8358,-2.8436,-2.8795,-2.8974,-2.8623,-2.8517,-2.8806,-2.8245,-2.8384,-2.8673,-2.8233,-2.8896,-2.9621,-2.8838,-2.8588,-2.9069,-2.8588,-2.7736,-2.6909,-2.6077,-2.5577,-2.5385,-2.5308,-2.5308,-2.5264,-2.5195,-2.5074,-2.4929,-2.4794,-2.4715,-2.4671,-2.4584,-2.4517,-2.4508,-2.4517,-2.45,-2.45,-2.4508,-2.45,-2.45,-2.45,-2.45,-2.45,-2.45,-2.4508,-2.4517,-2.4549,-2.453,-2.4522,-2.4505,-2.4505,-2.4435,-2.422,-2.4068,-2.4009,-2.3878,-2.3732,-2.3721,-2.352,-2.3412,-2.3371,-2.3259,-2.3126,-2.3107,-2.3107,-2.3107,-2.3107,-2.3107,-2.3095,-2.3065,-2.304,-2.3033,-2.2977,-2.2932,-2.2881,-2.2842,-2.2764,-2.2738,-2.2615,-2.2422,-2.245,-2.2531,-2.2271,-2.1972,-2.1855,-2.1751,-2.1586,-2.1463,-2.1463,-2.1355,-3.4195,-3.3321,-3.2443,-3.1843,-3.1381,-3.0972,-3.0798,-3.0722,-3.0372,-3.0001,-2.9573,-2.922,-2.85,-2.7782,-2.8076,-2.8138,-2.7751,-2.7656,-2.7392,-2.6976,-2.6466,-2.6281,-2.6276,-2.6644,-2.6974,-2.7419,-2.832,-2.8528,-2.8124,-2.8018,-2.7788,-2.7527,-2.7345,-2.7219,-2.7504,-2.7378,-2.7758,-2.8235,-2.7853,-2.7694,-2.8258,-2.7703,-2.6871,-2.614,-2.5558,-2.5308,-2.5308,-2.5308,-2.5308,-2.5279,-2.5248,-2.5174,-2.5031,-2.4929,-2.4861,-2.4794,-2.4742,-2.4653,-2.4613,-2.4588,-2.4564,-2.4508,-2.4534,-2.4525,-2.4525,-2.4534,-2.4524,-2.4524,-2.4532,-2.4559,-2.4541,-2.4574,-2.4572,-2.4555,-2.4547,-2.4564,-2.4555,-2.44,-2.4284,-2.4248,-2.4126,-2.3939,-2.3806,-2.3707,-2.344,-2.3324,-2.323,-2.3114,-2.3107,-2.3107,-2.3107,-2.3107,-2.3107,-2.3107,-2.3107,-2.3095,-2.3082,-2.3045,-2.2977,-2.297,-2.2932,-2.2842,-2.2751,-2.2642,-2.2544,-2.2544,-2.2544,-2.2257,-2.2101,-2.2056,-2.1982,-2.1943,-2.184,-2.1721,-2.1584,-3.4092,-3.3158,-3.2415,-3.2028,-3.1783,-3.1103,-3.0695,-3.0466,-2.9883,-2.9414,-2.9084,-2.838,-2.7621,-2.7095,-2.7469,-2.7393,-2.6969,-2.6718,-2.6424,-2.5966,-2.5823,-2.5753,-2.5753,-2.5814,-2.6057,-2.6672,-2.7628,-2.7654,-2.7271,-2.7207,-2.6947,-2.6002,-2.6167,-2.6279,-2.5815,-2.6105,-2.6737,-2.6978,-2.6713,-2.6858,-2.7412,-2.6877,-2.6063,-2.5596,-2.539,-2.5313,-2.5313,-2.5327,-2.5322,-2.5341,-2.5384,-2.5298,-2.5206,-2.5121,-2.5061,-2.4948,-2.4915,-2.484,-2.4779,-2.4746,-2.47,-2.4566,-2.4607,-2.459,-2.4549,-2.4557,-2.4547,-2.4555,-2.4582,-2.4607,-2.4607,-2.4623,-2.4623,-2.4615,-2.4615,-2.4596,-2.4607,-2.4549,-2.4515,-2.4461,-2.4365,-2.4201,-2.4039,-2.3888,-2.3558,-2.3277,-2.3206,-2.3139,-2.3126,-2.3102,-2.3102,-2.3107,-2.3107,-2.3107,-2.3107,-2.3107,-2.3107,-2.3082,-2.3028,-2.3015,-2.302,-2.297,-2.2881,-2.279,-2.2738,-2.2694,-2.2668,-2.2548,-2.2409,-2.232,-2.2265,-2.2257,-2.2147,-2.1974,-2.1869,-3.3719,-3.2305,-3.2147,-3.1687,-3.1055,-3.084,-3.0373,-2.977,-2.9523,-2.8685,-2.7554,-2.7266,-2.6741,-2.6215,-2.602,-2.6028,-2.6032,-2.6013,-2.5878,-2.5661,-2.56,-2.56,-2.5607,-2.5591,-2.5707,-2.5727,-2.6321,-2.6489,-2.652,-2.6238,-2.6401,-2.6296,-2.594,-2.553,-2.5599,-2.5612,-2.6084,-2.6365,-2.6043,-2.6173,-2.6496,-2.6164,-2.5658,-2.5369,-2.5369,-2.5369,-2.5373,-2.5373,-2.5373,-2.5397,-2.5402,-2.5369,-2.5317,-2.5229,-2.5152,-2.5096,-2.5037,-2.5,-2.4948,-2.4948,-2.4888,-2.479,-2.4764,-2.4689,-2.4613,-2.4599,-2.4588,-2.4596,-2.4623,-2.4666,-2.4596,-2.4655,-2.4679,-2.4671,-2.4655,-2.4663,-2.4671,-2.4639,-2.459,-2.4572,-2.453,-2.4462,-2.4238,-2.4078,-2.387,-2.3628,-2.3495,-2.333,-2.3194,-2.3157,-2.3126,-2.3114,-2.3107,-2.3107,-2.3107,-2.3107,-2.3107,-2.3107,-2.3065,-2.3065,-2.307,-2.3082,-2.302,-2.2906,-2.2803,-2.2738,-2.2712,-2.2712,-2.2655,-2.2517,-2.2548,-2.2592,-2.2453,-2.2301,-2.2287,-3.2835,-3.206,-3.1629,-3.1187,-3.0749,-3.0303,-2.9897,-2.9414,-2.8579,-2.7762,-2.7064,-2.6541,-2.6115,-2.5785,-2.5687,-2.5694,-2.5696,-2.5694,-2.5677,-2.5644,-2.5643,-2.5643,-2.5644,-2.562,-2.562,-2.5631,-2.5629,-2.5746,-2.6184,-2.6318,-2.6375,-2.6462,-2.5948,-2.5696,-2.5899,-2.5711,-2.5735,-2.592,-2.5687,-2.5601,-2.6002,-2.555,-2.543,-2.5391,-2.5391,-2.5391,-2.5391,-2.5391,-2.5391,-2.5391,-2.54,-2.54,-2.5387,-2.5369,-2.5313,-2.5259,-2.5219,-2.5185,-2.5121,-2.5109,-2.5056,-2.4832,-2.4832,-2.4772,-2.4668,-2.4621,-2.4637,-2.4645,-2.466,-2.4687,-2.4653,-2.4684,-2.4684,-2.4684,-2.4695,-2.4684,-2.4684,-2.466,-2.4645,-2.4637,-2.4623,-2.453,-2.4374,-2.4229,-2.4136,-2.3973,-2.3801,-2.3577,-2.3335,-2.3307,-2.3283,-2.3187,-2.3163,-2.3114,-2.3132,-2.3119,-2.3107,-2.3107,-2.3107,-2.3107,-2.3095,-2.3095,-2.3045,-2.294,-2.285,-2.279,-2.2725,-2.2712,-2.2712,-2.2712,-2.2672,-2.2659,-2.2685,-2.2659,-2.2575,-3.1995,-3.178,-3.1093,-3.0711,-3.0427,-2.9823,-2.9264,-2.8746,-2.7615,-2.6957,-2.6649,-2.6068,-2.5741,-2.5705,-2.5706,-2.5687,-2.5706,-2.5706,-2.5689,-2.569,-2.5691,-2.5689,-2.5674,-2.566,-2.5644,-2.5683,-2.5662,-2.562,-2.5816,-2.6165,-2.6613,-2.6608,-2.603,-2.5998,-2.6448,-2.5907,-2.5657,-2.5494,-2.5461,-2.543,-2.5406,-2.5412,-2.5404,-2.54,-2.5423,-2.5423,-2.5427,-2.5427,-2.5427,-2.5432,-2.5417,-2.5421,-2.5412,-2.5452,-2.5452,-2.5427,-2.5423,-2.5355,-2.5298,-2.5298,-2.5206,-2.4975,-2.4929,-2.484,-2.4727,-2.47,-2.4692,-2.4681,-2.4681,-2.4681,-2.4684,-2.47,-2.4681,-2.47,-2.47,-2.4681,-2.47,-2.4692,-2.4684,-2.4676,-2.4695,-2.4613,-2.4486,-2.4452,-2.4355,-2.4183,-2.4003,-2.3854,-2.3646,-2.3581,-2.3522,-2.333,-2.3247,-2.3175,-2.3139,-2.3119,-2.3119,-2.3107,-2.3107,-2.3107,-2.3095,-2.307,-2.3033,-2.2977,-2.294,-2.2863,-2.279,-2.2725,-2.2738,-2.2738,-2.2725,-2.2712,-2.2712,-2.2712,-2.2659,-3.1661,-3.0938,-3.0821,-3.0373,-2.9693,-2.9459,-2.8565,-2.7301,-2.7055,-2.6532,-2.5855,-2.5789,-2.5698,-2.5701,-2.5705,-2.5704,-2.5703,-2.5704,-2.5706,-2.5706,-2.5707,-2.5707,-2.5687,-2.5689,-2.5578,-2.5537,-2.5581,-2.5703,-2.5639,-2.5714,-2.6243,-2.656,-2.6167,-2.6011,-2.6695,-2.6005,-2.5569,-2.5504,-2.5489,-2.5479,-2.5484,-2.5488,-2.5468,-2.5402,-2.5402,-2.5286,-2.5166,-2.5128,-2.5205,-2.5286,-2.5368,-2.5445,-2.5503,-2.5507,-2.5488,-2.5484,-2.548,-2.548,-2.5436,-2.5447,-2.5388,-2.5182,-2.5126,-2.5,-2.4888,-2.4764,-2.4712,-2.4681,-2.4707,-2.47,-2.4707,-2.4707,-2.47,-2.4707,-2.4707,-2.4707,-2.4707,-2.4681,-2.4681,-2.4681,-2.4684,-2.4692,-2.4618,-2.461,-2.4567,-2.4398,-2.4238,-2.408,-2.3896,-2.3813,-2.3709,-2.3518,-2.3365,-2.3283,-2.3223,-2.3205,-2.3168,-2.3144,-2.3119,-2.3119,-2.3095,-2.3082,-2.304,-2.3015,-2.299,-2.2965,-2.2889,-2.2855,-2.2816,-2.2777,-2.2764,-2.2738,-2.2712,-2.2712,-2.2712,-2.9594,-2.9379,-2.9866,-2.9574,-2.8756,-2.8249,-2.7626,-2.6926,-2.6424,-2.5767,-2.5186,-2.5525,-2.5689,-2.5654,-2.5697,-2.5697,-2.5696,-2.5697,-2.568,-2.5644,-2.5625,-2.5665,-2.5687,-2.5648,-2.5553,-2.5084,-2.4968,-2.4894,-2.5058,-2.5527,-2.609,-2.6694,-2.6184,-2.6061,-2.6734,-2.6064,-2.571,-2.5585,-2.5566,-2.5543,-2.5515,-2.5457,-2.5246,-2.4799,-2.476,-2.4532,-2.4203,-2.4041,-2.4041,-2.4025,-2.4029,-2.4036,-2.4175,-2.4434,-2.4747,-2.4786,-2.5254,-2.5476,-2.5511,-2.5492,-2.5423,-2.5337,-2.5243,-2.5154,-2.5031,-2.4902,-2.483,-2.4823,-2.4791,-2.4761,-2.4738,-2.4746,-2.4742,-2.4742,-2.4746,-2.4753,-2.4746,-2.4707,-2.4681,-2.4681,-2.4681,-2.4689,-2.4696,-2.4665,-2.465,-2.4567,-2.4449,-2.4345,-2.4099,-2.3883,-2.378,-2.3682,-2.3531,-2.3407,-2.336,-2.3313,-2.3265,-2.3229,-2.3144,-2.3132,-2.3119,-2.3077,-2.3077,-2.3077,-2.3052,-2.3028,-2.3008,-2.2944,-2.2868,-2.2829,-2.2803,-2.2777,-2.2764,-2.2712,-2.2681,-2.7581,-2.7582,-2.8673,-2.8664,-2.7833,-2.7171,-2.6784,-2.6517,-2.5991,-2.5235,-2.4736,-2.5049,-2.5348,-2.5471,-2.5533,-2.5573,-2.5356,-2.5591,-2.534,-2.5227,-2.5269,-2.533,-2.5157,-2.512,-2.4769,-2.4377,-2.4145,-2.4263,-2.4616,-2.5071,-2.5837,-2.689,-2.6113,-2.623,-2.6502,-2.6166,-2.567,-2.5629,-2.5613,-2.5433,-2.5211,-2.5165,-2.4655,-2.4179,-2.3809,-2.3576,-2.3056,-2.3005,-2.3021,-2.3063,-2.3105,-2.3202,-2.3244,-2.3638,-2.3893,-2.399,-2.44,-2.4642,-2.4856,-2.5058,-2.5332,-2.5367,-2.5303,-2.5239,-2.5118,-2.5012,-2.4968,-2.4968,-2.4955,-2.4893,-2.4823,-2.4832,-2.4825,-2.4811,-2.4794,-2.4801,-2.4808,-2.4779,-2.4764,-2.4779,-2.4772,-2.4727,-2.4719,-2.4696,-2.4681,-2.4681,-2.465,-2.4583,-2.4363,-2.406,-2.403,-2.3971,-2.3771,-2.3638,-2.3571,-2.3504,-2.3424,-2.3336,-2.3253,-2.3217,-2.3229,-2.3205,-2.318,-2.3168,-2.3144,-2.3095,-2.3057,-2.2995,-2.2932,-2.2906,-2.2881,-2.2825,-2.2799,-2.2747,-2.2708,-2.6168,-2.5657,-2.7436,-2.7684,-2.6992,-2.6936,-2.6459,-2.5771,-2.5677,-2.5114,-2.4339,-2.4402,-2.4388,-2.4663,-2.5137,-2.5156,-2.4546,-2.5315,-2.479,-2.4208,-2.4055,-2.4487,-2.4432,-2.4122,-2.3734,-2.3985,-2.3693,-2.379,-2.422,-2.4495,-2.5574,-2.6632,-2.605,-2.6345,-2.6425,-2.6074,-2.5722,-2.5618,-2.5529,-2.5104,-2.4682,-2.4365,-2.3951,-2.3283,-2.3069,-2.3033,-2.2953,-2.2747,-2.2666,-2.2647,-2.2613,-2.261,-2.2574,-2.2897,-2.3053,-2.315,-2.3402,-2.3589,-2.376,-2.4648,-2.5369,-2.5425,-2.5379,-2.5302,-2.5225,-2.5198,-2.5176,-2.5146,-2.5126,-2.5086,-2.5018,-2.5,-2.4975,-2.4935,-2.4921,-2.4881,-2.4881,-2.4867,-2.4854,-2.4861,-2.484,-2.4808,-2.4787,-2.4753,-2.4704,-2.4696,-2.4681,-2.4634,-2.461,-2.4408,-2.4391,-2.4302,-2.4057,-2.3907,-2.3845,-2.3761,-2.3631,-2.3549,-2.347,-2.3441,-2.3418,-2.3372,-2.3289,-2.3253,-2.3229,-2.3168,-2.3107,-2.3045,-2.3008,-2.2995,-2.294,-2.2889,-2.2838,-2.2816,-2.279,-2.548,-2.5322,-2.6044,-2.6192,-2.5971,-2.5971,-2.5546,-2.4917,-2.4834,-2.438,-2.3575,-2.3074,-2.3114,-2.3719,-2.4422,-2.4424,-2.3816,-2.45,-2.4232,-2.3983,-2.3832,-2.3953,-2.3838,-2.349,-2.3062,-2.2984,-2.2906,-2.3179,-2.3548,-2.4115,-2.5016,-2.5725,-2.5811,-2.591,-2.5951,-2.5913,-2.5721,-2.5449,-2.5156,-2.4625,-2.4401,-2.3735,-2.3124,-2.2303,-2.2206,-2.1896,-2.1524,-2.1458,-2.1473,-2.1523,-2.1539,-2.1582,-2.1707,-2.1986,-2.2186,-2.228,-2.2574,-2.2807,-2.3051,-2.4012,-2.4875,-2.5434,-2.5444,-2.5414,-2.5361,-2.5311,-2.526,-2.5245,-2.5269,-2.5229,-2.516,-2.5165,-2.516,-2.5105,-2.5037,-2.5013,-2.4981,-2.4968,-2.4935,-2.4954,-2.4908,-2.4842,-2.4847,-2.484,-2.476,-2.4712,-2.4696,-2.4681,-2.4657,-2.4637,-2.4569,-2.4503,-2.4275,-2.4153,-2.4095,-2.3958,-2.3816,-2.3739,-2.366,-2.3605,-2.3567,-2.3494,-2.3407,-2.3372,-2.3324,-2.3265,-2.3205,-2.3132,-2.3082,-2.304,-2.299,-2.2914,-2.2876,-2.2868,-2.2842,-2.4675,-2.4713,-2.4509,-2.4778,-2.5298,-2.5097,-2.4735,-2.4299,-2.3992,-2.3434,-2.2645,-2.2063,-2.2103,-2.2845,-2.3587,-2.3534,-2.3127,-2.3499,-2.3503,-2.3157,-2.281,-2.3086,-2.3148,-2.2799,-2.2041,-2.1903,-2.2274,-2.2703,-2.276,-2.3853,-2.4658,-2.521,-2.5567,-2.5708,-2.5732,-2.5675,-2.5463,-2.4858,-2.4702,-2.3962,-2.3672,-2.3047,-2.2323,-2.1535,-2.1379,-2.1205,-2.0835,-2.0774,-2.0712,-2.0687,-2.0658,-2.0586,-2.0732,-2.0954,-2.1286,-2.1569,-2.1859,-2.2248,-2.254,-2.3567,-2.4558,-2.5376,-2.5528,-2.5525,-2.5515,-2.5441,-2.5418,-2.541,-2.5378,-2.5354,-2.5289,-2.5327,-2.5313,-2.5253,-2.5222,-2.5176,-2.5153,-2.5124,-2.5075,-2.5019,-2.4987,-2.4954,-2.4934,-2.4921,-2.4861,-2.4801,-2.4757,-2.4742,-2.4719,-2.4673,-2.4629,-2.4545,-2.4425,-2.4366,-2.4303,-2.4134,-2.3958,-2.3795,-2.3728,-2.3696,-2.3649,-2.36,-2.3555,-2.3533,-2.3476,-2.3383,-2.3324,-2.3289,-2.3205,-2.3102,-2.304,-2.2977,-2.2965,-2.2957,-2.2876,-2.3681,-2.3619,-2.2943,-2.3643,-2.4952,-2.4389,-2.4025,-2.3788,-2.3134,-2.243,-2.1765,-2.1592,-2.1645,-2.2006,-2.2751,-2.2584,-2.2188,-2.264,-2.2544,-2.1672,-2.175,-2.1872,-2.174,-2.1429,-2.1251,-2.1701,-2.1975,-2.2053,-2.1993,-2.3632,-2.4378,-2.4556,-2.4933,-2.5407,-2.5628,-2.5629,-2.479,-2.3561,-2.4009,-2.3269,-2.2528,-2.2061,-2.1439,-2.1011,-2.0797,-2.068,-2.0601,-2.0526,-2.0507,-2.0508,-2.0505,-2.05,-2.0574,-2.0589,-2.0695,-2.0735,-2.0722,-2.0771,-2.0881,-2.3028,-2.4516,-2.5426,-2.5582,-2.5582,-2.5601,-2.5576,-2.555,-2.5525,-2.5538,-2.5538,-2.5513,-2.5488,-2.5441,-2.54,-2.535,-2.5317,-2.5283,-2.5261,-2.5204,-2.5164,-2.5138,-2.5101,-2.5038,-2.4999,-2.4935,-2.4881,-2.4837,-2.4801,-2.4787,-2.4734,-2.4673,-2.4634,-2.4569,-2.4495,-2.4419,-2.4247,-2.4077,-2.3909,-2.3858,-2.3878,-2.3834,-2.3779,-2.3743,-2.37,-2.36,-2.351,-2.3505,-2.3482,-2.336,-2.3223,-2.3114,-2.3065,-2.307,-2.3015,-2.294,-2.273,-2.2745,-2.252,-2.2785,-2.3337,-2.3165,-2.282,-2.2241,-2.1535,-2.1026,-2.0845,-2.0874,-2.0929,-2.121,-2.1708,-2.1776,-2.1259,-2.1802,-2.1589,-2.1432,-2.1172,-2.137,-2.1315,-2.1002,-2.0688,-2.1028,-2.1381,-2.1792,-2.1867,-2.3467,-2.3803,-2.3866,-2.3947,-2.4286,-2.4483,-2.4387,-2.351,-2.3101,-2.2886,-2.234,-2.1813,-2.1305,-2.0856,-2.0545,-2.0525,-2.0544,-2.0542,-2.0512,-2.0513,-2.0516,-2.0505,-2.0508,-2.0508,-2.0507,-2.0501,-2.0512,-2.0551,-2.1139,-2.2036,-2.3712,-2.4693,-2.5311,-2.5612,-2.56,-2.5612,-2.56,-2.5603,-2.5605,-2.5598,-2.5582,-2.5574,-2.5568,-2.5525,-2.546,-2.5426,-2.5406,-2.5372,-2.536,-2.5327,-2.5303,-2.5276,-2.522,-2.5155,-2.51,-2.505,-2.5,-2.4948,-2.4888,-2.4861,-2.4816,-2.4776,-2.4727,-2.4681,-2.4626,-2.4537,-2.4408,-2.4338,-2.4211,-2.4174,-2.4201,-2.4135,-2.3998,-2.3904,-2.3834,-2.3754,-2.3652,-2.3611,-2.3578,-2.3476,-2.3372,-2.3277,-2.3144,-2.3082,-2.307,-2.3015,-2.1835,-2.1824,-2.1601,-2.1513,-2.1563,-2.1899,-2.1637,-2.0934,-2.0462,-2.0282,-2.0334,-2.0393,-2.0463,-2.0655,-2.0944,-2.1154,-2.0575,-2.1037,-2.1338,-2.1278,-2.0819,-2.0899,-2.0959,-2.0844,-2.0597,-2.0742,-2.1236,-2.1706,-2.1375,-2.3083,-2.3527,-2.3198,-2.2781,-2.2992,-2.3231,-2.314,-2.2782,-2.2355,-2.1828,-2.175,-2.1281,-2.087,-2.0558,-2.0519,-2.0517,-2.0516,-2.0515,-2.0514,-2.0514,-2.0499,-2.0507,-2.0516,-2.0501,-2.0505,-2.0508,-2.0508,-2.0623,-2.1416,-2.2736,-2.3391,-2.436,-2.5499,-2.5595,-2.5609,-2.5598,-2.5607,-2.5609,-2.5609,-2.5607,-2.5602,-2.56,-2.56,-2.5581,-2.5528,-2.5515,-2.5479,-2.5455,-2.543,-2.5401,-2.538,-2.5367,-2.5298,-2.5236,-2.5217,-2.5164,-2.5122,-2.5074,-2.5013,-2.4948,-2.49,-2.4844,-2.4823,-2.4794,-2.4723,-2.4685,-2.4631,-2.4567,-2.451,-2.4476,-2.4442,-2.4382,-2.4238,-2.4126,-2.4008,-2.3937,-2.3863,-2.3736,-2.366,-2.3582,-2.351,-2.3407,-2.3277,-2.3132,-2.3119,-2.3132,-2.0904,-2.0833,-2.012,-1.9882,-1.9989,-2.0784,-2.0685,-2.0052,-2.0159,-2.0226,-2.0296,-2.0281,-2.033,-2.0393,-2.0449,-2.0487,-2.0493,-2.0594,-2.0642,-2.0618,-2.0538,-2.0599,-2.0586,-2.0534,-2.05,-2.0764,-2.1085,-2.1206,-2.0784,-2.1958,-2.2702,-2.2714,-2.2086,-2.1967,-2.2053,-2.2185,-2.1911,-2.1363,-2.1305,-2.117,-2.08,-2.0606,-2.0507,-2.0507,-2.0506,-2.0503,-2.05,-2.0518,-2.05,-2.0501,-2.0503,-2.0509,-2.0512,-2.0516,-2.0506,-2.0514,-2.0521,-2.1659,-2.2773,-2.3278,-2.421,-2.5427,-2.5626,-2.5613,-2.5625,-2.5629,-2.5629,-2.5629,-2.5627,-2.5605,-2.5601,-2.5601,-2.56,-2.5583,-2.5595,-2.5559,-2.5518,-2.547,-2.5443,-2.5402,-2.5398,-2.5332,-2.5269,-2.524,-2.5225,-2.5179,-2.5151,-2.5128,-2.5063,-2.498,-2.4934,-2.4914,-2.4886,-2.4832,-2.4804,-2.4749,-2.4719,-2.4651,-2.4612,-2.458,-2.4532,-2.4466,-2.4319,-2.422,-2.4173,-2.4058,-2.3865,-2.3768,-2.3721,-2.3634,-2.3549,-2.3441,-2.3313,-2.3289,-2.3265,-1.9992,-1.9975,-1.9812,-1.9744,-1.9769,-2.0032,-2.0068,-1.9947,-2.0064,-2.0135,-2.0153,-2.0201,-2.0242,-2.025,-2.0299,-2.0328,-2.0399,-2.0454,-2.0512,-2.049,-2.0451,-2.0464,-2.0468,-2.0468,-2.0473,-2.0562,-2.0731,-2.0836,-2.0655,-2.1325,-2.1714,-2.1845,-2.134,-2.1005,-2.1009,-2.1141,-2.0875,-2.0743,-2.0883,-2.0754,-2.0599,-2.0519,-2.0501,-2.0503,-2.0498,-2.0513,-2.0509,-2.0506,-2.0506,-2.0504,-2.0502,-2.0504,-2.0506,-2.0508,-2.0517,-2.0602,-2.1072,-2.1965,-2.2968,-2.3671,-2.4469,-2.5364,-2.5666,-2.5682,-2.5676,-2.5669,-2.5666,-2.5666,-2.5665,-2.5642,-2.5642,-2.5641,-2.5637,-2.5611,-2.5627,-2.5621,-2.5568,-2.5554,-2.5499,-2.5496,-2.5474,-2.5397,-2.5328,-2.5274,-2.5243,-2.5222,-2.5201,-2.5204,-2.517,-2.5075,-2.5032,-2.5013,-2.4987,-2.4942,-2.4902,-2.4874,-2.4854,-2.4806,-2.4778,-2.4741,-2.4704,-2.4628,-2.4499,-2.4391,-2.4266,-2.4097,-2.3917,-2.3834,-2.3821,-2.3782,-2.37,-2.3605,-2.351,-2.3453,-2.3407,-1.9557,-1.9609,-1.9638,-1.9665,-1.9672,-1.9719,-1.9776,-1.9837,-1.9947,-1.9998,-2.0054,-2.0098,-2.0135,-2.0156,-2.0192,-2.0223,-2.0231,-2.0314,-2.0375,-2.0404,-2.0413,-2.0427,-2.043,-2.0438,-2.0429,-2.0461,-2.0493,-2.0582,-2.0495,-2.0534,-2.0883,-2.1086,-2.0589,-2.0512,-2.0523,-2.062,-2.0543,-2.0495,-2.0524,-2.0502,-2.0504,-2.0504,-2.0508,-2.0508,-2.0502,-2.0497,-2.0495,-2.0495,-2.0495,-2.0497,-2.0517,-2.0517,-2.0495,-2.0471,-2.0497,-2.0564,-2.0809,-2.1788,-2.2804,-2.3471,-2.4453,-2.5293,-2.5681,-2.5695,-2.5691,-2.5685,-2.5683,-2.5682,-2.5699,-2.5697,-2.5697,-2.5697,-2.5672,-2.5626,-2.5647,-2.5666,-2.5642,-2.5637,-2.5613,-2.5609,-2.5556,-2.5473,-2.5395,-2.5324,-2.5284,-2.5293,-2.5284,-2.5233,-2.5212,-2.5162,-2.5134,-2.5116,-2.5093,-2.5043,-2.5013,-2.4987,-2.5,-2.5,-2.5,-2.4967,-2.4914,-2.4847,-2.4782,-2.4575,-2.433,-2.4173,-2.4068,-2.3968,-2.3907,-2.3896,-2.3858,-2.3771,-2.3649,-2.3544,-2.351,-1.9536,-1.9576,-1.9583,-1.9609,-1.9622,-1.9647,-1.9686,-1.9686,-1.9757,-1.9861,-1.9961,-1.9996,-2.0019,-2.0054,-2.0079,-2.0093,-2.0106,-2.0171,-2.0246,-2.0277,-2.0339,-2.0366,-2.0386,-2.0385,-2.0393,-2.0416,-2.0448,-2.0473,-2.0485,-2.0497,-2.0471,-2.0405,-2.0416,-2.0402,-2.0404,-2.0405,-2.0389,-2.0407,-2.0449,-2.0473,-2.0488,-2.0493,-2.0493,-2.0473,-2.049,-2.0485,-2.0488,-2.0471,-2.0471,-2.049,-2.0488,-2.0485,-2.0456,-2.0443,-2.0451,-2.0483,-2.0568,-2.156,-2.2545,-2.3209,-2.4178,-2.503,-2.5662,-2.5683,-2.5682,-2.5695,-2.5692,-2.5692,-2.5689,-2.5689,-2.569,-2.569,-2.5687,-2.5665,-2.5684,-2.5685,-2.5684,-2.566,-2.5655,-2.5648,-2.5598,-2.5529,-2.5515,-2.5434,-2.5383,-2.5394,-2.5352,-2.5313,-2.5279,-2.5248,-2.5217,-2.5201,-2.5162,-2.514,-2.514,-2.5122,-2.5147,-2.5172,-2.516,-2.5162,-2.5076,-2.5057,-2.5069,-2.4797,-2.451,-2.4409,-2.4293,-2.4164,-2.4058,-2.4046,-2.3988,-2.3927,-2.3831,-2.3682,-2.3627,-1.9505,-1.953,-1.953,-1.9541,-1.9583,-1.9564,-1.9585,-1.9618,-1.965,-1.9712,-1.9825,-1.9849,-1.9861,-1.9883,-1.9931,-1.9953,-1.9955,-2.0036,-2.0116,-2.0156,-2.0218,-2.0265,-2.0311,-2.0306,-2.0314,-2.0389,-2.0423,-2.0404,-2.0398,-2.0401,-2.0404,-2.0399,-2.0366,-2.0347,-2.0356,-2.0332,-2.0325,-2.0327,-2.033,-2.0366,-2.0399,-2.0396,-2.0413,-2.0408,-2.041,-2.0416,-2.0413,-2.041,-2.0426,-2.0446,-2.0426,-2.0426,-2.0423,-2.0417,-2.0417,-2.041,-2.0441,-2.1395,-2.2433,-2.3132,-2.3938,-2.4982,-2.5624,-2.5654,-2.5682,-2.5683,-2.5698,-2.5698,-2.5698,-2.5698,-2.5698,-2.5698,-2.5698,-2.5696,-2.5696,-2.5696,-2.5698,-2.5694,-2.569,-2.5655,-2.5611,-2.56,-2.5593,-2.5547,-2.5498,-2.545,-2.5403,-2.5374,-2.5352,-2.5326,-2.5264,-2.5239,-2.5212,-2.5195,-2.522,-2.5215,-2.5228,-2.5217,-2.5201,-2.5189,-2.5197,-2.5137,-2.5069,-2.4927,-2.4731,-2.4607,-2.4485,-2.4327,-2.4256,-2.4201,-2.4075,-2.3996,-2.3937,-2.3813,-2.3782,-1.9247,-1.894,-1.8929,-1.8924,-1.9034,-1.9341,-1.9515,-1.9566,-1.9562,-1.9599,-1.9673,-1.9719,-1.9745,-1.9745,-1.9794,-1.9824,-1.9823,-1.992,-1.9979,-2.0025,-2.0079,-2.0125,-2.0156,-2.0174,-2.0159,-2.0196,-2.0238,-2.0246,-2.0277,-2.0299,-2.0306,-2.0277,-2.0265,-2.0262,-2.0227,-2.019,-2.019,-2.0211,-2.0186,-2.0196,-2.0264,-2.0301,-2.0347,-2.0366,-2.0354,-2.036,-2.036,-2.034,-2.036,-2.036,-2.0363,-2.0366,-2.0347,-2.0344,-2.0366,-2.0363,-2.0545,-2.1097,-2.2369,-2.3196,-2.3807,-2.4944,-2.559,-2.5611,-2.5636,-2.5654,-2.5683,-2.5684,-2.57,-2.5699,-2.5699,-2.5699,-2.5699,-2.5699,-2.5698,-2.5699,-2.5699,-2.5698,-2.5695,-2.5688,-2.5657,-2.5654,-2.5644,-2.56,-2.5547,-2.5529,-2.5489,-2.5446,-2.5425,-2.541,-2.5357,-2.5312,-2.5284,-2.5248,-2.5266,-2.5241,-2.5236,-2.5225,-2.5209,-2.5217,-2.5201,-2.5124,-2.5013,-2.498,-2.4895,-2.4804,-2.4674,-2.4538,-2.4388,-2.4311,-2.4173,-2.4036,-2.3998,-2.3979,-2.3947,-1.8721,-1.8077,-1.8034,-1.8121,-1.8294,-1.8977,-1.939,-1.9479,-1.9508,-1.9504,-1.9532,-1.964,-1.9673,-1.9698,-1.9692,-1.9698,-1.9719,-1.9794,-1.9835,-1.9881,-1.9953,-1.9986,-2.0001,-2.0006,-2.0031,-2.0046,-2.0092,-2.0111,-2.0116,-2.0156,-2.0146,-2.0098,-2.0074,-2.005,-2.0016,-2.0001,-2.0026,-2.0046,-2.0031,-2.0011,-2.0073,-2.0168,-2.0238,-2.0276,-2.0276,-2.026,-2.026,-2.026,-2.026,-2.0297,-2.032,-2.0324,-2.0304,-2.0304,-2.0311,-2.0324,-2.0328,-2.1272,-2.2449,-2.2997,-2.4005,-2.4977,-2.5369,-2.5561,-2.5585,-2.5611,-2.5622,-2.5658,-2.5664,-2.5683,-2.5683,-2.5702,-2.5702,-2.5701,-2.5701,-2.5703,-2.5703,-2.5703,-2.5699,-2.5696,-2.5694,-2.5692,-2.5664,-2.5626,-2.5613,-2.5601,-2.5561,-2.5534,-2.5504,-2.547,-2.5429,-2.5399,-2.5371,-2.5363,-2.5317,-2.5297,-2.5273,-2.5247,-2.5236,-2.522,-2.5204,-2.5145,-2.5122,-2.5136,-2.5075,-2.4968,-2.4874,-2.4741,-2.4604,-2.4466,-2.4391,-2.4293,-2.4248,-2.4211,-2.4115,-1.7756,-1.7227,-1.7162,-1.752,-1.8133,-1.8384,-1.8841,-1.9442,-1.9489,-1.9496,-1.9519,-1.9529,-1.9571,-1.9611,-1.9611,-1.9618,-1.962,-1.9693,-1.9731,-1.9757,-1.9806,-1.9853,-1.9892,-1.9892,-1.9944,-1.9976,-1.9982,-2.0016,-2.0,-2.0016,-2.0036,-2.0001,-2.0006,-1.9996,-1.9972,-1.9955,-1.9926,-1.9918,-1.9912,-1.9896,-1.9938,-2.0026,-2.0087,-2.0109,-2.0118,-2.0124,-2.0141,-2.0141,-2.02,-2.0257,-2.0283,-2.0276,-2.0276,-2.0276,-2.0283,-2.0297,-2.0304,-2.1292,-2.2283,-2.2819,-2.3843,-2.5151,-2.5462,-2.5476,-2.5489,-2.5514,-2.5549,-2.5607,-2.5633,-2.5672,-2.5676,-2.5683,-2.5703,-2.5703,-2.5703,-2.5703,-2.5703,-2.5703,-2.5701,-2.57,-2.5699,-2.5698,-2.5696,-2.567,-2.5665,-2.5655,-2.5618,-2.558,-2.5574,-2.5542,-2.549,-2.5486,-2.5467,-2.5394,-2.5317,-2.5322,-2.5308,-2.5283,-2.5262,-2.5257,-2.5247,-2.5206,-2.519,-2.5193,-2.5193,-2.514,-2.5031,-2.4908,-2.4806,-2.4697,-2.4654,-2.4594,-2.4512,-2.4383,-2.4238]},{"header":{"parameterUnit":"m.s-1","parameterCategory":1,"la1":31.0,"la2":29.5877,"lo1":-88.7671,"lo2":-86.6584,"dy":0.0162,"dx":0.0185,"nx":115,"ny":88,"refTime":"2023-07-24T18:00:00:Z","depth":0,"parameterNumber":3,"parameterNumberName":"V-component_of_WINDS"},"data":[0.0,0.0,0.0,0.0,0.0,0.0,0.0,0.0,0.0,0.0,0.0,0.0,0.0,0.0,0.0,0.0,0.0,0.0,0.0,0.0,0.0,0.0,0.0,0.0,0.0,0.0,0.0,0.0,0.0,0.0,0.0,0.0,0.0,0.0,0.0,0.0,0.0,0.0,0.0,0.0,0.0,0.0,0.0,0.0,0.0,0.0,0.0,0.0,0.0,0.0,0.0,0.0,0.0,0.0,0.0,0.0,0.0,0.0,0.0,0.0,0.0,0.0,0.0,0.0,0.0,0.0,0.0,0.0,0.0,0.0,0.0,0.0,0.0,0.0,0.0,0.0,0.0,0.0,0.0,0.0,0.0,0.0,0.0,0.0,0.0,0.0,0.0,0.0,0.0,0.0,0.0,0.0,0.0,0.0,0.0,0.0,0.0,0.0,0.0,0.0,0.0,0.0,0.0,0.0,0.0,0.0,0.0,0.0,0.0,0.0,0.0,0.0,0.0,0.0,0.0,0.0,0.0,0.0,0.0,0.0,0.0,0.0,0.0,0.0,0.0,0.0,0.0,0.0,0.0,0.0,0.0,0.0,0.0,0.0,0.0,0.0,0.0,0.0,0.0,0.0,0.0,0.0,0.0,0.0,0.0,0.0,0.0,0.0,0.0,0.0,0.0,0.0,0.0,0.0,0.0,0.0,0.0,0.0,0.0,0.0,0.0,0.0,0.0,0.0,0.0,0.0,0.0,0.0,0.0,0.0,0.0,0.0,0.0,0.0,0.0,0.0,0.0,0.0,0.0,0.0,0.0,0.0,0.0,0.0,0.0,0.0,0.0,0.0,0.0,0.0,0.0,0.0,0.0,0.0,0.0,0.0,0.0,0.0,0.0,0.0,0.0,0.0,0.0,0.0,0.0,0.0,0.0,0.0,0.0,0.0,0.0,0.0,0.0,0.0,0.0,0.0,0.0,0.0,0.0,0.0,0.0,0.0,0.0,0.0,0.0,0.0,0.0,0.0,0.0,0.0,0.0,0.0,0.0,0.0,0.0,0.0,0.0,0.0,0.0,0.0,0.0,0.0,0.0,0.0,0.0,0.0,0.0,0.0,0.0,0.0,0.0,0.0,0.0,0.0,0.0,0.0,0.0,0.0,0.0,0.0,0.0,0.0,0.0,0.0,0.0,0.0,0.0,0.0,0.0,0.0,0.0,0.0,0.0,0.0,0.0,0.0,0.0,0.0,0.0,0.0,0.0,0.0,0.0,0.0,0.0,0.0,0.0,0.0,0.0,0.0,0.0,0.0,0.0,0.0,0.0,0.0,0.0,0.0,0.0,0.0,0.0,0.0,0.0,0.0,0.0,0.0,0.0,0.0,0.0,0.0,0.0,0.0,0.0,0.0,0.0,0.0,0.0,0.0,0.0,0.0,0.0,0.0,0.0,0.0,0.0,0.0,0.0,0.0,0.0,0.0,0.0,0.0,0.0,0.0,0.0,0.0,0.0,0.0,0.0,0.0,0.0,0.0,0.0,0.0,0.0,0.0,0.0,0.0,0.0,0.0,0.0,0.0,0.0,0.0,0.0,0.0,0.0,0.0,0.0,0.0,0.0,0.0,0.0,0.0,0.0,0.0,0.0,0.0,0.0,0.0,0.0,0.0,0.0,0.0,0.0,0.0,0.0,0.0,0.0,0.0,0.0,0.0,0.0,0.0,0.0,0.0,0.0,0.0,0.0,0.0,0.0,0.0,0.0,0.0,0.0,0.0,0.0,0.0,0.0,0.0,0.0,0.0,0.0,0.0,0.0,0.0,0.0,0.0,0.0,0.0,0.0,0.0,0.0,0.0,0.0,0.0,0.0,0.0,0.0,0.0,0.0,0.0,0.0,0.0,0.0,0.0,0.0,0.0,0.0,0.0,0.0,0.0,0.0,0.0,0.0,0.0,0.0,0.0,0.0,0.0,0.0,0.0,0.0,0.0,0.0,0.0,0.0,0.0,0.0,0.0,0.0,0.0,0.0,0.0,0.0,0.0,0.0,0.0,0.0,0.0,0.0,0.0,0.0,0.0,0.0,0.0,0.0,0.0,0.0,0.0,0.0,0.0,0.0,0.0,0.0,0.0,0.0,0.0,0.0,0.0,0.0,0.0,0.0,0.0,0.0,0.0,0.0,0.0,0.0,0.0,0.0,0.0,0.0,0.0,0.0,0.0,0.0,0.0,0.0,0.0,0.0,0.0,0.0,0.0,0.0,0.0,0.0,0.0,0.0,0.0,0.0,0.0,0.0,0.0,0.0,0.0,0.0,0.0,0.0,0.0,0.0,0.0,0.0,0.0,0.0,0.0,0.0,0.0,0.0,0.0,0.0,0.0,0.0,0.0,0.0,0.0,0.0,0.0,0.0,0.0,0.0,0.0,0.0,0.0,0.0,0.0,0.0,0.0,0.0,0.0,0.0,0.0,0.0,0.0,0.0,0.0,0.0,0.0,0.0,0.0,0.0,0.0,0.0,0.0,0.0,0.0,0.0,0.0,0.0,0.0,0.0,0.0,0.0,0.0,0.0,0.0,0.0,0.0,0.0,0.0,0.0,0.0,0.0,0.0,0.0,0.0,0.0,0.0,0.0,0.0,0.0,0.0,0.0,0.0,0.0,0.0,0.0,0.0,0.0,0.0,0.0,0.0,0.0,0.0,0.0,0.0,0.0,0.0,0.0,0.0,0.0,0.0,0.0,0.0,0.0,0.0,0.0,0.0,0.0,0.0,0.0,0.0,0.0,0.0,0.0,0.0,0.0,0.0,0.0,0.0,0.0,0.0,0.0,0.0,0.0,0.0,0.0,0.0,0.0,0.0,0.0,0.0,0.0,0.0,0.0,0.0,0.0,0.0,0.0,0.0,0.0,0.0,0.0,0.0,0.0,0.0,0.0,0.0,0.0,0.0,0.0,0.0,0.0,0.0,0.0,0.0,0.0,0.0,0.0,0.0,0.0,0.0,0.0,0.0,0.0,0.0,0.0,0.0,0.0,0.0,0.0,0.0,0.0,0.0,0.0,0.0,0.0,0.0,0.0,0.0,0.0,0.0,0.0,0.0,0.0,0.0,0.0,0.0,0.0,0.0,0.0,0.0,0.0,0.0,0.0,0.0,0.0,0.0,0.0,0.0,0.0,0.0,0.0,0.0,0.0,0.0,0.0,0.0,0.0,0.0,0.0,0.0,0.0,0.0,0.0,0.0,0.0,0.0,0.0,0.0,0.0,0.0,0.0,0.0,0.0,0.0,0.0,0.0,0.0,0.0,0.0,0.0,0.0,0.0,0.0,0.0,0.0,0.0,0.0,0.0,0.0,0.0,0.0,0.0,0.0,0.0,0.0,0.0,0.0,0.0,0.0,0.0,0.0,0.0,0.0,0.0,0.0,0.0,0.0,0.0,0.0,0.0,0.0,0.0,0.0,0.0,0.0,0.0,0.0,0.0,0.0,0.0,0.0,0.0,0.0,0.0,0.0,0.0,0.0,0.0,0.0,0.0,0.0,0.0,0.0,0.0,0.0,0.0,0.0,0.0,0.0,0.0,0.0,0.0,0.0,0.0,0.0,0.0,0.0,0.0,0.0,0.0,0.0,0.0,0.0,0.0,0.0,0.0,0.0,0.0,0.0,0.0,0.0,0.0,0.0,0.0,0.0,0.0,0.0,0.0,0.0,0.0,0.0,0.0,0.0,0.0,0.0,0.0,0.0,0.0,0.0,0.0,0.0,0.0,0.0,0.0,0.0,0.0,0.0,0.0,0.0,0.0,0.0,0.0,0.0,0.0,0.0,0.0,0.0,0.0,0.0,0.0,0.0,0.0,0.0,0.0,0.0,0.0,0.0,0.0,0.0,0.0,0.0,0.0,0.0,0.0,0.0,0.0,0.0,0.0,0.0,0.0,0.0,0.0,0.0,0.0,0.0,0.0,0.0,0.0,0.0,0.0,0.0,0.0,0.0,0.0,0.0,0.0,0.0,0.0,0.0,0.0,0.0,0.0,0.0,0.0,0.0,0.0,0.0,0.0,0.0,0.0,0.0,0.0,0.0,0.0,0.0,0.0,0.0,0.0,0.0,0.0,0.0,0.0,0.0,0.0,0.0,0.0,0.0,0.0,0.0,0.0,0.0,0.0,0.0,0.0,0.0,0.0,0.0,0.0,0.0,0.0,0.0,0.0,0.0,0.0,0.0,0.0,0.0,0.0,0.0,0.0,0.0,0.0,0.0,0.0,0.0,0.0,0.0,0.0,0.0,0.0,0.0,0.0,0.0,0.0,-0.1467,0.0,0.0,0.0,0.0,0.0,0.0,0.0,0.0,0.0,0.0,0.0,0.0,0.0,0.0,0.0,0.0,0.0,0.0,0.0,0.0,0.0,0.0,0.0,0.0,0.0,0.0,0.0,0.0,0.0,0.0,0.0,0.0,0.0,0.0,0.0,0.0,0.0,0.0,0.0,0.0,0.0,0.0,0.0,0.0,0.0,0.0,0.0,0.0,0.0,0.0,0.0,0.0,0.0,0.0,0.0,0.0,0.0,0.0,0.0,0.0,0.0,0.0,0.0,0.0,0.0,0.0,0.0,0.0,0.0,0.0,0.0,0.0,0.0,0.0,0.0,0.0,0.0,0.0,0.0,0.0,0.0,0.0,0.0,0.0,0.0,0.0,0.0,0.0,0.0,0.0,0.0,0.0,0.0,0.0,0.0,0.0,0.0,0.0,0.0,0.0,0.0,0.0,0.0,0.0,0.0,0.0,0.0,0.0,0.0,0.0,-0.1674,-0.1683,-0.1843,-0.1922,-0.1872,0.0,0.0,0.0,0.0,0.0,0.0,0.0,0.0,0.0,0.0,0.0,0.0,0.0,0.0,0.0,0.0,0.0,0.0,0.0,0.0,0.0,0.0,0.0,0.0,0.0,0.0,0.0,0.0,0.0,0.0,0.0,0.0,0.0,0.0,0.0,0.0,0.0,0.0,0.0,0.0,0.0,0.0,0.0,0.0,0.0,0.0,0.0,0.0,0.0,0.0,0.0,0.0,0.0,0.0,0.0,0.0,0.0,0.0,0.0,0.0,0.0,0.0,0.0,0.0,0.0,0.0,0.0,0.0,0.0,0.0,0.0,0.0,0.0,0.0,0.0,0.0,0.0,0.0,0.0,0.0,0.0,0.0,0.0,0.0,0.0,0.0,0.0,0.0,0.0,0.0,0.0,0.0,0.0,0.0,0.0,0.0,0.0,0.0,0.0,0.0,0.0,0.0,0.0,0.0,0.0,0.0,0.0,0.0,0.0,0.0,0.0,0.0,-0.2409,-0.2558,-0.2675,0.0,0.0,0.0,0.0,0.0,0.0,0.0,0.0,0.0,0.0,0.0,0.0,0.0,0.0,0.0,0.0,0.0,0.0,0.0,0.0,0.0,0.0,0.0,0.0,0.0,0.0,0.0,0.0,0.0,0.0,0.0,0.0,0.0,0.0,0.0,0.0,0.0,0.0,0.0,0.0,0.0,0.0,0.0,0.0,0.0,0.0,0.0,0.0,0.0,0.0,0.0,0.0,0.0,0.0,0.0,0.0,0.0,0.0,0.0,0.0,0.0,0.0,0.0,0.0,0.0,0.0,0.0,0.0,0.0,0.0,0.0,0.0,0.0,0.0,0.0,0.0,0.0,0.0,0.0,0.0,0.0,0.0,0.0,0.0,0.0,0.0,0.0,0.0,0.0,0.0,0.0,0.0,0.0,0.0,0.0,0.0,0.0,0.0,0.0,0.0,0.0,0.0,0.0,0.0,0.0,0.0,0.0,0.0,0.0,0.0,-0.236,-0.2751,-0.3081,0.0,-0.4308,0.0,0.0,0.0,0.0,0.0,0.0,0.0,0.0,0.0,0.0,0.0,0.0,0.0,0.0,0.0,0.0,0.0,0.0,0.0,0.0,0.0,0.0,0.0,0.0,0.0,0.0,0.0,0.0,0.0,0.0,0.0,0.0,0.0,0.0,0.0,0.0,0.0,0.0,0.0,0.0,0.0,0.0,0.0,0.0,0.0,0.0,0.0,0.0,0.0,0.0,0.0,0.0,0.0,0.0,0.0,0.0,0.0,0.0,0.0,0.0,0.0,0.0,0.0,0.0,0.0,0.0,0.0,0.0,0.0,0.0,0.0,0.0,0.0,0.0,0.0,0.0,0.0,0.0,0.0,0.0,0.0,0.0,0.0,0.0,0.0,0.0,0.0,0.0,0.0,0.0,0.0,0.0,0.0,0.0,0.0,0.0,0.0,0.0,0.0,0.0,0.0,0.0,0.0,0.0,0.0,0.0,0.0,0.0,0.0,0.0,-0.3131,-0.3378,-0.3621,-0.4139,0.0,0.0,0.0,0.0,0.0,0.0,0.0,0.0,0.0,0.0,0.0,0.0,0.0,0.0,0.0,0.0,0.0,0.0,0.0,0.0,0.0,0.0,0.0,0.0,0.0,0.0,0.0,0.0,0.0,0.0,0.0,0.0,0.0,0.0,0.0,0.0,0.0,0.0,0.0,0.0,0.0,0.0,0.0,0.0,0.0,0.0,0.0,0.0,0.0,0.0,0.0,0.0,0.0,0.0,0.0,0.0,0.0,0.0,0.0,0.0,0.0,0.0,0.0,0.0,0.0,0.0,0.0,0.0,0.0,0.0,0.0,0.0,0.0,0.0,0.0,0.0,0.0,0.0,0.0,0.0,0.0,0.0,0.0,0.0,0.0,0.0,0.0,0.0,0.0,0.0,0.0,0.0,0.0,0.0,0.0,0.0,0.0,0.0,0.0,0.0,0.0,0.0,0.0,0.0,0.0,0.0,0.0,0.0,0.0,0.0,-0.3705,-0.391,-0.4132,-0.4146,-0.4558,-0.547,0.0,0.0,0.0,0.0,0.0,0.0,0.0,0.0,0.0,0.0,0.0,0.0,0.0,0.0,0.0,0.0,0.0,0.0,0.0,0.0,0.0,0.0,0.0,0.0,0.0,0.0,0.0,0.0,0.0,0.0,0.0,0.0,0.0,0.0,0.0,0.0,0.0,0.0,0.0,0.0,0.0,0.0,0.0,0.0,0.0,0.0,0.0,0.0,0.0,0.0,0.0,0.0,0.0,0.0,0.0,0.0,0.0,0.0,0.0,0.0,0.0,0.0,0.0,0.0,0.0,0.0,0.0,0.0,0.0,0.0,0.0,0.0,0.0,0.0,0.0,0.0,0.0,0.0,0.0,0.0,0.0,0.0,0.0,0.0,0.0,0.0,0.0,0.0,0.0,0.0,0.0,0.0,0.0,0.0,0.0,0.0,0.0,0.0,0.0,0.0,0.0,0.0,0.0,0.0,0.0,0.0,0.0,0.0,-0.4265,-0.4212,-0.4458,-0.5046,-0.4607,-0.4975,0.0,0.0,0.0,0.0,0.0,0.0,0.0,0.0,0.0,0.0,0.0,0.0,0.0,0.0,0.0,0.0,0.0,0.0,0.0,0.0,0.0,0.0,0.0,0.0,0.0,0.0,0.0,0.0,0.0,0.0,0.0,0.0,0.0,0.0,0.0,0.0,0.0,0.0,0.0,0.0,0.0,0.0,0.0,0.0,0.0,0.0,0.0,0.0,0.0,0.0,0.0,0.0,0.0,0.0,0.0,0.0,0.0,0.0,0.0,0.0,0.0,0.0,0.0,0.0,0.0,0.0,0.0,0.0,0.0,0.0,0.0,0.0,0.0,0.0,0.0,0.0,0.0,0.0,0.0,0.0,0.0,0.0,0.0,0.0,0.0,0.0,0.0,0.0,0.0,0.0,0.0,0.0,0.0,0.0,0.0,0.0,0.0,0.0,0.0,0.0,0.0,0.0,0.0,0.0,0.0,0.0,0.0,0.0,0.0,-0.3798,-0.4112,-0.5005,-0.6388,-0.5644,-0.6113,0.0,0.0,0.0,0.0,0.0,0.0,0.0,0.0,0.0,0.0,0.0,0.0,0.0,0.0,0.0,0.0,0.0,0.0,0.0,0.0,0.0,0.0,0.0,0.0,0.0,0.0,0.0,0.0,0.0,0.0,0.0,0.0,0.0,0.0,0.0,0.0,0.0,0.0,0.0,0.0,0.0,0.0,0.0,0.0,0.0,0.0,0.0,0.0,0.0,0.0,0.0,0.0,0.0,0.0,0.0,0.0,0.0,0.0,0.0,0.0,0.0,0.0,0.0,0.0,0.0,0.0,0.0,0.0,0.0,0.0,0.0,0.0,0.0,0.0,0.0,0.0,0.0,0.0,0.0,0.0,0.0,0.0,0.0,0.0,0.0,0.0,0.0,0.0,0.0,0.0,0.0,0.0,0.0,0.0,0.0,0.0,0.0,0.0,0.0,0.0,0.0,0.0,0.0,0.0,0.0,0.0,0.0,0.0,0.0,-0.4133,0.0,-0.5461,-0.6706,-0.6207,-0.6617,0.0,0.0,0.0,0.0,0.0,0.0,0.0,0.0,0.0,0.0,0.0,0.0,0.0,0.0,0.0,0.0,0.0,0.0,0.0,0.0,0.0,0.0,0.0,0.0,0.0,0.0,0.0,0.0,0.0,0.0,0.0,0.0,0.0,0.0,0.0,0.0,0.0,0.0,0.0,0.0,0.0,0.0,0.0,0.0,0.0,0.0,0.0,0.0,0.0,0.0,0.0,0.0,0.0,0.0,0.0,0.0,0.0,0.0,0.0,0.0,0.0,0.0,0.0,0.0,0.0,0.0,0.0,0.0,0.0,0.0,0.0,0.0,0.0,0.0,0.0,0.0,0.0,0.0,0.0,0.0,0.0,0.0,0.0,0.0,0.0,0.0,0.0,0.0,0.0,0.0,0.0,0.0,0.0,0.0,0.0,0.0,0.0,0.0,0.0,0.0,0.0,0.0,0.0,0.0,0.0,0.0,0.0,0.0,-0.4175,-0.5398,-0.5804,-0.6011,-0.5802,-0.629,-0.6465,0.0,0.0,0.0,0.0,0.0,0.0,0.0,0.0,0.0,0.0,0.0,0.0,0.0,0.0,0.0,0.0,0.0,0.0,0.0,0.0,0.0,0.0,0.0,0.0,0.0,0.0,0.0,0.0,0.0,0.0,0.0,0.0,0.0,0.0,0.0,0.0,0.0,0.0,0.0,0.0,0.0,0.0,0.0,0.0,0.0,0.0,0.0,0.0,0.0,0.0,0.0,0.0,0.0,0.0,0.0,0.0,0.0,0.0,0.0,0.0,0.0,0.0,0.0,0.0,0.0,0.0,0.0,0.0,0.0,0.0,0.0,0.0,0.0,0.0,0.0,0.0,0.0,0.0,0.0,0.0,0.0,0.0,0.0,0.0,0.0,0.0,0.0,0.0,0.0,0.0,0.0,0.0,0.0,0.0,0.0,0.0,0.0,0.0,0.0,0.0,0.0,0.0,0.0,0.0,0.0,0.0,0.0,0.0,0.0,-0.5002,-0.6126,-0.7453,-0.8784,-0.8209,-0.8689,0.0,0.0,0.0,0.0,0.0,0.0,0.0,0.0,0.0,0.0,0.0,0.0,0.0,0.0,0.0,0.0,0.0,0.0,0.0,0.0,0.0,0.0,0.0,0.0,0.0,0.0,0.0,0.0,0.0,0.0,0.0,0.0,0.0,0.0,0.0,0.0,0.0,0.0,0.0,0.0,0.0,0.0,0.0,0.0,0.0,0.0,0.0,0.0,0.0,0.0,0.0,0.0,0.0,0.0,0.0,0.0,0.0,0.0,0.0,0.0,0.0,0.0,0.0,0.0,0.0,0.0,0.0,0.0,0.0,0.0,0.0,0.0,0.0,0.0,0.0,0.0,0.0,0.0,0.0,0.0,0.0,0.0,0.0,0.0,0.0,0.0,0.0,0.0,0.0,0.0,0.0,0.0,0.0,0.0,0.0,0.0,0.0,0.0,0.0,0.0,0.0,0.0,0.0,0.0,0.0,0.0,0.0,0.0,0.0,-0.6636,-0.7836,-0.904,-1.0131,-0.951,-0.9696,-1.0892,0.0,0.0,0.0,0.0,0.0,0.0,0.0,0.0,0.0,0.0,0.0,0.0,0.0,0.0,0.0,0.0,0.0,0.0,0.0,0.0,0.0,0.0,0.0,0.0,0.0,0.0,0.0,0.0,0.0,0.0,0.0,0.0,0.0,0.0,0.0,0.0,0.0,0.0,0.0,0.0,0.0,0.0,0.0,0.0,0.0,0.0,0.0,0.0,0.0,0.0,0.0,0.0,0.0,0.0,0.0,0.0,0.0,0.0,0.0,0.0,0.0,0.0,0.0,0.0,0.0,0.0,0.0,0.0,0.0,0.0,0.0,0.0,0.0,0.0,0.0,0.0,0.0,0.0,0.0,0.0,0.0,0.0,0.0,0.0,0.0,0.0,0.0,0.0,0.0,0.0,0.0,0.0,0.0,0.0,0.0,0.0,0.0,0.0,0.0,0.0,0.0,0.0,0.0,0.0,0.0,0.0,0.0,0.0,-0.977,-1.0746,-1.0947,-1.0171,-1.0274,-0.9895,0.0,0.0,0.0,0.0,0.0,0.0,0.0,0.0,0.0,0.0,0.0,0.0,0.0,0.0,0.0,0.0,0.0,0.0,0.0,0.0,0.0,0.0,0.0,0.0,0.0,0.0,0.0,0.0,0.0,0.0,0.0,0.0,0.0,0.0,0.0,0.0,0.0,0.0,0.0,0.0,0.0,0.0,0.0,0.0,0.0,0.0,0.0,0.0,0.0,0.0,0.0,0.0,0.0,0.0,0.0,0.0,0.0,0.0,0.0,0.0,0.0,0.0,0.0,0.0,0.0,0.0,0.0,0.0,0.0,0.0,0.0,0.0,0.0,0.0,0.0,0.0,0.0,0.0,0.0,0.0,0.0,0.0,0.0,0.0,0.0,0.0,0.0,0.0,0.0,0.0,0.0,0.0,0.0,0.0,0.0,0.0,0.0,0.0,0.0,0.0,0.0,0.0,0.0,0.0,0.0,0.0,0.0,0.0,0.0,-1.1683,-1.3559,-1.3989,-1.2896,-1.2246,-1.1882,0.0,0.0,0.0,0.0,0.0,0.0,0.0,0.0,0.0,0.0,0.0,0.0,0.0,0.0,0.0,0.0,0.0,0.0,0.0,0.0,0.0,0.0,0.0,0.0,0.0,0.0,0.0,0.0,0.0,0.0,0.0,0.0,0.0,0.0,0.0,0.0,0.0,0.0,0.0,0.0,0.0,0.0,0.0,0.0,0.0,0.0,0.0,0.0,0.0,0.0,0.0,0.0,0.0,0.0,0.0,0.0,0.0,0.0,0.0,0.0,0.0,0.0,0.0,0.0,0.0,0.0,0.0,0.0,0.0,0.0,0.0,0.0,0.0,0.0,0.0,0.0,0.0,0.0,0.0,0.0,0.0,0.0,0.0,0.0,0.0,0.0,0.0,0.0,0.0,0.0,0.0,0.0,0.0,0.0,0.0,0.0,0.0,0.0,0.0,0.0,0.0,0.0,0.0,0.0,0.0,0.0,0.0,0.0,-1.1973,-1.3455,-1.5462,-1.6068,-1.5234,-1.4224,-1.331,0.0,0.0,0.0,0.0,0.0,0.0,0.0,0.0,0.0,0.0,0.0,0.0,0.0,0.0,0.0,0.0,0.0,0.0,0.0,0.0,0.0,0.0,0.0,0.0,0.0,0.0,0.0,0.0,0.0,0.0,0.0,0.0,0.0,0.0,0.0,0.0,0.0,0.0,0.0,0.0,0.0,0.0,0.0,0.0,0.0,0.0,0.0,0.0,0.0,0.0,0.0,0.0,0.0,0.0,0.0,0.0,0.0,0.0,0.0,0.0,0.0,0.0,0.0,0.0,0.0,0.0,0.0,0.0,0.0,0.0,0.0,0.0,0.0,0.0,0.0,0.0,0.0,0.0,0.0,0.0,0.0,0.0,0.0,0.0,0.0,0.0,0.0,0.0,0.0,0.0,0.0,0.0,0.0,0.0,0.0,0.0,0.0,0.0,0.0,0.0,0.0,0.0,0.0,0.0,0.0,0.0,0.0,0.0,-1.3333,-1.4998,-1.6658,-1.7315,-1.7009,-1.5987,-1.4365,0.0,0.0,0.0,0.0,0.0,0.0,0.0,0.0,0.0,0.0,0.0,0.0,0.0,0.0,0.0,0.0,0.0,0.0,0.0,0.0,0.0,0.0,0.0,0.0,0.0,0.0,0.0,0.0,0.0,0.0,0.0,0.0,0.0,0.0,0.0,0.0,0.0,0.0,0.0,0.0,0.0,0.0,0.0,0.0,0.0,0.0,0.0,0.0,0.0,0.0,0.0,0.0,0.0,0.0,0.0,0.0,0.0,0.0,0.0,0.0,0.0,0.0,0.0,0.0,0.0,0.0,0.0,0.0,0.0,0.0,0.0,0.0,0.0,0.0,0.0,0.0,0.0,0.0,0.0,0.0,0.0,0.0,0.0,0.0,0.0,0.0,0.0,0.0,0.0,0.0,0.0,0.0,0.0,0.0,0.0,0.0,0.0,0.0,0.0,0.0,0.0,0.0,0.0,0.0,0.0,0.0,0.0,0.0,-1.3443,-1.5451,-1.6568,-1.7256,-1.7361,-1.6144,-1.4677,0.0,0.0,0.0,0.0,0.0,0.0,0.0,0.0,0.0,0.0,0.0,0.0,0.0,0.0,0.0,0.0,0.0,0.0,0.0,0.0,0.0,0.0,0.0,0.0,0.0,0.0,0.0,0.0,0.0,0.0,0.0,0.0,0.0,0.0,0.0,0.0,0.0,0.0,0.0,0.0,0.0,0.0,0.0,0.0,0.0,0.0,0.0,0.0,-0.8964,0.0,0.0,0.0,0.0,0.0,0.0,0.0,0.0,0.0,0.0,0.0,0.0,0.0,0.0,0.0,0.0,0.0,0.0,0.0,0.0,0.0,0.0,0.0,0.0,0.0,0.0,0.0,0.0,0.0,0.0,0.0,0.0,0.0,0.0,0.0,0.0,0.0,0.0,0.0,0.0,0.0,0.0,0.0,0.0,0.0,0.0,0.0,0.0,0.0,0.0,0.0,0.0,0.0,0.0,0.0,0.0,0.0,0.0,0.0,-1.4054,-1.5719,-1.6779,-1.7259,-1.7105,-1.6308,-1.501,0.0,0.0,0.0,0.0,0.0,0.0,0.0,0.0,0.0,0.0,0.0,0.0,0.0,0.0,0.0,0.0,0.0,0.0,0.0,0.0,0.0,0.0,0.0,0.0,0.0,0.0,0.0,0.0,0.0,0.0,0.0,0.0,0.0,0.0,0.0,0.0,0.0,0.0,0.0,0.0,0.0,0.0,0.0,0.0,0.0,0.0,0.0,0.0,0.0,0.0,0.0,0.0,0.0,0.0,0.0,0.0,0.0,0.0,0.0,0.0,0.0,0.0,0.0,0.0,0.0,0.0,0.0,0.0,0.0,0.0,0.0,0.0,0.0,0.0,0.0,0.0,0.0,0.0,0.0,0.0,0.0,0.0,0.0,0.0,0.0,0.0,0.0,0.0,0.0,0.0,0.0,0.0,0.0,0.0,0.0,0.0,0.0,0.0,0.0,0.0,0.0,0.0,0.0,0.0,0.0,0.0,0.0,-1.3333,-1.4566,-1.5926,-1.6882,-1.7147,-1.6712,-1.6404,-1.5264,-1.3218,0.0,0.0,0.0,0.0,0.0,0.0,0.0,0.0,0.0,0.0,0.0,0.0,0.0,0.0,0.0,0.0,0.0,0.0,0.0,0.0,0.0,0.0,0.0,0.0,0.0,0.0,0.0,0.0,0.0,0.0,0.0,0.0,0.0,0.0,0.0,0.0,0.0,0.0,-0.7169,-0.7419,0.0,0.0,0.0,0.0,0.0,0.0,0.0,0.0,-0.949,0.0,0.0,0.0,0.0,0.0,0.0,0.0,0.0,0.0,0.0,0.0,0.0,0.0,0.0,0.0,0.0,0.0,0.0,0.0,0.0,0.0,0.0,0.0,0.0,0.0,0.0,0.0,0.0,0.0,0.0,0.0,0.0,0.0,0.0,0.0,0.0,0.0,0.0,0.0,0.0,0.0,0.0,0.0,0.0,0.0,0.0,0.0,0.0,0.0,0.0,0.0,0.0,0.0,0.0,0.0,0.0,-1.3205,-1.3297,-1.426,-1.6175,-1.664,-1.6785,-1.6688,-1.6217,-1.5115,-1.3452,0.0,0.0,0.0,0.0,0.0,0.0,0.0,0.0,0.0,0.0,0.0,0.0,0.0,0.0,0.0,0.0,0.0,0.0,0.0,0.0,0.0,0.0,0.0,0.0,0.0,0.0,0.0,0.0,0.0,0.0,0.0,0.0,0.0,0.0,0.0,0.0,0.0,0.0,0.0,-0.8702,-0.8937,0.0,0.0,0.0,0.0,0.0,0.0,0.0,0.0,-0.986,0.0,0.0,0.0,0.0,0.0,0.0,0.0,0.0,0.0,0.0,0.0,0.0,0.0,0.0,0.0,0.0,0.0,0.0,0.0,0.0,0.0,0.0,0.0,0.0,0.0,0.0,0.0,0.0,0.0,0.0,0.0,0.0,0.0,0.0,0.0,0.0,0.0,0.0,0.0,0.0,0.0,0.0,0.0,0.0,0.0,0.0,0.0,0.0,0.0,0.0,0.0,0.0,0.0,0.0,0.0,-1.2972,-1.3516,-1.452,-1.6024,-1.6344,-1.6416,-1.6266,-1.5493,-1.4431,0.0,0.0,0.0,0.0,0.0,0.0,0.0,0.0,0.0,0.0,0.0,0.0,0.0,0.0,0.0,0.0,0.0,0.0,0.0,0.0,0.0,0.0,0.0,0.0,0.0,0.0,0.0,0.0,0.0,0.0,0.0,0.0,0.0,0.0,0.0,0.0,0.0,0.0,0.0,0.0,-0.9228,-0.9569,-0.9868,0.0,0.0,0.0,0.0,0.0,0.0,-1.0343,-1.0396,0.0,0.0,0.0,0.0,0.0,0.0,0.0,0.0,0.0,0.0,0.0,0.0,0.0,0.0,0.0,0.0,0.0,0.0,0.0,0.0,0.0,0.0,0.0,0.0,0.0,0.0,0.0,0.0,0.0,0.0,0.0,0.0,0.0,0.0,0.0,0.0,0.0,0.0,0.0,0.0,0.0,0.0,0.0,0.0,0.0,0.0,0.0,0.0,0.0,0.0,0.0,0.0,0.0,0.0,0.0,-1.2687,-1.3598,-1.466,-1.5831,-1.6097,-1.6103,-1.5879,-1.4914,-1.3904,0.0,0.0,0.0,0.0,0.0,0.0,0.0,0.0,0.0,0.0,0.0,0.0,0.0,0.0,0.0,0.0,0.0,0.0,0.0,0.0,0.0,0.0,0.0,0.0,0.0,0.0,0.0,0.0,0.0,0.0,0.0,0.0,0.0,0.0,0.0,0.0,0.0,0.0,0.0,0.0,0.0,-1.0401,-1.0302,-1.0483,0.0,0.0,0.0,0.0,-1.1837,-1.17,0.0,0.0,0.0,0.0,0.0,0.0,0.0,0.0,0.0,0.0,0.0,0.0,0.0,0.0,0.0,0.0,0.0,0.0,0.0,0.0,0.0,0.0,0.0,0.0,0.0,0.0,0.0,0.0,0.0,0.0,0.0,0.0,0.0,0.0,0.0,0.0,0.0,0.0,0.0,0.0,0.0,0.0,0.0,0.0,0.0,0.0,0.0,0.0,0.0,0.0,0.0,0.0,0.0,0.0,0.0,0.0,-1.2638,-1.3067,-1.4111,-1.5789,-1.5922,-1.5922,-1.5879,-1.5095,-1.4198,0.0,0.0,0.0,0.0,0.0,0.0,0.0,0.0,0.0,0.0,0.0,0.0,0.0,0.0,0.0,0.0,0.0,0.0,0.0,0.0,0.0,0.0,0.0,0.0,0.0,0.0,0.0,0.0,0.0,0.0,0.0,0.0,0.0,0.0,0.0,0.0,0.0,0.0,0.0,0.0,0.0,-1.2135,-1.1644,-1.2527,-1.3207,0.0,0.0,-1.405,-1.4417,-1.5168,0.0,0.0,0.0,0.0,0.0,0.0,0.0,0.0,0.0,0.0,0.0,0.0,0.0,0.0,0.0,0.0,0.0,0.0,0.0,0.0,0.0,0.0,0.0,0.0,0.0,0.0,0.0,0.0,0.0,0.0,0.0,0.0,0.0,0.0,0.0,0.0,0.0,0.0,0.0,0.0,0.0,0.0,0.0,0.0,0.0,0.0,0.0,0.0,0.0,0.0,0.0,0.0,0.0,0.0,0.0,-1.1292,-1.2668,-1.3417,-1.4473,-1.5825,-1.5885,-1.5819,-1.5668,-1.431,-1.3325,0.0,0.0,0.0,0.0,0.0,0.0,0.0,0.0,0.0,0.0,0.0,0.0,0.0,0.0,0.0,0.0,0.0,0.0,0.0,0.0,0.0,0.0,0.0,0.0,0.0,0.0,0.0,0.0,0.0,0.0,0.0,0.0,0.0,0.0,0.0,0.0,0.0,0.0,0.0,0.0,0.0,0.0,-1.3146,-1.3783,0.0,0.0,0.0,-1.5479,-1.5776,0.0,0.0,0.0,0.0,0.0,0.0,0.0,0.0,0.0,0.0,0.0,0.0,0.0,0.0,0.0,0.0,0.0,0.0,0.0,0.0,0.0,0.0,0.0,0.0,0.0,0.0,0.0,0.0,0.0,0.0,0.0,0.0,0.0,0.0,0.0,0.0,0.0,0.0,0.0,0.0,0.0,0.0,0.0,0.0,0.0,0.0,0.0,0.0,0.0,0.0,0.0,0.0,0.0,0.0,0.0,0.0,0.0,-1.2596,-1.3592,-1.4618,-1.565,-1.5818,-1.5737,-1.5384,-1.3814,0.0,0.0,0.0,0.0,0.0,0.0,0.0,0.0,0.0,0.0,0.0,0.0,0.0,0.0,0.0,0.0,0.0,0.0,0.0,0.0,0.0,0.0,0.0,0.0,0.0,0.0,0.0,-0.7744,0.0,0.0,0.0,0.0,0.0,0.0,0.0,0.0,0.0,0.0,0.0,0.0,0.0,0.0,-1.3496,-1.4706,-1.5433,-1.6075,0.0,0.0,-1.7118,-1.718,-1.6843,-1.6395,0.0,0.0,0.0,0.0,0.0,0.0,0.0,0.0,0.0,0.0,0.0,0.0,0.0,0.0,0.0,0.0,0.0,0.0,0.0,0.0,0.0,0.0,0.0,0.0,0.0,0.0,0.0,0.0,0.0,0.0,0.0,0.0,0.0,0.0,0.0,0.0,0.0,0.0,0.0,0.0,0.0,0.0,0.0,0.0,0.0,0.0,0.0,0.0,0.0,0.0,0.0,0.0,0.0,0.0,0.0,-1.2312,-1.3151,-1.4093,-1.5119,-1.5609,-1.5641,-1.5041,-1.4162,-1.344,0.0,0.0,0.0,0.0,0.0,0.0,0.0,0.0,0.0,0.0,0.0,0.0,0.0,0.0,0.0,0.0,0.0,0.0,0.0,0.0,0.0,0.0,0.0,0.0,0.0,0.0,0.0,0.0,0.0,0.0,0.0,0.0,0.0,0.0,0.0,0.0,0.0,0.0,0.0,0.0,0.0,-1.5425,-1.6349,-1.7976,-1.9211,0.0,0.0,-1.9781,-1.9127,-1.9843,-1.9579,-1.6819,0.0,0.0,0.0,0.0,0.0,0.0,0.0,0.0,0.0,0.0,0.0,0.0,0.0,0.0,0.0,0.0,0.0,0.0,0.0,0.0,0.0,0.0,0.0,0.0,0.0,0.0,0.0,0.0,0.0,0.0,0.0,0.0,0.0,0.0,0.0,0.0,0.0,0.0,0.0,0.0,0.0,0.0,0.0,0.0,0.0,0.0,0.0,0.0,0.0,0.0,0.0,0.0,0.0,-1.111,-1.2259,-1.3103,-1.4074,-1.5293,-1.5337,-1.5227,-1.4988,-1.3674,-1.2853,0.0,0.0,0.0,0.0,0.0,0.0,0.0,0.0,0.0,0.0,0.0,0.0,0.0,0.0,0.0,0.0,0.0,0.0,0.0,0.0,0.0,0.0,0.0,0.0,0.0,0.0,0.0,0.0,-1.0354,-1.0674,-1.1073,0.0,0.0,0.0,0.0,0.0,0.0,0.0,0.0,0.0,0.0,-1.624,-1.7629,-1.8591,0.0,0.0,-2.0354,-2.0121,-1.9607,-1.9487,-1.8793,-1.667,-1.5694,0.0,0.0,0.0,0.0,0.0,0.0,0.0,0.0,0.0,0.0,0.0,0.0,0.0,0.0,0.0,0.0,0.0,0.0,0.0,0.0,0.0,0.0,0.0,0.0,0.0,0.0,0.0,0.0,0.0,0.0,0.0,0.0,0.0,0.0,0.0,0.0,0.0,0.0,0.0,0.0,0.0,0.0,0.0,0.0,0.0,0.0,0.0,0.0,0.0,0.0,0.0,0.0,-1.1092,-1.2186,-1.3069,-1.4096,-1.5233,-1.5245,-1.5128,-1.4856,-1.3521,-1.2673,0.0,0.0,0.0,0.0,0.0,0.0,0.0,0.0,0.0,0.0,0.0,0.0,0.0,0.0,0.0,0.0,0.0,0.0,0.0,0.0,0.0,0.0,0.0,0.0,0.0,0.0,0.0,0.0,-1.1219,-1.1568,-1.2251,0.0,0.0,0.0,0.0,0.0,0.0,0.0,0.0,0.0,0.0,-1.6899,-1.8537,-1.9014,-1.9477,-2.0417,-2.0309,-1.9958,-1.947,-1.8939,-1.804,-1.643,0.0,0.0,0.0,0.0,0.0,0.0,0.0,0.0,0.0,0.0,0.0,0.0,0.0,0.0,0.0,0.0,0.0,0.0,0.0,0.0,0.0,0.0,0.0,0.0,0.0,0.0,0.0,0.0,0.0,0.0,0.0,0.0,0.0,0.0,0.0,0.0,0.0,0.0,0.0,0.0,0.0,0.0,0.0,0.0,0.0,0.0,0.0,0.0,0.0,0.0,0.0,0.0,0.0,0.0,-1.192,-1.2966,-1.3915,-1.4736,-1.5447,-1.5478,-1.4637,-1.3932,-1.3174,-1.2318,0.0,0.0,0.0,0.0,0.0,0.0,0.0,0.0,0.0,0.0,0.0,0.0,0.0,0.0,0.0,0.0,0.0,0.0,0.0,0.0,0.0,0.0,0.0,0.0,0.0,0.0,-1.1447,-1.1805,-1.2379,0.0,0.0,0.0,0.0,0.0,0.0,0.0,0.0,0.0,0.0,-1.5918,-1.7502,-1.8939,-1.9443,-1.9657,-1.9717,-1.9708,-1.9487,-1.8742,-1.8596,-1.7954,0.0,0.0,0.0,0.0,0.0,0.0,0.0,0.0,0.0,0.0,0.0,0.0,0.0,0.0,0.0,0.0,0.0,0.0,0.0,0.0,0.0,0.0,0.0,0.0,0.0,0.0,0.0,-0.5129,-0.5124,0.0,0.0,0.0,0.0,0.0,0.0,0.0,0.0,0.0,0.0,0.0,-0.948,-0.979,0.0,0.0,0.0,0.0,0.0,0.0,0.0,0.0,0.0,0.0,0.0,0.0,-1.0731,-1.1648,-1.2696,-1.3717,-1.4652,-1.4888,-1.4989,-1.486,-1.3714,-1.2538,-1.1463,0.0,0.0,0.0,0.0,0.0,0.0,0.0,0.0,0.0,0.0,0.0,0.0,0.0,0.0,0.0,0.0,0.0,0.0,0.0,0.0,0.0,0.0,0.0,0.0,0.0,-1.2112,0.0,0.0,0.0,0.0,0.0,0.0,0.0,0.0,0.0,0.0,0.0,-1.4742,-1.5596,-1.6636,-1.7494,-1.7989,-1.8365,-1.8649,0.0,0.0,0.0,0.0,0.0,0.0,0.0,0.0,0.0,0.0,0.0,0.0,0.0,0.0,-1.9656,-1.7277,-1.6708,-1.6456,-1.5953,0.0,0.0,0.0,0.0,0.0,0.0,0.0,0.0,0.0,0.0,0.0,0.0,0.0,0.0,0.0,0.0,-0.5146,0.0,0.0,0.0,0.0,0.0,0.0,0.0,0.0,-0.8398,-0.9215,-0.9979,-1.0325,-1.0858,0.0,-1.1318,-1.0737,0.0,0.0,0.0,0.0,0.0,0.0,0.0,0.0,-1.0852,-1.1528,-1.2643,-1.3623,-1.4493,-1.4689,-1.4776,-1.479,-1.3514,-1.2281,-1.1182,-1.0894,-1.0693,0.0,0.0,0.0,0.0,0.0,0.0,0.0,0.0,0.0,0.0,0.0,0.0,0.0,0.0,0.0,0.0,0.0,0.0,0.0,0.0,0.0,0.0,0.0,-1.3009,0.0,0.0,0.0,0.0,0.0,0.0,0.0,0.0,0.0,-1.4838,-1.53,-1.5838,-1.6627,-1.7158,-1.76,-1.7857,0.0,0.0,0.0,0.0,0.0,0.0,0.0,-1.7697,-1.6762,-1.7151,-1.7702,-1.8058,-1.9569,-2.0852,-2.1151,0.0,0.0,-1.8922,-1.8296,-1.8052,-1.7514,-1.794,-1.8445,-1.8611,-1.9186,-1.9746,0.0,0.0,0.0,0.0,0.0,0.0,0.0,0.0,-0.5219,-0.5341,0.0,-0.5295,0.0,0.0,0.0,0.0,0.0,0.0,0.0,0.0,-0.9326,-1.0221,-1.0621,-1.1514,-1.1864,-1.1722,-1.2081,-1.1896,-1.1099,-1.0081,0.0,0.0,0.0,0.0,0.0,0.0,-1.1169,-1.1477,-1.276,-1.3659,-1.4167,-1.4699,-1.4776,-1.4436,-1.3353,-1.2342,-1.1435,-1.1122,-1.0848,-1.0606,-1.0579,0.0,0.0,0.0,0.0,0.0,0.0,0.0,0.0,0.0,0.0,0.0,0.0,0.0,0.0,0.0,0.0,0.0,0.0,0.0,0.0,-1.31,0.0,0.0,0.0,0.0,0.0,0.0,0.0,0.0,0.0,0.0,-1.5257,-1.5855,-1.659,-1.7394,0.0,0.0,0.0,0.0,-1.7746,-1.8475,-1.8263,-1.8119,-1.8485,-1.8254,-1.7863,-1.7316,0.0,0.0,-1.956,-2.0826,-2.1749,-2.191,-2.2399,-2.2536,-2.194,-2.1325,-2.0943,-2.0419,-1.9984,-1.993,-2.0274,-2.0049,-1.993,-0.6162,0.0,0.0,0.0,0.0,-0.5521,-0.5624,-0.5695,-0.5695,-0.5643,-0.5497,-0.5385,0.0,0.0,0.0,0.0,0.0,0.0,-0.7634,-0.872,-0.9504,-1.0484,-1.1587,-1.1834,-1.2265,-1.2923,-1.2704,-1.2282,-1.1651,-1.1158,-1.0689,-1.0226,0.0,0.0,0.0,0.0,-1.0925,-1.1268,-1.266,-1.3468,-1.3627,-1.4114,-1.403,-1.3273,-1.2556,-1.1904,-1.1402,-1.0942,-1.0673,-1.0593,-1.0361,0.0,0.0,0.0,0.0,0.0,0.0,0.0,0.0,0.0,0.0,0.0,0.0,0.0,0.0,0.0,0.0,0.0,0.0,0.0,-1.313,-1.3381,-1.348,0.0,0.0,0.0,0.0,0.0,0.0,0.0,0.0,0.0,-1.5961,-1.6447,-1.6935,0.0,0.0,-1.715,-1.7364,-1.7209,-1.7244,-1.7754,0.0,0.0,0.0,-1.8178,-1.8281,-1.821,-1.9627,-2.1186,-2.2275,-2.301,-2.3332,-2.3017,-2.3086,-2.2926,-2.2089,-2.1791,-2.1514,-2.1066,-2.0856,-2.081,-2.0937,-2.0856,-2.0715,-0.6632,-0.6236,-0.5983,-0.579,-0.5626,-0.5669,-0.5729,-0.5833,-0.5836,-0.5761,-0.5707,-0.5586,-0.5368,-0.5071,-0.5131,0.0,0.0,0.0,-0.7576,-0.8729,-0.9499,-1.0624,-1.1925,-1.2264,-1.2672,-1.3137,-1.2759,-1.233,-1.1914,-1.1621,-1.1333,-1.099,0.0,0.0,-1.0059,-1.0635,-1.1015,-1.1249,-1.2512,-1.3191,-1.3191,-1.3569,-1.3367,-1.2636,-1.2225,-1.1797,-1.1242,-1.0948,-1.0707,-1.06,-1.0388,-1.0405,0.0,0.0,0.0,0.0,0.0,0.0,0.0,0.0,0.0,0.0,0.0,-1.0072,0.0,0.0,0.0,0.0,-1.2351,-1.2948,-1.31,-1.3351,0.0,0.0,0.0,0.0,0.0,0.0,0.0,-1.4665,-1.5103,-1.5566,-1.6115,-1.6584,-1.7055,-1.7454,-1.715,-1.6978,-1.7239,0.0,-1.7085,-1.764,-1.7692,-1.7717,-1.7873,-1.7965,-1.8199,-1.8647,-2.0401,-2.1887,-2.2622,-2.3237,-2.3465,-2.3236,-2.3144,-2.2846,-2.2043,-2.1906,-2.1766,-2.1305,-2.1201,-2.1259,-2.1443,-2.121,-2.0927,-0.6923,-0.6766,-0.6328,-0.5945,-0.5597,-0.5696,-0.5748,-0.579,-0.5748,-0.5896,-0.6051,-0.5799,-0.5626,-0.5523,-0.5794,0.0,0.0,-0.6502,-0.7256,-0.838,-0.9522,-1.0755,-1.2021,-1.2752,-1.2976,-1.2705,-1.2439,-1.218,-1.188,-1.1639,-1.1513,-1.1471,-1.0918,-1.0501,-1.0312,-1.094,-1.1306,-1.1331,-1.235,-1.2916,-1.2896,-1.3008,-1.2832,-1.2278,-1.2225,-1.181,-1.1042,-1.0969,-1.0868,-1.0606,-1.0573,-1.0573,-1.0586,0.0,0.0,0.0,0.0,0.0,0.0,0.0,0.0,0.0,0.0,0.0,0.0,0.0,0.0,0.0,-1.2787,0.0,-1.2634,-1.3139,0.0,0.0,0.0,-1.3673,-1.4101,-1.4468,-1.4658,-1.4751,0.0,0.0,0.0,0.0,-1.6991,-1.7325,-1.7111,-1.708,-1.77,-1.7242,-1.7156,-1.7831,-1.7544,-1.7456,-1.8035,-1.801,-1.8249,-1.9035,-2.0398,-2.1474,-2.1565,-2.2082,-2.2525,-2.2432,-2.249,-2.2306,-2.1835,-2.1619,-2.1606,-2.1109,-2.1086,-2.1259,-2.1548,-2.1057,-2.0649,-0.7046,-0.6793,-0.6679,-0.6425,-0.6182,-0.6209,-0.622,-0.622,-0.622,-0.6149,-0.5942,-0.5888,-0.5786,-0.5664,-0.5892,-0.6165,-0.6522,-0.6721,-0.7886,-0.9763,-1.0091,-1.1261,-1.3081,-1.3108,-1.2933,-1.2699,-1.2439,-1.2174,-1.1932,-1.182,-1.1688,-1.1483,-1.1161,-1.0906,-1.0833,-1.098,-1.1257,-1.1611,-1.2479,-1.2897,-1.2814,-1.2418,-1.2154,-1.2007,-1.1543,-1.1202,-1.0995,-1.0782,-1.066,-1.0624,-1.0347,-1.0327,-1.0579,-1.0372,0.0,0.0,0.0,0.0,0.0,0.0,0.0,0.0,0.0,-1.0611,-1.2197,0.0,-1.2197,0.0,-1.3321,-1.345,-1.329,-1.3381,0.0,0.0,-1.3691,-1.3785,-1.4461,-1.4358,-1.4453,-1.5026,-1.5326,-1.5566,-1.5771,-1.6085,-1.6331,-1.6426,-1.6581,-1.6878,-1.747,-1.7197,-1.7054,-1.7501,-1.7501,-1.7726,-1.8508,-1.9427,-1.9934,-2.0242,-2.0819,-2.1266,-2.1255,-2.1417,-2.1431,-2.1043,-2.0951,-2.0756,-2.0343,-2.0228,-2.0205,-2.012,-2.0331,-2.0618,-2.0745,-2.0396,-2.0035,-0.6888,-0.6722,-0.6719,-0.6608,-0.6381,-0.6382,-0.6361,-0.6355,-0.6304,-0.6168,-0.5977,-0.5871,-0.5849,-0.5878,-0.6083,-0.6337,-0.6716,-0.6894,-0.7854,-0.9406,-0.9883,-1.0685,-1.1749,-1.231,-1.2236,-1.1629,-1.1629,-1.1528,-1.1345,-1.123,-1.1141,-1.0954,-1.0689,-1.0706,-1.1006,-1.1078,-1.1333,-1.1777,-1.2346,-1.2611,-1.2545,-1.2141,-1.1906,-1.1886,-1.1296,-1.0995,-1.0989,-1.0747,-1.0586,-1.0586,-1.0401,-1.0419,-1.0579,-1.0401,-1.0419,0.0,0.0,0.0,0.0,0.0,0.0,0.0,0.0,0.0,0.0,0.0,-1.2818,0.0,-1.3722,0.0,-1.3731,-1.3787,-1.3886,-1.3968,-1.4018,-1.4136,-1.4401,-1.4416,-1.4512,-1.4923,-1.5033,-1.5136,-1.5394,-1.5547,-1.5683,-1.5769,-1.5945,-1.6316,-1.6946,-1.6963,-1.6981,-1.7216,-1.7234,-1.7448,-1.8189,-1.9104,-1.9781,-1.9791,-2.0185,-2.0546,-2.0534,-2.0534,-2.0442,-2.0159,-2.009,-1.993,-1.9447,-1.9333,-1.9304,-1.9206,-1.9333,-1.9668,-2.0065,-1.9942,-1.9625,-0.673,-0.6567,-0.6619,-0.6548,-0.6429,-0.6331,-0.6339,-0.6331,-0.6162,-0.6083,-0.6026,-0.5793,-0.5819,-0.6078,-0.6251,-0.6471,-0.6781,-0.6973,-0.7505,-0.829,-0.9275,-0.9677,-0.9725,-1.0998,-1.1236,-1.0484,-1.0603,-1.0719,-1.0671,-1.0454,-1.0328,-1.0286,-1.0069,-1.0287,-1.0932,-1.1135,-1.1459,-1.1895,-1.2178,-1.2305,-1.2305,-1.202,-1.1846,-1.1826,-1.1243,-1.0935,-1.0929,-1.0727,-1.0586,-1.0586,-1.0586,-1.0586,-1.0586,-1.0553,-1.0553,0.0,-1.0559,0.0,0.0,0.0,0.0,0.0,0.0,0.0,0.0,-1.2826,-1.339,-1.3971,-1.401,-1.401,-1.401,-1.4167,-1.4162,-1.39,-1.4288,-1.4468,-1.4236,-1.4435,-1.4632,-1.4708,-1.4798,-1.4878,-1.4937,-1.5033,-1.5213,-1.5405,-1.5497,-1.5782,-1.6358,-1.6597,-1.6704,-1.6755,-1.6892,-1.7282,-1.7738,-1.8356,-1.8841,-1.8783,-1.9212,-1.9544,-1.9493,-1.9493,-1.9482,-1.947,-1.9378,-1.9218,-1.8862,-1.8747,-1.8608,-1.8352,-1.8371,-1.8701,-1.9447,-1.9531,-1.9408,-0.673,-0.6619,-0.6619,-0.6548,-0.6387,-0.6363,-0.6357,-0.6396,-0.6285,-0.607,-0.5784,-0.5542,-0.5566,-0.578,-0.5822,-0.6069,-0.6492,-0.6649,-0.7211,-0.8139,-0.8446,-0.9257,-1.0439,-1.0345,-1.0632,-1.1209,-1.0868,-1.0719,-1.0719,-1.0671,-1.0538,-1.0298,-1.0244,-1.0378,-1.0678,0.0,0.0,0.0,-1.2168,-1.2305,-1.2285,-1.1748,-1.1475,-1.1496,-1.0975,0.0,-1.0667,-1.062,-1.0586,-1.0586,-1.0586,0.0,0.0,0.0,0.0,0.0,0.0,0.0,0.0,0.0,0.0,0.0,-1.1632,-1.2274,-1.2328,-1.3216,-1.392,-1.4207,-1.4109,-1.401,-1.401,-1.4042,-1.4092,-1.4174,-1.407,-1.4143,-1.4502,-1.4399,-1.4324,-1.4682,-1.4741,-1.4765,-1.4876,-1.5041,-1.5236,-1.5339,-1.5528,-1.5679,-1.583,-1.5902,-1.5953,-1.5974,-1.6824,-1.7709,-1.8312,-1.8944,-1.9145,-1.9028,-1.892,-1.8845,-1.8501,-1.8398,-1.8409,-1.8398,-1.8104,-1.7955,-1.8169,-1.7928,-1.7721,-1.7749,-1.7845,-1.8099,-1.8697,-1.8892,-1.8929,-0.6535,0.0,-0.6478,-0.6443,0.0,-0.6377,-0.6317,-0.626,-0.6203,-0.5975,-0.5594,-0.5513,-0.5501,-0.5633,-0.5823,-0.5993,-0.6201,-0.6357,-0.6689,-0.7081,-0.7765,-0.8193,-0.8423,-0.9018,-0.9596,-1.0073,-0.9821,-0.9974,-1.0472,-1.0232,-1.0039,-0.9907,-1.0013,-1.0175,-1.0412,-1.081,-1.1229,-1.1686,-1.1799,-1.1864,-1.1857,-1.1436,-1.1209,-1.1196,0.0,0.0,0.0,0.0,0.0,0.0,0.0,0.0,0.0,0.0,0.0,-1.0157,-1.012,-1.012,-1.0157,-1.0164,-1.0164,-1.0194,-1.1481,-1.2609,-1.3329,-1.3929,-1.4297,-1.4387,-1.4297,-1.4267,-1.4267,-1.4339,-1.4364,-1.429,-1.4316,-1.4339,-1.4268,-1.4173,-1.4093,-1.4116,-1.4205,-1.429,-1.4345,-1.4604,-1.4769,-1.4862,-1.4987,-1.5029,-1.49,-1.5353,-1.5785,-1.622,-1.6788,-1.7554,-1.8191,-1.8402,-1.8522,-1.8212,-1.7943,-1.7664,-1.7424,-1.7355,-1.7355,-1.7355,-1.7174,-1.7117,-1.7263,-1.7163,-1.7053,-1.718,-1.7319,-1.7492,-1.7851,-1.8013,-1.8115,-0.6376,-0.6357,-0.6357,-0.6393,-0.6317,-0.6276,-0.6157,-0.6021,0.0,0.0,0.0,-0.5421,-0.5413,-0.5461,-0.5792,-0.5927,-0.589,-0.6094,-0.6136,-0.6044,-0.7076,-0.7096,-0.6259,-0.765,-0.844,-0.8599,-0.8589,-0.8981,-0.9817,-0.9523,-0.9359,-0.9356,-0.9606,-0.9877,-1.0166,-1.0646,-1.1033,-1.1249,-1.1369,-1.143,-1.1382,-1.1089,-1.0948,-1.0948,-1.0347,-1.004,-1.004,-0.9813,-0.9715,-0.9715,-0.9715,-0.9715,-0.9693,-0.986,-0.988,-0.9713,-0.9853,-0.985,-0.9699,-0.9715,-0.9795,-0.9991,-1.1258,-1.2685,-1.425,-1.4469,-1.4478,-1.4385,-1.4396,-1.4396,-1.4396,-1.4487,-1.4424,-1.4125,-1.4382,-1.4285,-1.3742,-1.3748,-1.3683,-1.3442,-1.3471,-1.356,-1.3599,-1.3815,-1.3992,-1.406,-1.4119,-1.4127,-1.3964,-1.4579,-1.5369,-1.6018,-1.6199,-1.6647,-1.7405,-1.7391,-1.7177,-1.7278,-1.6945,-1.661,-1.6598,-1.6598,-1.6598,-1.6679,-1.6552,-1.653,-1.6587,-1.6552,-1.651,-1.6635,-1.6769,-1.6868,-1.6919,-1.7039,-1.7195,-0.638,-0.6293,-0.6342,-0.623,-0.6132,-0.6166,-0.5986,-0.5768,-0.5561,-0.5424,-0.5233,-0.5135,-0.5091,-0.5086,-0.519,-0.5357,-0.5477,-0.5705,-0.579,0.0,-0.6121,-0.6478,-0.6865,-0.6878,-0.7386,-0.8193,-0.8058,-0.801,-0.82,-0.8718,-0.886,-0.8738,-0.9247,-0.9695,-1.0014,-1.0116,-1.0329,-1.0727,-1.1176,-1.143,-1.1416,-1.0935,-1.0653,-1.0626,-1.0077,-0.9775,-0.9746,-0.9729,-0.9715,-0.9715,-0.9715,-0.9715,-0.9708,-0.9457,-0.9431,-0.9653,-0.9486,-0.9452,-0.9659,-0.9715,-1.0164,-1.112,-1.145,-1.228,-1.3814,-1.4304,-1.4368,-1.402,-1.4003,-1.3974,-1.3956,-1.3717,-1.3477,-1.3238,-1.3226,-1.3161,-1.2987,-1.29,-1.285,-1.2781,-1.2636,-1.269,-1.2846,-1.2893,-1.3023,-1.3099,-1.3264,-1.3175,-1.3295,-1.3451,-1.3895,-1.4404,-1.4602,-1.5055,-1.6005,-1.617,-1.6246,-1.6651,-1.6596,-1.6459,-1.6472,-1.6472,-1.6472,-1.6564,-1.622,-1.6151,-1.6438,-1.6256,-1.6098,-1.616,-1.6243,-1.6244,-1.6064,-1.6071,-1.6332,-0.6372,-0.6271,-0.6265,-0.6198,-0.6072,-0.588,-0.5695,-0.5518,-0.5284,-0.5184,-0.5184,-0.5132,-0.511,-0.5105,-0.5123,-0.526,-0.5392,-0.5427,-0.5457,-0.5583,-0.5722,-0.5965,-0.6215,-0.6218,-0.6647,-0.7518,-0.7268,-0.7385,-0.7778,-0.8012,-0.8035,-0.7982,-0.8821,-0.9518,-0.997,-1.0128,-1.0296,-1.0441,-1.0789,-1.0955,-1.0949,-1.0573,-1.0271,-1.0117,-0.9666,-0.9365,-0.9239,-0.9205,-0.9212,-0.9205,-0.9205,-0.9205,-0.9205,-0.9198,-0.9204,-0.9212,-0.9198,-0.9198,-0.9205,-0.9212,-0.9791,-1.1103,-1.1229,-1.1787,-1.3123,-1.3607,-1.3772,-1.3608,-1.3561,-1.3561,-1.3589,-1.3424,-1.3241,-1.3059,-1.3022,-1.2913,-1.2748,-1.2721,-1.2665,-1.2527,-1.25,-1.2527,-1.261,-1.2665,-1.2776,-1.2913,-1.2869,-1.2806,-1.2858,-1.2747,-1.3036,-1.3951,-1.4201,-1.4572,-1.5272,-1.5235,-1.5307,-1.5708,-1.557,-1.5545,-1.5713,-1.5784,-1.5784,-1.5773,-1.5613,-1.5555,-1.5784,-1.5624,-1.5522,-1.5522,-1.5661,-1.5635,-1.5617,-1.5703,-1.5972,-0.5973,-0.5925,-0.619,-0.6188,-0.598,-0.5651,-0.5455,-0.5349,-0.5121,-0.5067,-0.5137,-0.5121,-0.5108,-0.5102,-0.509,-0.5155,-0.523,-0.5197,-0.523,-0.5356,-0.5484,-0.5573,-0.5549,-0.5654,-0.605,-0.6561,-0.644,-0.6645,-0.7198,-0.7193,-0.7279,-0.7527,-0.8353,-0.9053,-0.9594,-0.982,-0.9954,-1.013,-1.0269,-1.0428,-1.0579,-1.0267,-0.9973,-0.9722,-0.9371,-0.9078,-0.8798,-0.8778,-0.8778,-0.8778,-0.8778,-0.8778,-0.8791,-0.8991,-0.9018,-0.8858,-0.8984,-0.9024,-0.8838,-0.8778,-0.9343,-1.0546,-1.0676,-1.118,-1.2243,-1.2661,-1.295,-1.3131,-1.3176,-1.3149,-1.3131,-1.3048,-1.2967,-1.2887,-1.2824,-1.269,-1.2538,-1.2546,-1.252,-1.2322,-1.2358,-1.2385,-1.2403,-1.2484,-1.2547,-1.2609,-1.257,-1.2492,-1.2472,-1.225,-1.2581,-1.3301,-1.3733,-1.3893,-1.4461,-1.4431,-1.4454,-1.4849,-1.4788,-1.49,-1.5108,-1.5154,-1.5131,-1.5188,-1.5165,-1.5177,-1.5142,-1.5142,-1.5165,-1.5211,-1.5347,-1.5436,-1.5582,-1.5703,-1.5804,-0.468,-0.4984,-0.5716,-0.5972,-0.5704,-0.5499,-0.5421,-0.5377,-0.5116,-0.5023,-0.5031,-0.4876,-0.4833,-0.4798,-0.4798,-0.4759,-0.4786,-0.499,-0.5116,-0.516,-0.5339,-0.5416,-0.5423,-0.5436,-0.547,-0.5577,-0.5559,-0.5626,-0.5789,-0.6251,-0.6875,-0.7567,-0.7812,-0.8025,-0.8342,-0.843,-0.8793,-0.9556,-0.9614,-0.9939,-1.0541,-1.0274,-0.9973,-0.9715,-0.9364,-0.9078,-0.8798,-0.8778,-0.8778,-0.8778,-0.8778,-0.8778,-0.8811,-0.8838,-0.8838,-0.8778,-0.8838,-0.8824,-0.8811,-0.8778,-0.9075,-0.965,-0.9784,-1.0252,-1.1311,-1.1497,-1.1867,-1.2506,-1.2727,-1.2753,-1.2726,-1.2468,-1.2278,-1.2255,-1.2218,-1.2161,-1.2131,-1.207,-1.1986,-1.196,-1.1873,-1.1784,-1.1847,-1.1882,-1.1863,-1.195,-1.194,-1.1944,-1.202,-1.1991,-1.1995,-1.2279,-1.2339,-1.2597,-1.3057,-1.3435,-1.3878,-1.4378,-1.4799,-1.4971,-1.5062,-1.5119,-1.5119,-1.5119,-1.5119,-1.5119,-1.5119,-1.5119,-1.5131,-1.5233,-1.5345,-1.5547,-1.5691,-1.5758,-1.5792,-0.3561,-0.4137,-0.4532,-0.4982,-0.5354,-0.5397,-0.5366,-0.5284,-0.5089,-0.5018,-0.4991,-0.4811,-0.4768,-0.4777,-0.4651,-0.461,-0.4709,-0.4785,-0.4921,-0.5087,-0.519,-0.5292,-0.5395,-0.5395,-0.5395,-0.5395,-0.5395,-0.5395,-0.5458,-0.5686,-0.623,-0.6971,-0.7181,-0.7521,-0.7973,-0.8087,-0.8289,-0.8534,-0.8582,-0.8807,-0.9201,-0.9798,-0.998,-0.9722,-0.9371,-0.9071,-0.8818,-0.8778,-0.8778,-0.8778,-0.8778,-0.8778,-0.8778,-0.8778,-0.8778,-0.8778,-0.8778,-0.8778,-0.8778,-0.8778,-0.9035,-0.9562,-0.9614,-0.9943,-1.0685,-1.1015,-1.137,-1.1695,-1.2121,-1.2349,-1.233,-1.2193,-1.2051,-1.1927,-1.1952,-1.1902,-1.1644,-1.1728,-1.1744,-1.1578,-1.1578,-1.1578,-1.1603,-1.1653,-1.1694,-1.1694,-1.1694,-1.1728,-1.1769,-1.1803,-1.1852,-1.1952,-1.1977,-1.2215,-1.2677,-1.2967,-1.3505,-1.4163,-1.4569,-1.472,-1.5062,-1.5097,-1.5119,-1.5119,-1.5119,-1.5119,-1.5119,-1.5119,-1.5142,-1.5233,-1.5368,-1.5547,-1.5603,-1.5714,-1.5792,-0.2262,-0.2923,-0.3488,-0.418,-0.4844,-0.5212,-0.5309,-0.5178,-0.5067,-0.4999,-0.4947,-0.478,-0.4717,-0.4697,-0.4512,-0.4494,-0.4586,-0.4602,-0.4728,-0.4954,-0.5057,-0.5156,-0.5292,-0.5359,-0.5395,-0.5395,-0.5395,-0.5395,-0.5395,-0.5395,-0.572,-0.6318,-0.6557,-0.6936,-0.7362,-0.7509,-0.7595,-0.7717,-0.7743,-0.8027,-0.8597,-0.9462,-0.9821,-0.9535,-0.9398,-0.9198,-0.8938,-0.8818,-0.8778,-0.8778,-0.8778,-0.8778,-0.8778,-0.8778,-0.8778,-0.8778,-0.8778,-0.8778,-0.8778,-0.8778,-0.8956,-0.9335,-0.9387,-0.9614,-1.0123,-1.049,-1.0753,-1.0964,-1.146,-1.1837,-1.2002,-1.2002,-1.1902,-1.1728,-1.1769,-1.1728,-1.1477,-1.1603,-1.1619,-1.1452,-1.1553,-1.1544,-1.1578,-1.1653,-1.1694,-1.1694,-1.1694,-1.1694,-1.1694,-1.1753,-1.1803,-1.1868,-1.1927,-1.2116,-1.253,-1.2967,-1.3399,-1.3907,-1.435,-1.4789,-1.504,-1.5097,-1.5119,-1.5119,-1.5119,-1.5119,-1.5119,-1.5119,-1.5142,-1.521,-1.5345,-1.5513,-1.5592,-1.5703,-1.5736,-0.0637,-0.1211,-0.3029,-0.3798,-0.3929,-0.4799,-0.5192,-0.5084,-0.5019,-0.4911,-0.4804,-0.4739,-0.4627,-0.4528,-0.4376,-0.4311,-0.4342,-0.45,-0.4625,-0.4691,-0.4921,-0.5087,-0.512,-0.5292,-0.5395,-0.5395,-0.5395,-0.5395,-0.5395,-0.5395,-0.5545,-0.584,-0.5926,-0.5979,-0.6237,-0.6309,-0.653,-0.7111,-0.7185,-0.7869,-0.9128,-0.9404,-0.9392,-0.9242,-0.9482,-0.9499,-0.9184,-0.8924,-0.8778,-0.8778,-0.8778,-0.8778,-0.8778,-0.8778,-0.8778,-0.8778,-0.8778,-0.8778,-0.8778,-0.8778,-0.8831,-0.8857,-0.8883,-0.9054,-0.9536,-0.9718,-0.995,-1.0364,-1.0829,-1.1242,-1.1544,-1.1694,-1.1728,-1.1703,-1.1703,-1.1669,-1.1678,-1.1619,-1.1694,-1.1653,-1.1619,-1.1619,-1.1653,-1.1694,-1.1669,-1.1669,-1.1669,-1.1669,-1.1669,-1.1778,-1.1819,-1.1868,-1.1968,-1.2101,-1.2215,-1.2759,-1.3362,-1.38,-1.4316,-1.4892,-1.504,-1.5119,-1.5074,-1.5074,-1.5006,-1.5006,-1.5074,-1.5142,-1.5165,-1.5255,-1.539,-1.5525,-1.5592,-1.5659,-1.5726,0.0379,-0.0415,-0.1973,-0.2542,-0.257,-0.3668,-0.4134,-0.4108,-0.464,-0.4839,-0.4766,-0.4624,-0.4547,-0.4498,-0.4349,-0.4303,-0.4303,-0.4367,-0.4498,-0.4592,-0.4725,-0.4888,-0.5087,-0.519,-0.5292,-0.5395,-0.5395,-0.5395,-0.5395,-0.5395,-0.5494,-0.563,-0.5667,-0.5779,-0.5893,-0.5911,-0.6015,-0.6165,-0.638,-0.6956,-0.7842,-0.8484,-0.8986,-0.9367,-0.9569,-0.9546,-0.919,-0.8958,-0.8778,-0.8778,-0.8778,-0.8778,-0.8778,-0.8778,-0.8778,-0.8778,-0.8778,-0.8778,-0.8778,-0.8778,-0.8778,-0.8778,-0.8778,-0.8824,-0.8968,-0.9204,-0.9387,-0.9543,-0.9899,-1.0208,-1.049,-1.1133,-1.1678,-1.1578,-1.1578,-1.1553,-1.1477,-1.1444,-1.1444,-1.1418,-1.1444,-1.1444,-1.1452,-1.1452,-1.1444,-1.1452,-1.1444,-1.1452,-1.1452,-1.1502,-1.1603,-1.1719,-1.1819,-1.1902,-1.2101,-1.2613,-1.316,-1.3539,-1.3941,-1.4059,-1.421,-1.4269,-1.4222,-1.4674,-1.472,-1.488,-1.4949,-1.5119,-1.5165,-1.5176,-1.5311,-1.5446,-1.557,-1.5625,-1.5691,0.1044,0.0263,-0.0885,-0.1351,-0.1402,-0.2541,-0.3046,-0.3014,-0.368,-0.4084,-0.4176,-0.4184,-0.4242,-0.4409,-0.4336,-0.4303,-0.4303,-0.4303,-0.4367,-0.4528,-0.4558,-0.4722,-0.4921,-0.5054,-0.5156,-0.5292,-0.5395,-0.5395,-0.5395,-0.5395,-0.5477,-0.5583,-0.5589,-0.5661,-0.5779,-0.58,-0.5732,-0.5717,-0.5897,-0.6286,-0.6922,-0.7609,-0.8323,-0.8893,-0.8969,-0.9118,-0.9301,-0.9078,-0.8898,-0.8824,-0.8778,-0.8778,-0.8778,-0.8778,-0.8778,-0.8745,-0.8745,-0.8718,-0.8672,-0.8672,-0.8672,-0.8672,-0.8672,-0.8639,-0.8573,-0.8791,-0.887,-0.8903,-0.9159,-0.9413,-0.9588,-1.0387,-1.1057,-1.1141,-1.1318,-1.1377,-1.1326,-1.1301,-1.1301,-1.1301,-1.1318,-1.1301,-1.1301,-1.1301,-1.1293,-1.1301,-1.1301,-1.1301,-1.1301,-1.1343,-1.1427,-1.1603,-1.1669,-1.1803,-1.1952,-1.2329,-1.2749,-1.3122,-1.3515,-1.3549,-1.3573,-1.3573,-1.3705,-1.4163,-1.4489,-1.4674,-1.4857,-1.5051,-1.5108,-1.5108,-1.5198,-1.5334,-1.5446,-1.5603,-1.5691,0.1373,0.1092,0.0123,-0.0279,-0.0429,-0.145,-0.1936,-0.2014,-0.2222,-0.273,-0.3176,-0.335,-0.3746,-0.4154,-0.4272,-0.4303,-0.4303,-0.4303,-0.43,-0.4334,-0.4495,-0.4595,-0.4658,-0.4924,-0.5087,-0.5153,-0.5292,-0.5395,-0.5395,-0.5399,-0.547,-0.5555,-0.56,-0.5655,-0.5783,-0.5762,-0.5785,-0.5769,-0.581,-0.6177,-0.6819,-0.699,-0.7409,-0.7986,-0.7742,-0.8162,-0.9479,-0.924,-0.8882,-0.8732,-0.8752,-0.8778,-0.8752,-0.8752,-0.8718,-0.86,-0.86,-0.8521,-0.8421,-0.8421,-0.8448,-0.8448,-0.8421,-0.8421,-0.8421,-0.8421,-0.8448,-0.8474,-0.8718,-0.8956,-0.9001,-0.9439,-0.995,-1.037,-1.0913,-1.12,-1.1276,-1.1301,-1.1301,-1.1301,-1.1301,-1.1301,-1.1301,-1.1301,-1.1301,-1.1301,-1.1301,-1.1301,-1.1301,-1.1368,-1.1477,-1.1528,-1.1603,-1.1728,-1.1828,-1.1943,-1.2295,-1.2652,-1.3074,-1.3324,-1.3372,-1.3396,-1.3396,-1.3776,-1.4303,-1.4535,-1.4949,-1.5119,-1.5119,-1.5108,-1.5176,-1.5255,-1.5446,-1.558,-1.5669,0.1313,0.1282,0.09,0.0725,0.0597,-0.0406,-0.0878,-0.0979,-0.1606,-0.2113,-0.2475,-0.291,-0.3309,-0.3629,-0.4064,-0.4303,-0.4303,-0.4303,-0.4303,-0.4334,-0.4367,-0.4498,-0.4595,-0.4691,-0.4891,-0.509,-0.5156,-0.5256,-0.5359,-0.5395,-0.5426,-0.5457,-0.5467,-0.5487,-0.5552,-0.5596,-0.5614,-0.5562,-0.5699,-0.6146,-0.6811,-0.6892,-0.7284,-0.8021,-0.7916,-0.7928,-0.804,-0.8036,-0.7994,-0.7931,-0.8315,-0.8533,-0.8533,-0.8533,-0.8507,-0.8474,-0.8474,-0.8448,-0.8421,-0.8395,-0.8395,-0.8395,-0.8395,-0.8348,-0.8268,-0.8248,-0.8215,-0.8088,-0.8168,-0.8242,-0.8321,-0.8732,-0.938,-1.0318,-1.0582,-1.0863,-1.1192,-1.1276,-1.1301,-1.1301,-1.1301,-1.1301,-1.1301,-1.1301,-1.1301,-1.1301,-1.1301,-1.1301,-1.1301,-1.1326,-1.1427,-1.1502,-1.1553,-1.1628,-1.1753,-1.1828,-1.2042,-1.228,-1.2623,-1.2987,-1.3108,-1.306,-1.3108,-1.3386,-1.3918,-1.4373,-1.4811,-1.5051,-1.5006,-1.5131,-1.5221,-1.5334,-1.5491,-1.558,-1.5647,0.1268,0.1239,0.122,0.1187,0.1115,0.043,0.0178,0.0071,-0.0556,-0.1033,-0.1474,-0.1961,-0.2379,-0.2815,-0.3522,-0.3894,-0.3928,-0.4133,-0.4303,-0.4303,-0.4303,-0.4364,-0.4495,-0.4561,-0.4725,-0.4924,-0.499,-0.509,-0.5292,-0.5292,-0.5326,-0.5395,-0.5395,-0.5433,-0.5477,-0.5566,-0.5535,-0.5508,-0.5672,-0.5947,-0.6246,-0.6338,-0.6567,-0.6952,-0.6908,-0.6675,-0.6382,-0.6564,-0.6843,-0.7197,-0.7738,-0.8037,-0.8064,-0.8262,-0.8368,-0.8348,-0.8321,-0.8295,-0.8242,-0.8215,-0.8215,-0.8215,-0.8215,-0.8189,-0.8115,-0.8088,-0.8008,-0.7928,-0.7928,-0.7901,-0.7981,-0.8209,-0.889,-0.9692,-0.9984,-1.0344,-1.0863,-1.1192,-1.1301,-1.1301,-1.1301,-1.1301,-1.1301,-1.1301,-1.1301,-1.1301,-1.1301,-1.1301,-1.1301,-1.1301,-1.1377,-1.1427,-1.1427,-1.1519,-1.1669,-1.1744,-1.1803,-1.1943,-1.2116,-1.2476,-1.2686,-1.2525,-1.2476,-1.2905,-1.3409,-1.3705,-1.4118,-1.4581,-1.4743,-1.4971,-1.5176,-1.5289,-1.5379,-1.5536,-1.5603,0.1276,0.1211,0.1207,0.1133,0.1121,0.1014,0.0966,0.1014,0.081,0.0304,-0.0269,-0.074,-0.1242,-0.1945,-0.2748,-0.3117,-0.3251,-0.3692,-0.393,-0.3997,-0.4097,-0.4164,-0.4334,-0.4495,-0.4628,-0.4794,-0.4794,-0.4891,-0.5057,-0.5123,-0.519,-0.5359,-0.5399,-0.5474,-0.5573,-0.5579,-0.56,-0.5569,-0.5603,-0.5555,-0.5531,-0.5458,-0.5422,-0.5339,-0.5223,-0.5109,-0.5035,-0.5274,-0.5769,-0.6583,-0.7262,-0.7551,-0.7631,-0.807,-0.8289,-0.8195,-0.8189,-0.8088,-0.7955,-0.7955,-0.7955,-0.7955,-0.7955,-0.7901,-0.7928,-0.7928,-0.7928,-0.7901,-0.7901,-0.7901,-0.7901,-0.7955,-0.8262,-0.8732,-0.9354,-0.9873,-1.0318,-1.0863,-1.1091,-1.1192,-1.1242,-1.1301,-1.1301,-1.1301,-1.1301,-1.1301,-1.1301,-1.1301,-1.1301,-1.1301,-1.1301,-1.1301,-1.1326,-1.1393,-1.1544,-1.1553,-1.1628,-1.1803,-1.1918,-1.2116,-1.2378,-1.2215,-1.223,-1.2638,-1.2967,-1.3218,-1.3671,-1.4316,-1.4651,-1.4811,-1.4994,-1.5119,-1.53,-1.5446,-1.558,0.1206,0.1176,0.1154,0.1123,0.109,0.1088,0.1084,0.1109,0.1043,0.0808,0.0404,-0.0168,-0.0638,-0.1175,-0.1877,-0.228,-0.2442,-0.2613,-0.2684,-0.2785,-0.3251,-0.3825,-0.42,-0.4364,-0.4459,-0.4619,-0.4655,-0.4728,-0.4861,-0.5014,-0.511,-0.519,-0.5312,-0.546,-0.559,-0.5501,-0.5525,-0.5555,-0.5504,-0.5473,-0.5535,-0.5451,-0.5386,-0.5311,-0.5115,-0.4931,-0.4707,-0.4685,-0.5445,-0.6831,-0.7106,-0.7402,-0.7702,-0.7922,-0.8002,-0.8008,-0.7981,-0.7981,-0.7928,-0.7901,-0.7901,-0.7901,-0.7901,-0.7901,-0.7901,-0.7901,-0.7901,-0.7901,-0.7901,-0.7901,-0.7901,-0.7901,-0.8029,-0.8215,-0.8935,-0.9588,-0.9847,-1.0293,-1.0633,-1.0659,-1.1015,-1.12,-1.1242,-1.1276,-1.1301,-1.1301,-1.1301,-1.1301,-1.1301,-1.1301,-1.1301,-1.1301,-1.1326,-1.1352,-1.1377,-1.1402,-1.1477,-1.1678,-1.1803,-1.1893,-1.2092,-1.215,-1.2353,-1.2677,-1.2905,-1.3156,-1.3894,-1.4605,-1.4697,-1.4524,-1.4903,-1.5097,-1.5255,-1.5401,-1.5536,0.1205,0.1202,0.1147,0.1122,0.1094,0.1116,0.1109,0.1109,0.1109,0.1043,0.0841,0.0404,0.0067,-0.0199,-0.1035,-0.1499,-0.1584,-0.1943,-0.2274,-0.2628,-0.3247,-0.3776,-0.414,-0.4224,-0.4254,-0.4394,-0.4472,-0.4593,-0.4683,-0.4837,-0.4938,-0.5025,-0.5168,-0.5284,-0.5277,-0.5298,-0.5304,-0.5365,-0.5311,-0.5353,-0.5481,-0.5356,-0.5246,-0.5154,-0.5016,-0.4826,-0.4609,-0.4535,-0.5011,-0.5828,-0.6209,-0.6615,-0.7133,-0.744,-0.7655,-0.7848,-0.7901,-0.7901,-0.7901,-0.7901,-0.7901,-0.7901,-0.7901,-0.7901,-0.7901,-0.7901,-0.7901,-0.7901,-0.7901,-0.7901,-0.7901,-0.7901,-0.7901,-0.8002,-0.8494,-0.8995,-0.9223,-0.9751,-1.001,-1.019,-1.0523,-1.0913,-1.0939,-1.1116,-1.1251,-1.1301,-1.1301,-1.1301,-1.1301,-1.1301,-1.1301,-1.1301,-1.1301,-1.1352,-1.1368,-1.1393,-1.1452,-1.1653,-1.1753,-1.1828,-1.1927,-1.2051,-1.2215,-1.2491,-1.2817,-1.3142,-1.3658,-1.4025,-1.4001,-1.4048,-1.4593,-1.4983,-1.5085,-1.5108,-1.5266,0.1295,0.1203,0.1236,0.118,0.1112,0.1088,0.1109,0.1109,0.1109,0.1106,0.1036,0.0871,0.0692,0.074,-0.0229,-0.0656,-0.0737,-0.1408,-0.2241,-0.273,-0.3252,-0.3606,-0.3961,-0.4059,-0.4096,-0.4142,-0.4213,-0.436,-0.4464,-0.453,-0.4656,-0.4818,-0.4965,-0.4994,-0.5001,-0.5052,-0.5086,-0.5186,-0.5113,-0.5186,-0.5286,-0.5211,-0.504,-0.4931,-0.4784,-0.464,-0.4545,-0.4491,-0.4598,-0.4515,-0.5034,-0.5687,-0.6236,-0.681,-0.7279,-0.7708,-0.7821,-0.7901,-0.7901,-0.7901,-0.7901,-0.7901,-0.7901,-0.7901,-0.7901,-0.7901,-0.7901,-0.7901,-0.7901,-0.7901,-0.7875,-0.7875,-0.7842,-0.7842,-0.7922,-0.8156,-0.8593,-0.9164,-0.951,-0.9562,-0.9984,-1.0241,-1.0446,-1.0786,-1.1175,-1.0989,-1.1116,-1.1301,-1.1301,-1.1301,-1.1301,-1.1301,-1.1326,-1.1352,-1.1393,-1.1444,-1.1519,-1.1628,-1.1753,-1.1828,-1.1927,-1.2026,-1.2076,-1.2274,-1.2657,-1.272,-1.2696,-1.2953,-1.3232,-1.36,-1.4152,-1.4501,-1.4731,-1.4663,-1.4731,0.1613,0.142,0.1391,0.1252,0.112,0.1112,0.1109,0.1109,0.1109,0.1063,0.1014,0.0978,0.0866,0.0718,0.0409,0.0282,0.0031,-0.0622,-0.1368,-0.2412,-0.2137,-0.2769,-0.344,-0.3737,-0.3907,-0.3954,-0.3965,-0.4079,-0.4201,-0.431,-0.4357,-0.453,-0.4695,-0.4813,-0.4862,-0.4883,-0.5063,-0.5223,-0.5052,-0.5009,-0.5093,-0.5009,-0.4891,-0.4745,-0.4627,-0.4539,-0.4505,-0.4491,-0.4491,-0.4625,-0.4983,-0.5473,-0.61,-0.6701,-0.7058,-0.7279,-0.7634,-0.7848,-0.7875,-0.7848,-0.7901,-0.7901,-0.7875,-0.7901,-0.7901,-0.7901,-0.7901,-0.7901,-0.7901,-0.7875,-0.7848,-0.7681,-0.7676,-0.7702,-0.7756,-0.7756,-0.791,-0.8488,-0.8909,-0.9066,-0.9406,-0.9769,-0.9795,-1.0318,-1.0608,-1.0651,-1.0939,-1.1217,-1.1301,-1.1301,-1.1301,-1.1301,-1.1301,-1.1326,-1.1343,-1.1393,-1.1452,-1.1519,-1.1653,-1.1753,-1.1828,-1.1977,-1.2026,-1.2215,-1.2525,-1.2476,-1.2329,-1.2793,-1.33,-1.3491,-1.3658,-1.3918,-1.4106,-1.4106,-1.4269,0.1717,0.1601,0.1558,0.1425,0.1267,0.1217,0.1176,0.1106,0.1061,0.1048,0.1,0.102,0.0933,0.0788,0.0735,0.0614,0.0424,-0.0121,-0.0747,-0.1384,-0.1416,-0.1867,-0.2414,-0.3036,-0.3402,-0.3762,-0.3949,-0.4009,-0.4078,-0.4125,-0.4215,-0.4237,-0.4392,-0.4433,-0.451,-0.4551,-0.4645,-0.4757,-0.4786,-0.479,-0.4856,-0.4854,-0.4738,-0.4609,-0.4535,-0.4491,-0.4491,-0.4491,-0.4491,-0.4543,-0.4708,-0.5093,-0.5664,-0.61,-0.6372,-0.6701,-0.6891,-0.7273,-0.7408,-0.7488,-0.7568,-0.7875,-0.7794,-0.7821,-0.7821,-0.7794,-0.7762,-0.7762,-0.7735,-0.7714,-0.7708,-0.7601,-0.7542,-0.7595,-0.7622,-0.7568,-0.7595,-0.8017,-0.8362,-0.8408,-0.8751,-0.9249,-0.9588,-0.988,-1.0498,-1.0753,-1.0956,-1.1242,-1.1301,-1.1301,-1.1301,-1.1301,-1.1301,-1.1301,-1.1301,-1.1326,-1.1352,-1.1427,-1.1519,-1.1578,-1.1653,-1.1828,-1.2002,-1.2166,-1.2304,-1.2304,-1.2304,-1.2817,-1.3084,-1.3122,-1.3208,-1.3348,-1.3515,-1.3705,-1.3884,0.1824,0.1738,0.1734,0.1643,0.1457,0.1358,0.1307,0.1164,0.1076,0.1059,0.1016,0.1022,0.0934,0.0887,0.0779,0.0717,0.0441,0.0204,-0.0288,-0.0737,-0.093,-0.1209,-0.1575,-0.2088,-0.2652,-0.3452,-0.3821,-0.3917,-0.3833,-0.4005,-0.4027,-0.4002,-0.4086,-0.4133,-0.406,-0.4105,-0.4235,-0.4333,-0.438,-0.4464,-0.4587,-0.4588,-0.4478,-0.4427,-0.4363,-0.4349,-0.4349,-0.438,-0.4408,-0.4411,-0.4276,-0.4546,-0.4928,-0.5254,-0.5441,-0.6018,-0.6154,-0.6453,-0.6756,-0.6804,-0.6966,-0.7628,-0.7494,-0.7547,-0.7681,-0.7655,-0.7622,-0.7595,-0.7574,-0.7494,-0.7494,-0.744,-0.744,-0.7467,-0.7467,-0.7461,-0.7494,-0.7681,-0.7788,-0.783,-0.8123,-0.854,-0.8988,-0.938,-1.0182,-1.0854,-1.1006,-1.1192,-1.1217,-1.1267,-1.1267,-1.1301,-1.1301,-1.1301,-1.1301,-1.1301,-1.1301,-1.1352,-1.1418,-1.1444,-1.1477,-1.1578,-1.1753,-1.1927,-1.2026,-1.2067,-1.2116,-1.2338,-1.255,-1.2628,-1.2725,-1.2817,-1.3045,-1.3334,-1.3467,0.2173,0.194,0.1966,0.1799,0.156,0.1549,0.1492,0.143,0.1289,0.1221,0.1143,0.1012,0.0934,0.0887,0.088,0.0596,0.0369,0.0341,0.0141,-0.042,-0.0531,-0.0531,-0.095,-0.1313,-0.1685,-0.2194,-0.2941,-0.3341,-0.3256,-0.3454,-0.3564,-0.3754,-0.3761,-0.373,-0.3797,-0.3971,-0.3986,-0.4087,-0.4125,-0.4175,-0.4256,-0.4232,-0.4179,-0.4132,-0.4132,-0.4132,-0.4104,-0.4104,-0.4104,-0.4079,-0.4052,-0.4132,-0.4322,-0.4704,-0.5003,-0.5277,-0.555,-0.58,-0.6018,-0.6018,-0.6263,-0.6642,-0.681,-0.7079,-0.7408,-0.7521,-0.7488,-0.7461,-0.744,-0.7365,-0.7461,-0.7333,-0.7252,-0.7279,-0.7333,-0.7306,-0.7279,-0.7386,-0.7547,-0.7542,-0.7676,-0.7889,-0.8435,-0.8883,-0.9373,-0.9969,-1.0277,-1.0694,-1.1032,-1.1108,-1.1217,-1.1242,-1.1301,-1.1301,-1.1301,-1.1301,-1.1301,-1.1301,-1.1343,-1.1343,-1.1377,-1.1352,-1.1477,-1.1703,-1.1902,-1.2026,-1.2076,-1.2076,-1.2141,-1.2353,-1.2338,-1.2298,-1.251,-1.2779,-1.2803,0.2224,0.2101,0.2108,0.1976,0.178,0.1721,0.1632,0.1509,0.1404,0.1303,0.1182,0.1072,0.0969,0.09,0.0897,0.0701,0.0617,0.0701,0.056,0.014,0.0252,0.0252,-0.0168,-0.0503,-0.0503,-0.0839,-0.168,-0.2422,-0.2348,-0.2592,-0.2801,-0.2723,-0.2756,-0.2899,-0.318,-0.3271,-0.3531,-0.3758,-0.3868,-0.3912,-0.4002,-0.399,-0.3999,-0.3993,-0.3993,-0.3993,-0.3993,-0.3993,-0.3993,-0.3993,-0.3938,-0.3938,-0.4021,-0.4132,-0.4349,-0.4539,-0.4759,-0.5038,-0.5254,-0.5308,-0.5641,-0.648,-0.648,-0.6783,-0.7219,-0.7381,-0.7327,-0.73,-0.7246,-0.7225,-0.7273,-0.7166,-0.7166,-0.7166,-0.7198,-0.7166,-0.7166,-0.7246,-0.73,-0.7327,-0.744,-0.7676,-0.8096,-0.8461,-0.8666,-0.9053,-0.9496,-1.0038,-1.0635,-1.0744,-1.0795,-1.1091,-1.1141,-1.1242,-1.1251,-1.1276,-1.1301,-1.1301,-1.1301,-1.1301,-1.1326,-1.1326,-1.1427,-1.1594,-1.1769,-1.1927,-1.2051,-1.2076,-1.2076,-1.2076,-1.215,-1.2175,-1.2126,-1.2175,-1.2289,0.2202,0.2187,0.2208,0.208,0.1928,0.1889,0.1758,0.1569,0.1508,0.1383,0.128,0.1167,0.1039,0.0954,0.0926,0.0897,0.0926,0.0926,0.0841,0.0813,0.0785,0.0841,0.07,0.0448,0.0196,0.0224,-0.0336,-0.1119,-0.1494,-0.1858,-0.189,-0.1948,-0.182,-0.1989,-0.2459,-0.258,-0.2895,-0.3272,-0.3522,-0.3602,-0.3769,-0.3855,-0.391,-0.3938,-0.3913,-0.3913,-0.3885,-0.3885,-0.3885,-0.3858,-0.3827,-0.3799,-0.3855,-0.3719,-0.3719,-0.3885,-0.3913,-0.4215,-0.4432,-0.4546,-0.4928,-0.5823,-0.6014,-0.6453,-0.6945,-0.7112,-0.7139,-0.7106,-0.7106,-0.7106,-0.7166,-0.7112,-0.7106,-0.7112,-0.7112,-0.7106,-0.7112,-0.7139,-0.7166,-0.7192,-0.7198,-0.7408,-0.775,-0.7857,-0.8031,-0.8475,-0.8915,-0.9306,-0.9825,-0.9979,-1.0167,-1.0694,-1.0964,-1.1116,-1.1192,-1.1276,-1.1276,-1.1301,-1.1301,-1.1301,-1.1326,-1.1377,-1.1452,-1.1519,-1.1594,-1.1744,-1.1927,-1.2051,-1.2026,-1.2026,-1.2051,-1.2076,-1.2076,-1.2076,-1.2175,0.2214,0.2197,0.2189,0.2157,0.2076,0.206,0.1966,0.1849,0.1714,0.1623,0.1496,0.1267,0.1122,0.1066,0.0954,0.0982,0.101,0.0982,0.0926,0.0926,0.0898,0.0898,0.0897,0.0841,0.0642,0.0697,0.0502,0.0084,-0.0531,-0.1207,-0.1548,-0.1479,-0.1515,-0.1819,-0.1837,-0.1904,-0.2209,-0.2681,-0.282,-0.3072,-0.3497,-0.361,-0.3608,-0.3655,-0.3655,-0.3638,-0.3649,-0.3643,-0.3655,-0.3638,-0.3622,-0.3633,-0.3641,-0.3613,-0.361,-0.3638,-0.3666,-0.3666,-0.383,-0.3888,-0.4135,-0.4952,-0.5226,-0.5714,-0.6263,-0.681,-0.6999,-0.7106,-0.7085,-0.7112,-0.7085,-0.7085,-0.7112,-0.7085,-0.7085,-0.7085,-0.7085,-0.7106,-0.7106,-0.7106,-0.7166,-0.7139,-0.7321,-0.7348,-0.7423,-0.7898,-0.8316,-0.8705,-0.9143,-0.941,-0.967,-1.0226,-1.071,-1.0888,-1.1015,-1.1099,-1.1175,-1.1226,-1.1276,-1.1276,-1.1326,-1.1352,-1.1393,-1.1444,-1.1494,-1.1544,-1.1694,-1.1803,-1.1877,-1.1952,-1.1977,-1.2026,-1.2076,-1.2076,-1.2076,0.2589,0.2087,0.2121,0.21,0.2042,0.2006,0.1962,0.1883,0.179,0.1661,0.1568,0.1449,0.1318,0.1232,0.115,0.115,0.1178,0.115,0.1093,0.1008,0.1007,0.098,0.0897,0.0896,0.0837,0.0821,0.079,0.0652,0.0164,-0.0167,-0.0455,-0.0524,-0.0628,-0.0825,-0.1138,-0.1252,-0.1629,-0.2014,-0.2237,-0.2488,-0.2935,-0.3098,-0.3212,-0.3458,-0.3452,-0.3393,-0.3348,-0.3379,-0.3379,-0.335,-0.3324,-0.3271,-0.3263,-0.3244,-0.3258,-0.3263,-0.3297,-0.3411,-0.3585,-0.3583,-0.3913,-0.4325,-0.4736,-0.5089,-0.5664,-0.6209,-0.6566,-0.6593,-0.6788,-0.6896,-0.6977,-0.695,-0.6891,-0.6891,-0.695,-0.6923,-0.695,-0.7085,-0.7106,-0.7106,-0.7106,-0.7079,-0.7052,-0.716,-0.7214,-0.7423,-0.7738,-0.7998,-0.8652,-0.9287,-0.9547,-0.984,-1.0293,-1.0667,-1.0769,-1.0871,-1.0972,-1.1049,-1.1226,-1.1251,-1.1276,-1.1318,-1.1318,-1.1318,-1.1368,-1.1418,-1.1502,-1.1628,-1.1778,-1.1852,-1.1902,-1.1952,-1.1977,-1.2076,-1.2092,0.3264,0.2504,0.2351,0.2224,0.2068,0.2019,0.1961,0.1854,0.1817,0.1709,0.1567,0.1559,0.1467,0.1363,0.131,0.1284,0.1329,0.1313,0.1245,0.1157,0.1103,0.1051,0.0961,0.0905,0.0892,0.0931,0.0843,0.0821,0.0806,0.0602,0.0395,0.0469,0.0142,-0.0029,-0.0318,-0.0542,-0.084,-0.1343,-0.1623,-0.1946,-0.2261,-0.234,-0.2537,-0.2755,-0.2897,-0.2869,-0.278,-0.2876,-0.2903,-0.2883,-0.3016,-0.3029,-0.3008,-0.3007,-0.3013,-0.3025,-0.305,-0.3162,-0.3328,-0.3438,-0.3729,-0.4018,-0.4405,-0.4649,-0.5167,-0.566,-0.585,-0.585,-0.5991,-0.6322,-0.6593,-0.648,-0.6507,-0.6561,-0.6701,-0.6674,-0.6647,-0.6756,-0.681,-0.6756,-0.6783,-0.6945,-0.6972,-0.7052,-0.7106,-0.7106,-0.7214,-0.7369,-0.8004,-0.8817,-0.8955,-0.9112,-0.9725,-1.0095,-1.0249,-1.0403,-1.0582,-1.082,-1.0998,-1.1074,-1.1049,-1.1099,-1.115,-1.1175,-1.1226,-1.1326,-1.1402,-1.1528,-1.1653,-1.1703,-1.1753,-1.1819,-1.1868,-1.1968,-1.2042,0.4203,0.3806,0.3156,0.2666,0.2302,0.2268,0.2111,0.1887,0.1824,0.1756,0.1649,0.1573,0.1492,0.1481,0.14,0.1401,0.1474,0.1354,0.1299,0.1216,0.1129,0.1096,0.1013,0.0948,0.0881,0.0942,0.0931,0.0935,0.0952,0.0909,0.0781,0.0668,0.0512,0.0402,0.0231,0.0085,-0.0112,-0.0587,-0.0947,-0.1288,-0.1483,-0.1544,-0.1596,-0.1628,-0.1613,-0.156,-0.158,-0.1965,-0.2207,-0.2206,-0.2526,-0.2726,-0.2697,-0.2786,-0.2805,-0.2817,-0.2847,-0.2923,-0.297,-0.3108,-0.3171,-0.3347,-0.368,-0.4177,-0.4618,-0.4869,-0.4979,-0.503,-0.5226,-0.5418,-0.5632,-0.5714,-0.5823,-0.6073,-0.6213,-0.629,-0.629,-0.6344,-0.6399,-0.6372,-0.6453,-0.6647,-0.6729,-0.6777,-0.7025,-0.7052,-0.7106,-0.7268,-0.7348,-0.7931,-0.7984,-0.8249,-0.8995,-0.9387,-0.9543,-0.9751,-1.0061,-1.03,-1.048,-1.059,-1.0641,-1.0744,-1.0922,-1.0998,-1.1049,-1.1175,-1.1301,-1.1427,-1.1502,-1.1528,-1.1594,-1.1694,-1.1794,-1.1877,-1.1927,0.4953,0.4522,0.4241,0.3652,0.2902,0.2902,0.2657,0.2262,0.2091,0.1892,0.1649,0.1538,0.1515,0.1555,0.1574,0.1547,0.1561,0.1579,0.1482,0.1388,0.1301,0.1229,0.1171,0.1103,0.1057,0.1054,0.105,0.1063,0.1105,0.1106,0.1065,0.0926,0.0704,0.0622,0.0566,0.0481,0.0281,0.0139,-0.0165,-0.043,-0.0799,-0.0855,-0.0984,-0.134,-0.1334,-0.1291,-0.1293,-0.1406,-0.1478,-0.1599,-0.1884,-0.2054,-0.2186,-0.2335,-0.2479,-0.2514,-0.2522,-0.2548,-0.2652,-0.2842,-0.3027,-0.3123,-0.335,-0.3572,-0.3932,-0.4122,-0.4312,-0.4395,-0.4484,-0.4704,-0.5062,-0.5034,-0.5062,-0.5422,-0.5637,-0.5746,-0.5882,-0.5937,-0.6073,-0.6077,-0.6182,-0.6367,-0.6426,-0.6453,-0.675,-0.6999,-0.7052,-0.7106,-0.7187,-0.7327,-0.7482,-0.7696,-0.8388,-0.8791,-0.8949,-0.9256,-0.9562,-0.9803,-1.0043,-1.0172,-1.0308,-1.0522,-1.0667,-1.0744,-1.0845,-1.0972,-1.1099,-1.1251,-1.1352,-1.1393,-1.1494,-1.1644,-1.1719,-1.1778,-1.1828,0.5555,0.5197,0.5126,0.4564,0.3696,0.3583,0.3202,0.2742,0.2495,0.2179,0.1782,0.1712,0.1691,0.1723,0.1753,0.1671,0.1617,0.1617,0.1566,0.1467,0.137,0.1336,0.1289,0.122,0.1131,0.1148,0.1167,0.119,0.1218,0.1276,0.1211,0.1101,0.0977,0.087,0.073,0.0644,0.0556,0.0515,0.0485,0.0366,-0.0052,-0.0101,-0.0219,-0.0587,-0.0583,-0.0486,-0.0455,-0.0544,-0.0678,-0.0813,-0.1037,-0.1259,-0.1427,-0.1603,-0.1862,-0.1982,-0.2033,-0.2069,-0.2294,-0.2607,-0.288,-0.2947,-0.2993,-0.3021,-0.3105,-0.3378,-0.3544,-0.3599,-0.3821,-0.4101,-0.4374,-0.4267,-0.4349,-0.468,-0.4846,-0.4979,-0.5289,-0.5426,-0.5645,-0.5805,-0.5941,-0.6077,-0.6159,-0.6213,-0.6372,-0.6674,-0.6837,-0.6891,-0.6972,-0.7133,-0.7354,-0.7563,-0.7877,-0.8182,-0.8427,-0.8844,-0.9256,-0.9614,-0.9829,-0.9906,-1.0069,-1.0231,-1.0334,-1.0385,-1.0514,-1.0718,-1.0845,-1.0922,-1.1099,-1.1267,-1.1393,-1.1519,-1.1544,-1.1603,-1.1719,0.6097,0.5862,0.5667,0.516,0.4484,0.4191,0.3752,0.3211,0.2943,0.258,0.2192,0.215,0.2013,0.1925,0.1915,0.1802,0.16,0.1583,0.1552,0.142,0.1426,0.1362,0.1282,0.124,0.1276,0.128,0.1272,0.1276,0.1297,0.1368,0.1331,0.1287,0.117,0.1082,0.0923,0.0895,0.0866,0.0797,0.0838,0.0762,0.0688,0.0626,0.0515,0.0436,0.0386,0.0406,0.0405,0.0224,0.0112,0.0045,-0.0336,-0.0559,-0.0696,-0.0831,-0.1062,-0.1382,-0.129,-0.143,-0.1781,-0.2319,-0.255,-0.2672,-0.2689,-0.2689,-0.2691,-0.2745,-0.2798,-0.2852,-0.291,-0.3079,-0.3274,-0.3469,-0.366,-0.3938,-0.4128,-0.4322,-0.4629,-0.4853,-0.5042,-0.5234,-0.5544,-0.5795,-0.5896,-0.5973,-0.6073,-0.629,-0.6539,-0.6674,-0.6729,-0.6918,-0.7133,-0.7268,-0.7482,-0.7723,-0.8023,-0.8527,-0.8942,-0.9328,-0.9458,-0.9406,-0.9569,-0.9758,-0.9895,-0.9999,-1.0231,-1.0437,-1.0496,-1.0547,-1.0769,-1.1015,-1.1242,-1.1343,-1.1377,-1.1444,-1.1594,0.625,0.6121,0.5903,0.5655,0.5361,0.4871,0.4307,0.3772,0.3242,0.2792,0.2513,0.2263,0.2107,0.2042,0.1971,0.1857,0.172,0.1525,0.1486,0.1499,0.1573,0.1541,0.149,0.1492,0.1492,0.1401,0.1378,0.1381,0.1433,0.1512,0.1456,0.1381,0.1334,0.122,0.1176,0.1145,0.1078,0.1059,0.1049,0.1024,0.1,0.1,0.0979,0.0942,0.0941,0.0964,0.1009,0.0784,0.0761,0.0694,0.0313,0.0089,-0.0067,-0.0179,-0.0537,-0.0784,-0.0785,-0.1177,-0.1541,-0.1918,-0.2133,-0.2242,-0.2382,-0.2296,-0.2156,-0.2296,-0.2268,-0.224,-0.2324,-0.2491,-0.2575,-0.2631,-0.2852,-0.338,-0.363,-0.3769,-0.399,-0.4187,-0.438,-0.4519,-0.477,-0.516,-0.5375,-0.5536,-0.5668,-0.58,-0.6018,-0.6263,-0.6372,-0.662,-0.6842,-0.6945,-0.7106,-0.7295,-0.7589,-0.7931,-0.8203,-0.8455,-0.856,-0.854,-0.8784,-0.9152,-0.9446,-0.9569,-0.987,-1.0162,-1.0205,-1.0283,-1.0514,-1.0744,-1.0947,-1.1226,-1.1352,-1.1377,-1.1444,0.6261,0.6155,0.594,0.5815,0.5778,0.5333,0.4822,0.4283,0.3631,0.3167,0.2948,0.2662,0.2422,0.2285,0.2155,0.2014,0.1913,0.1794,0.1703,0.1721,0.1821,0.1805,0.1788,0.1755,0.1666,0.1564,0.1508,0.1494,0.1471,0.169,0.1774,0.1724,0.1518,0.1583,0.1523,0.1415,0.1169,0.1123,0.1096,0.1092,0.1092,0.1094,0.1077,0.1075,0.1098,0.112,0.1142,0.1165,0.1165,0.1074,0.0918,0.0694,0.0537,0.0358,0.0067,-0.0067,-0.0292,-0.0631,-0.0893,-0.1124,-0.1303,-0.156,-0.1874,-0.1959,-0.1846,-0.1987,-0.1959,-0.1959,-0.1987,-0.2043,-0.2071,-0.2071,-0.2294,-0.2824,-0.2935,-0.3072,-0.3267,-0.3461,-0.3796,-0.3935,-0.4018,-0.4432,-0.4877,-0.5073,-0.5234,-0.534,-0.5473,-0.5746,-0.6018,-0.6295,-0.6512,-0.6593,-0.6701,-0.6885,-0.702,-0.7208,-0.7423,-0.761,-0.7717,-0.7824,-0.801,-0.8375,-0.8751,-0.9126,-0.9309,-0.955,-0.9862,-1.0043,-1.0223,-1.0437,-1.0667,-1.0947,-1.1251,-1.1276,-1.1251,0.6242,0.5998,0.5793,0.5701,0.5684,0.5593,0.5277,0.4745,0.417,0.3726,0.3442,0.3417,0.3106,0.2662,0.2533,0.238,0.2154,0.2119,0.2033,0.2076,0.2091,0.2074,0.2005,0.1932,0.1884,0.1771,0.1683,0.1646,0.1522,0.18,0.2036,0.2112,0.1908,0.1922,0.1832,0.1649,0.1364,0.1353,0.135,0.1318,0.1295,0.126,0.1277,0.1277,0.1299,0.1344,0.1389,0.1412,0.1389,0.1366,0.1344,0.1254,0.1187,0.112,0.094,0.0739,0.0493,0.0189,-0.0149,-0.0406,-0.066,-0.1055,-0.1399,-0.1623,-0.1736,-0.168,-0.168,-0.168,-0.1708,-0.1734,-0.179,-0.179,-0.1818,-0.2041,-0.2127,-0.232,-0.2541,-0.2817,-0.3209,-0.3372,-0.34,-0.3729,-0.4257,-0.4536,-0.4932,-0.5066,-0.5203,-0.5312,-0.5614,-0.5968,-0.6159,-0.6241,-0.6349,-0.648,-0.6588,-0.6718,-0.6826,-0.7069,-0.7203,-0.731,-0.7471,-0.7685,-0.8137,-0.8488,-0.862,-0.8935,-0.9491,-0.9784,-0.9947,-1.0154,-1.03,-1.059,-1.0871,-1.0922,-1.0972,0.6351,0.6274,0.601,0.5895,0.5879,0.5744,0.5471,0.5089,0.4517,0.4188,0.41,0.3858,0.3638,0.348,0.3056,0.2857,0.2618,0.233,0.2156,0.2176,0.2353,0.2241,0.2196,0.2196,0.2152,0.2048,0.1928,0.1846,0.1898,0.2077,0.2115,0.2176,0.2125,0.2138,0.2092,0.1943,0.1849,0.1792,0.1758,0.1656,0.1644,0.166,0.1636,0.1614,0.1681,0.1727,0.1772,0.1817,0.1817,0.1839,0.1861,0.1839,0.1817,0.1794,0.1682,0.1328,0.0966,0.0575,0.0125,-0.0181,-0.0427,-0.0609,-0.0952,-0.1037,-0.1177,-0.1317,-0.1373,-0.1373,-0.1401,-0.1456,-0.1456,-0.1484,-0.154,-0.1651,-0.1708,-0.1792,-0.1984,-0.2151,-0.2539,-0.2567,-0.2593,-0.3259,-0.3757,-0.4343,-0.4736,-0.4846,-0.4956,-0.5042,-0.5207,-0.5559,-0.575,-0.5832,-0.5941,-0.6046,-0.6209,-0.6317,-0.6399,-0.6502,-0.661,-0.6745,-0.688,-0.7149,-0.7578,-0.7984,-0.8355,-0.883,-0.9361,-0.9569,-0.9655,-0.9699,-0.9847,-1.0172,-1.0437,-1.0565,-1.0667,0.6425,0.6395,0.6239,0.6153,0.6132,0.5911,0.5717,0.5501,0.5089,0.4801,0.4561,0.4364,0.4188,0.3987,0.3697,0.352,0.3476,0.3081,0.2796,0.2732,0.2665,0.2553,0.2531,0.2464,0.2373,0.2263,0.2154,0.205,0.2131,0.2136,0.2172,0.2472,0.2346,0.2337,0.2406,0.2418,0.2409,0.2312,0.2225,0.2064,0.2042,0.2042,0.1997,0.1997,0.2064,0.2109,0.2131,0.2131,0.2131,0.2109,0.2111,0.2111,0.2131,0.2174,0.2109,0.1822,0.1706,0.1452,0.112,0.0487,0.016,-0.0138,-0.0392,-0.0645,-0.0785,-0.0953,-0.1009,-0.1037,-0.1094,-0.115,-0.115,-0.115,-0.1261,-0.1399,-0.1372,-0.1373,-0.1456,-0.154,-0.1623,-0.1679,-0.2124,-0.279,-0.3428,-0.4039,-0.4401,-0.4346,-0.4515,-0.4791,-0.4901,-0.5148,-0.5285,-0.5367,-0.5477,-0.5609,-0.5746,-0.5855,-0.5887,-0.5887,-0.5887,-0.6023,-0.6241,-0.6426,-0.6669,-0.7396,-0.8229,-0.862,-0.8909,-0.923,-0.9387,-0.9413,-0.9458,-0.9725,-1.0069,-1.036,-1.0437,0.6489,0.6432,0.641,0.6395,0.6352,0.6147,0.6019,0.6019,0.5782,0.5415,0.4954,0.4893,0.4714,0.4561,0.436,0.4294,0.4136,0.3807,0.3502,0.3439,0.3176,0.2998,0.2865,0.2729,0.2662,0.2484,0.2375,0.2333,0.2221,0.229,0.2514,0.2868,0.2642,0.2595,0.2732,0.2868,0.2843,0.2709,0.2533,0.2333,0.2199,0.2154,0.2154,0.2152,0.2176,0.2221,0.2199,0.2174,0.2174,0.2176,0.2199,0.2221,0.2308,0.242,0.2353,0.2243,0.2184,0.2076,0.1799,0.1242,0.1003,0.0683,0.0308,-0.0056,-0.0252,-0.0645,-0.0757,-0.0757,-0.0841,-0.0841,-0.0813,-0.0813,-0.0897,-0.098,-0.0981,-0.0953,-0.0981,-0.1092,-0.1204,-0.1344,-0.1846,-0.243,-0.2569,-0.3123,-0.3652,-0.371,-0.3987,-0.4349,-0.4543,-0.4708,-0.4873,-0.4956,-0.5148,-0.5258,-0.5258,-0.534,-0.5317,-0.5293,-0.5348,-0.5434,-0.5732,-0.5727,-0.5673,-0.6615,-0.761,-0.799,-0.8335,-0.8646,-0.8935,-0.908,-0.9178,-0.9335,-0.9629,-0.9991,-1.012,0.6645,0.663,0.663,0.6538,0.641,0.6404,0.634,0.6303,0.6266,0.5933,0.5545,0.5458,0.5415,0.5258,0.4992,0.4905,0.4814,0.4465,0.4184,0.3987,0.377,0.3505,0.3353,0.3262,0.3081,0.2843,0.2734,0.2732,0.2776,0.2754,0.2732,0.2912,0.2862,0.2996,0.3065,0.322,0.3265,0.3129,0.3106,0.2862,0.2618,0.264,0.2665,0.2551,0.2529,0.2642,0.2665,0.2687,0.2712,0.2714,0.2712,0.2712,0.2734,0.2779,0.2779,0.2687,0.2442,0.2343,0.2185,0.182,0.149,0.1364,0.1035,0.0728,0.0308,-0.0224,-0.0505,-0.0505,-0.0533,-0.0533,-0.0533,-0.0533,-0.0533,-0.0589,-0.0617,-0.0589,-0.0533,-0.0673,-0.0813,-0.1204,-0.1651,-0.1818,-0.1902,-0.2235,-0.2736,-0.3153,-0.3514,-0.3849,-0.3987,-0.4153,-0.4512,-0.4649,-0.4901,-0.4983,-0.4959,-0.4987,-0.5018,-0.5073,-0.5156,-0.5211,-0.527,-0.5458,-0.5673,-0.6186,-0.6858,-0.7289,-0.7691,-0.8051,-0.8323,-0.86,-0.9001,-0.9211,-0.9309,-0.9621,-0.9699,0.6674,0.6545,0.6518,0.647,0.6392,0.6518,0.6553,0.6523,0.6474,0.6297,0.6062,0.5911,0.5825,0.5825,0.5583,0.5474,0.5404,0.5036,0.4797,0.46,0.436,0.414,0.3987,0.3899,0.3873,0.3675,0.3432,0.3388,0.3439,0.3306,0.3262,0.3439,0.3505,0.3527,0.3612,0.381,0.381,0.37,0.3832,0.3675,0.3278,0.317,0.2996,0.2862,0.2951,0.3043,0.3043,0.304,0.3043,0.3043,0.3021,0.2998,0.2996,0.3018,0.2998,0.2884,0.2705,0.2544,0.2425,0.2208,0.1952,0.1936,0.1677,0.1314,0.1203,0.07,0.0112,0.0028,-0.0393,-0.0449,-0.0449,-0.0449,-0.0449,-0.0477,-0.0505,-0.0477,-0.0449,-0.0505,-0.0645,-0.0869,-0.1176,-0.1232,-0.1428,-0.1818,-0.2235,-0.243,-0.282,-0.3181,-0.3347,-0.3599,-0.3959,-0.4236,-0.4401,-0.4708,-0.4825,-0.4849,-0.4877,-0.4932,-0.5014,-0.5073,-0.5156,-0.5426,-0.5746,-0.5968,-0.6236,-0.6588,-0.6988,-0.7385,-0.7865,-0.8223,-0.8679,-0.9106,-0.9152,-0.9145,-0.9283,0.6698,0.6291,0.6298,0.6284,0.6321,0.6557,0.6677,0.666,0.6575,0.6526,0.6441,0.6169,0.6062,0.6046,0.6067,0.6046,0.5911,0.5583,0.5361,0.5188,0.4905,0.4683,0.4618,0.4596,0.4487,0.4329,0.4111,0.4114,0.4184,0.3987,0.3939,0.4272,0.4381,0.4399,0.4552,0.4618,0.4508,0.4421,0.4487,0.4574,0.4198,0.3715,0.3432,0.3325,0.3325,0.33,0.33,0.33,0.33,0.3192,0.3173,0.3151,0.3148,0.3148,0.3103,0.3015,0.2993,0.3013,0.3055,0.2773,0.2735,0.2653,0.2247,0.2068,0.2014,0.1651,0.1063,0.056,0.014,-0.0168,-0.0168,-0.028,-0.028,-0.0308,-0.0308,0.0,0.0,0.0,-0.0477,-0.0617,-0.0701,-0.0757,-0.1008,-0.1399,-0.1623,-0.179,-0.2068,-0.2374,-0.2681,-0.2986,-0.332,-0.3541,-0.3735,-0.4045,-0.455,-0.466,-0.4684,-0.4822,-0.4877,-0.4959,-0.5042,-0.523,-0.534,-0.5371,-0.5645,-0.5937,-0.6317,-0.6745,-0.723,-0.7685,-0.7984,-0.8335,-0.8468,-0.8514,-0.8837,0.6772,0.6058,0.6183,0.6226,0.631,0.642,0.6533,0.6647,0.6568,0.6547,0.6602,0.6511,0.6383,0.6325,0.6325,0.6303,0.6233,0.5997,0.5938,0.5782,0.5539,0.5296,0.5145,0.5145,0.4857,0.4727,0.4613,0.4552,0.4709,0.4552,0.4465,0.4618,0.4596,0.4639,0.4657,0.4814,0.5014,0.4966,0.4988,0.5053,0.4718,0.4325,0.4132,0.4023,0.3979,0.3844,0.3756,0.3756,0.3539,0.3322,0.3281,0.3325,0.3325,0.3325,0.3281,0.3192,0.3148,0.3277,0.3256,0.3232,0.3245,0.3479,0.3211,0.31,0.2989,0.2766,0.2207,0.1706,0.1259,0.0784,0.0616,0.0224,0.0112,0.0,-0.0056,0.0,0.0,0.0,-0.0308,-0.0393,-0.0449,-0.0505,-0.0589,-0.084,-0.098,-0.1204,-0.1539,-0.1817,-0.19,-0.2291,-0.2623,-0.2847,-0.3014,-0.371,-0.4322,-0.4408,-0.4491,-0.4629,-0.4739,-0.4767,-0.4822,-0.4928,-0.5011,-0.5097,-0.5097,-0.5258,-0.5664,-0.6182,-0.6502,-0.6907,-0.7128,-0.7402,-0.767,-0.807,-0.8553]}]]